GFSGBSN_sfc_dewp_000.txt.gz
Dewpoint
57 59 60 58 59 60 59 60 59 57 56 55 53 53 53 53 53 53 53 53 53 53 55 55 56 57 53 47 44 50 52 49 48 51 51 48 45 41 42 45 44 42 42 40 40 39 38
55 57 59 59 59 60 60 57 59 59 57 56 54 53 54 54 53 54 54 53 53 54 54 55 55 57 50 40 41 42 47 45 44 46 49 48 46 43 39 42 44 44 43 43 41 38 38
56 56 58 59 58 59 60 59 58 58 57 57 55 54 55 55 54 54 54 54 53 54 54 54 55 52 46 41 41 41 44 43 42 41 42 47 47 47 42 39 44 45 45 42 42 39 37
57 56 56 58 58 59 59 59 59 58 57 57 56 55 55 56 56 55 55 54 55 54 54 54 54 49 42 45 45 41 40 40 40 39 41 43 44 46 45 45 45 44 45 42 42 40 39
57 56 56 58 58 59 59 60 59 59 57 56 56 56 55 56 56 56 56 55 55 54 54 54 50 47 39 45 42 42 41 39 38 38 42 40 42 43 44 41 42 44 39 42 42 42 38
59 56 57 58 59 59 59 59 59 59 59 58 58 57 56 55 56 56 55 54 54 54 52 49 47 44 42 39 41 41 41 41 38 37 37 41 41 40 42 40 33 37 41 38 40 40 39
57 58 58 58 58 59 58 59 58 59 59 58 58 57 56 56 56 56 53 51 46 45 48 39 40 38 38 40 41 40 40 39 39 38 34 37 38 35 36 38 39 37 37 40 39 41 38
54 56 58 58 58 58 58 58 58 58 58 58 58 57 56 56 56 55 52 45 45 47 42 45 41 41 41 41 38 39 40 37 37 35 35 35 34 35 35 35 37 37 39 40 39 39 38
51 54 57 58 57 57 58 58 58 58 58 58 57 56 56 55 54 53 49 46 50 48 41 41 44 41 40 41 38 38 40 37 35 34 33 32 32 35 33 31 33 36 38 41 39 38 38
49 50 54 55 57 57 56 57 57 57 57 57 56 56 55 55 50 48 48 50 51 50 34 35 38 41 42 43 39 40 39 37 35 32 32 32 33 30 32 31 32 32 38 40 42 40 34
49 50 50 53 54 55 56 56 56 57 57 57 56 55 55 53 50 46 49 51 51 47 24 36 39 42 41 40 38 37 41 38 34 32 32 32 30 29 29 32 32 33 38 41 43 41 38
48 50 49 52 52 53 56 56 56 57 57 57 55 55 55 52 50 51 52 50 47 33 23 33 39 39 39 39 37 39 38 40 37 35 31 30 33 33 32 34 37 36 37 39 44 40 36
47 48 49 50 51 52 53 55 55 56 57 57 56 55 53 48 45 51 50 46 33 28 34 35 35 36 34 37 37 37 34 34 32 31 32 36 35 36 38 36 37 39 37 33 33 32 28
47 48 49 50 50 51 52 55 55 56 56 56 56 55 52 46 51 50 47 38 28 27 30 37 36 36 36 36 37 36 33 32 34 33 31 28 25 34 36 37 36 38 38 33 30 30 26
45 47 48 50 50 51 52 55 55 55 56 56 56 53 51 49 51 49 42 31 30 33 36 37 37 34 35 37 35 34 31 34 30 32 31 33 29 35 34 35 41 38 35 37 38 25 26
45 46 48 49 49 49 51 55 55 56 56 56 51 50 49 50 52 48 39 33 35 37 39 38 34 31 30 31 29 28 27 29 31 33 34 34 31 35 38 41 41 41 40 36 38 25 25
44 46 47 48 50 49 51 51 56 57 57 54 48 44 48 52 51 44 34 34 35 38 39 37 33 29 26 28 28 24 24 27 30 31 36 36 34 35 38 40 38 42 40 42 40 32 25
43 45 46 48 50 50 50 50 54 56 56 52 47 41 49 52 41 41 37 37 41 39 41 40 37 33 24 27 26 25 27 29 29 29 30 38 35 33 35 40 42 43 40 40 30 29 29
41 44 46 48 49 50 50 52 54 56 54 50 45 46 51 49 37 37 38 38 40 40 41 40 36 30 27 24 22 23 29 31 29 36 35 38 35 32 33 40 42 42 41 39 36 32 29
40 43 46 47 48 49 50 50 56 56 54 50 46 41 45 46 44 40 38 39 38 41 39 39 36 33 29 25 24 31 27 33 33 33 45 43 38 34 33 33 38 39 40 39 35 30 27
39 42 44 46 48 48 50 51 55 56 54 50 45 41 43 38 39 41 41 39 38 38 41 40 36 33 32 28 27 25 31 31 32 32 40 40 37 37 33 35 36 36 36 35 33 31 30
39 41 43 45 48 47 48 50 51 55 53 48 43 40 44 43 39 39 40 39 39 39 40 38 35 38 38 31 28 28 29 30 29 33 30 37 35 36 30 31 33 34 36 35 35 33 33
38 39 42 44 46 47 48 49 51 55 53 48 48 46 43 39 40 40 39 39 40 41 41 41 40 36 39 36 36 31 32 31 34 33 34 36 36 33 27 30 30 29 32 33 34 35 34
38 39 42 44 45 46 47 49 51 54 53 49 47 47 43 37 32 35 38 38 41 42 40 43 42 41 43 42 42 40 39 37 34 35 35 36 37 35 28 28 24 28 29 31 32 33 33
38 38 41 43 45 46 46 48 49 50 54 49 47 47 44 39 37 33 31 40 43 43 44 43 44 41 45 40 40 38 38 38 35 33 36 36 37 34 31 30 31 31 27 29 30 31 32
38 38 40 43 44 46 45 47 50 51 54 51 47 49 46 41 37 35 35 41 40 40 40 41 40 40 41 38 40 35 32 36 35 36 38 38 39 38 32 27 26 27 31 29 31 28 31
38 38 40 43 44 45 45 48 49 51 54 51 49 49 47 42 41 37 34 40 44 41 39 38 39 39 44 36 37 35 35 37 34 34 36 38 38 36 35 32 32 32 31 31 24 29 31
37 38 40 42 44 45 45 47 49 50 53 52 48 49 47 43 42 41 39 39 43 43 38 38 39 40 42 37 38 36 33 37 37 35 37 36 34 35 36 34 30 33 33 30 35 34 33
37 38 39 41 43 45 45 47 49 49 53 52 47 48 49 45 44 44 43 44 45 45 42 40 40 40 43 40 39 35 31 28 34 34 37 34 36 35 36 34 35 35 35 36 37 34 35

GFSGBSN_sfc_dewp_003.txt.gz
Dewpoint
57 57 57 57 58 59 60 60 60 60 58 56 55 53 53 53 53 52 52 52 53 53 53 55 56 58 55 49 48 52 53 52 51 52 52 51 48 45 42 45 47 44 44 44 44 44 42
58 59 58 58 59 59 59 59 59 60 59 57 56 54 53 53 53 53 54 53 53 53 54 54 55 57 51 43 44 47 49 46 46 51 52 51 48 46 44 41 42 46 45 42 43 42 40
58 60 58 58 58 59 59 59 59 59 58 57 57 56 55 54 54 53 54 54 55 54 53 54 54 52 49 43 44 44 47 45 43 43 43 52 50 48 47 44 44 45 43 44 45 42 42
55 57 60 58 58 58 59 59 59 59 58 57 57 57 56 55 54 55 55 55 55 55 54 54 54 51 44 47 47 45 44 41 42 42 42 43 46 44 46 46 43 44 45 42 43 44 42
50 53 57 59 58 58 59 59 59 59 59 57 58 57 56 56 56 56 56 55 55 54 53 53 52 48 41 48 45 45 44 40 40 40 41 40 43 42 43 41 40 41 37 39 42 43 42
48 50 54 57 58 58 58 59 59 59 59 59 58 57 57 56 56 56 56 54 53 54 51 51 49 44 44 40 43 44 43 42 39 40 39 42 41 39 39 40 32 34 37 38 40 41 42
48 49 51 54 57 58 57 58 58 59 58 58 58 58 57 56 56 56 53 50 45 43 47 41 41 38 38 43 43 43 42 41 41 39 35 37 37 35 36 38 38 36 35 37 39 42 41
48 48 48 52 54 56 58 58 58 58 58 58 58 57 57 56 56 56 51 47 44 45 41 45 43 42 41 43 39 41 42 39 38 35 36 35 33 35 36 36 36 37 37 36 37 41 43
46 48 49 50 52 53 56 58 57 58 57 58 58 57 57 56 56 53 49 46 49 47 40 41 44 42 41 43 40 40 41 39 37 36 35 33 31 34 34 33 33 34 36 36 35 39 42
45 46 48 49 50 52 54 56 57 56 56 56 57 57 56 55 50 49 47 49 51 47 35 34 38 42 43 44 40 42 41 38 37 35 35 34 34 32 32 33 32 30 33 34 35 36 37
45 45 47 48 50 50 53 55 56 57 55 56 56 57 56 52 47 46 49 51 50 47 21 35 38 43 42 40 39 39 42 40 35 34 35 32 32 32 31 32 33 30 32 32 37 38 38
43 45 46 47 49 50 51 51 54 55 56 56 56 56 55 51 49 51 51 49 46 32 19 35 39 38 38 40 39 38 38 41 40 37 36 33 33 34 31 31 31 35 36 36 38 36 32
40 44 46 47 48 49 51 51 54 53 56 56 56 55 53 49 45 51 50 45 33 26 32 34 35 37 35 36 37 36 38 38 36 31 31 34 36 36 39 35 35 35 33 29 26 29 28
40 43 45 47 47 51 51 50 52 53 56 56 55 55 51 47 51 50 47 39 28 29 30 37 36 35 34 34 36 36 36 35 38 34 30 27 22 33 37 36 32 33 32 29 21 25 26
41 42 45 46 46 49 51 51 49 51 56 56 55 52 49 51 51 48 40 31 28 31 37 37 37 35 35 35 34 36 34 34 33 34 27 30 27 34 33 37 35 32 32 34 33 35 31
39 40 43 45 47 48 49 49 49 51 56 56 52 49 47 51 50 46 39 31 34 37 39 39 35 35 28 31 34 33 33 34 32 33 33 33 28 34 35 36 37 34 36 33 35 29 28
38 39 41 45 46 48 50 48 50 53 56 56 50 45 50 52 51 43 34 34 36 37 39 38 37 34 31 30 32 31 28 29 31 31 33 34 32 30 37 35 34 36 36 36 34 33 32
38 40 40 44 45 49 49 50 51 50 53 53 48 41 51 52 41 40 37 36 39 39 41 40 40 36 34 30 30 28 26 26 34 32 31 36 36 30 30 38 37 37 37 34 29 32 34
39 40 40 43 44 48 48 49 50 53 55 50 45 45 51 48 36 37 38 38 38 39 40 40 39 38 36 31 33 29 30 34 33 33 35 37 34 29 32 38 40 37 38 39 36 39 33
39 39 39 43 45 47 48 49 49 52 55 51 46 40 45 46 44 39 37 37 38 41 40 41 40 40 38 31 31 29 27 32 34 32 42 39 37 34 30 35 38 38 35 40 39 35 27
40 38 39 40 43 46 47 48 49 50 55 50 46 42 42 37 39 41 40 40 38 38 41 41 39 38 37 30 27 28 32 33 33 42 39 37 33 32 34 35 37 37 37 38 35 36 25
39 38 39 39 43 45 47 48 49 49 53 49 43 42 44 41 39 40 40 40 39 40 40 39 39 38 37 37 29 28 31 32 28 37 35 36 33 35 36 39 39 37 38 37 35 35 32
39 38 38 39 42 44 46 47 48 49 50 49 48 48 44 42 40 39 39 37 39 40 41 40 40 40 39 39 40 39 40 33 31 26 30 35 35 37 31 36 37 34 36 35 35 35 34
39 38 38 38 42 44 46 47 48 48 50 48 48 48 42 38 39 39 39 39 40 41 39 41 42 40 41 44 43 42 42 37 34 32 31 31 34 36 32 28 23 28 30 36 35 35 35
40 38 38 38 42 44 44 46 48 48 49 50 49 48 45 40 40 40 37 33 40 42 43 42 42 40 46 44 41 39 38 36 36 35 35 36 35 34 30 28 29 27 27 30 33 32 33
40 38 38 38 41 43 45 46 48 49 49 51 48 50 46 41 39 40 36 38 37 38 40 42 43 42 46 42 40 35 33 36 34 36 37 36 37 37 31 25 25 27 30 30 31 28 31
40 39 38 38 41 43 44 46 48 49 49 51 49 50 47 41 42 42 38 38 42 42 40 40 40 40 44 41 38 34 33 35 32 33 35 36 36 32 32 30 30 31 31 31 26 27 32
39 39 38 38 39 43 44 45 48 49 50 51 49 50 48 43 43 42 39 40 43 43 40 41 41 41 41 38 38 37 35 37 35 34 33 34 35 35 35 33 28 33 31 24 30 35 34
39 38 38 38 39 41 44 45 47 49 50 51 47 49 50 46 44 46 43 43 44 46 44 43 42 41 42 40 39 37 31 36 35 33 36 35 35 35 36 33 35 34 34 36 35 33 35

GFSGBSN_sfc_dewp_006.txt.gz
Dewpoint
56 58 60 58 57 58 59 59 60 60 58 59 57 55 54 53 54 53 52 52 52 53 53 55 56 58 54 49 48 50 51 53 52 54 54 53 49 46 42 43 44 44 43 46 47 47 46
54 54 57 58 60 59 58 58 59 60 59 59 58 56 55 54 54 54 53 53 52 53 53 54 55 56 50 41 46 45 50 47 49 51 51 52 50 48 45 43 42 43 44 44 45 44 45
49 50 51 55 58 60 59 59 59 59 59 58 58 58 57 55 54 54 54 54 55 54 53 53 53 52 49 43 45 45 45 45 45 46 50 51 51 49 48 44 44 43 42 42 42 45 43
50 50 49 50 54 57 59 58 59 59 59 59 58 58 57 56 55 55 54 55 54 55 54 54 54 51 43 47 47 45 45 44 42 42 43 42 47 49 46 46 43 42 42 39 41 43 45
48 49 49 49 50 53 56 59 58 59 59 59 59 58 58 57 56 56 56 55 55 54 54 54 50 48 41 48 46 45 45 43 40 40 41 40 42 42 41 42 39 40 35 36 38 43 43
46 46 47 49 49 50 53 56 58 58 58 58 58 58 58 57 56 57 56 54 53 54 52 52 50 45 44 41 43 44 44 43 39 40 38 42 41 37 39 39 32 33 35 35 35 41 43
46 45 45 48 50 50 51 53 55 58 57 57 57 57 57 57 56 56 53 49 43 42 48 41 40 40 37 43 44 44 43 41 41 38 35 37 37 33 34 37 37 37 36 33 36 38 39
44 44 47 46 47 49 50 51 53 56 57 56 56 57 57 57 56 56 50 44 42 42 39 44 43 42 42 44 40 42 42 39 39 36 36 35 33 34 36 36 36 36 34 34 35 36 37
42 41 45 47 46 47 49 50 52 55 57 57 56 56 57 57 56 54 48 46 48 46 39 41 43 42 41 42 39 41 40 39 36 34 33 32 31 32 34 35 34 34 33 33 34 35 36
42 42 40 46 45 46 48 49 51 54 57 56 55 57 57 56 51 49 48 49 48 48 34 33 38 42 44 43 40 42 41 39 37 34 34 33 35 33 32 33 33 31 34 35 34 34 31
42 43 40 44 45 47 48 49 50 52 54 56 55 56 56 52 46 46 46 50 49 46 8 32 38 42 43 40 40 40 42 39 37 35 35 31 33 33 31 31 33 31 33 31 33 33 33
42 41 41 44 44 47 47 48 49 51 53 54 56 56 55 50 49 48 50 49 46 27 14 34 39 38 39 40 39 39 40 41 41 36 36 32 35 34 32 32 31 35 33 32 33 34 28
41 41 41 42 44 47 47 48 50 50 51 54 53 56 52 49 46 51 49 45 30 20 30 33 35 37 36 36 37 37 38 38 35 31 31 35 35 36 38 34 34 32 30 27 26 24 24
41 40 40 40 41 46 47 47 50 50 51 52 52 55 51 47 52 50 47 36 22 25 30 36 35 36 33 33 37 35 36 34 38 36 33 29 26 35 35 33 32 31 30 26 17 21 23
42 41 40 40 41 44 47 47 50 49 50 51 52 53 49 50 51 48 41 30 24 29 34 34 35 33 34 36 34 37 36 33 31 37 30 29 27 34 34 34 33 31 28 30 29 29 28
42 41 39 41 41 44 46 47 49 49 49 51 49 48 47 51 50 46 37 28 31 36 39 37 33 35 30 32 32 33 33 32 34 35 34 29 24 32 34 36 34 31 32 28 29 21 22
41 41 40 39 40 43 46 47 49 50 50 50 49 43 48 51 49 42 33 31 34 39 39 37 37 36 33 28 32 31 30 32 34 32 35 33 31 31 34 33 30 32 30 31 27 28 27
41 40 41 39 40 43 45 48 48 50 49 49 47 38 50 51 40 39 36 36 37 38 40 39 39 38 35 31 32 30 30 28 33 32 32 33 35 28 29 33 36 31 29 29 26 25 31
42 40 40 38 42 44 45 47 47 50 52 50 44 44 50 48 35 35 38 36 37 38 39 39 39 39 37 32 29 30 30 31 33 33 32 36 34 27 29 33 34 35 31 33 33 34 31
42 41 40 39 41 43 45 46 48 48 50 51 44 39 44 45 43 37 35 35 36 40 38 39 40 40 38 35 31 30 31 32 34 31 40 38 35 32 26 33 35 33 33 33 33 31 30
42 41 40 38 39 42 45 46 48 48 48 50 46 41 42 36 39 38 37 38 36 36 40 41 38 39 38 34 31 31 31 29 35 39 40 37 32 33 34 35 36 35 35 35 37 35 30
42 41 40 38 39 40 44 46 47 48 49 49 44 42 42 38 39 40 38 38 37 38 40 39 38 39 38 36 30 28 30 32 30 37 37 38 32 34 32 36 35 35 37 37 37 36 36
41 41 40 38 38 41 44 46 47 47 49 43 48 46 42 39 38 38 38 38 38 39 40 40 40 39 39 39 38 40 40 36 34 36 33 34 33 33 33 38 37 35 36 37 35 36 35
40 40 40 39 38 41 43 45 47 48 48 47 48 45 43 39 39 38 39 39 39 39 37 41 41 40 40 45 45 45 41 41 35 32 33 33 33 34 34 37 26 28 38 37 38 39 40
40 40 40 39 38 41 43 45 47 47 48 48 49 45 41 39 39 38 39 38 37 40 40 41 42 43 43 43 41 37 37 37 34 34 32 33 34 32 30 28 29 27 28 35 35 35 34
40 40 40 40 38 40 42 44 47 48 49 49 49 48 45 41 40 40 38 38 37 35 38 42 44 44 46 43 40 35 30 31 31 34 36 36 35 35 30 25 25 27 29 30 31 29 30
40 40 39 38 38 40 42 44 46 48 49 49 49 50 47 42 42 41 38 37 40 38 38 40 41 42 45 41 37 35 33 34 30 30 32 34 35 30 30 30 30 32 31 31 27 27 31
40 40 39 38 39 39 40 43 45 47 48 49 49 50 48 43 43 41 40 40 41 41 38 41 42 42 42 39 38 37 33 34 33 32 33 33 33 32 32 29 26 34 30 24 28 34 35
39 40 40 38 39 40 40 43 44 45 48 49 47 50 50 46 44 46 44 43 42 44 43 43 42 42 42 40 39 40 33 34 35 30 34 33 35 35 33 32 35 35 35 37 34 34 35

GFSGBSN_sfc_dewp_009.txt.gz
Dewpoint
50 50 51 52 53 55 58 59 59 59 58 58 59 58 56 55 54 54 54 54 53 53 54 55 56 57 54 49 47 50 54 54 55 57 55 52 49 45 41 42 44 43 44 43 46 47 47
50 50 51 50 51 52 54 57 59 59 58 58 59 59 57 55 55 55 54 54 53 53 54 54 55 55 49 40 45 45 45 48 50 52 53 53 50 49 45 43 42 43 42 43 45 44 45
47 47 47 49 50 50 51 54 57 58 58 58 58 59 58 57 55 54 54 54 55 54 53 53 54 52 48 42 45 45 44 45 45 51 50 52 52 49 48 44 45 44 42 42 42 43 44
47 47 48 47 49 50 51 53 55 57 58 57 58 59 59 58 56 55 55 54 55 55 54 54 54 51 42 47 47 45 45 43 43 45 44 46 52 50 48 46 43 42 40 36 39 42 43
45 46 45 47 48 50 50 50 53 54 56 58 58 58 58 58 57 56 56 55 54 54 54 54 50 46 40 47 46 45 45 42 40 40 41 40 43 42 41 42 39 39 33 34 37 40 42
44 44 44 44 47 48 49 49 50 52 53 56 57 57 57 58 57 56 56 55 53 53 53 51 49 44 44 41 44 44 45 43 39 39 38 40 42 39 40 39 30 32 34 33 34 39 40
43 43 42 42 42 46 47 47 49 51 51 55 57 56 56 57 57 56 54 48 42 41 48 41 42 41 38 43 44 44 43 42 40 38 34 36 37 35 35 37 37 36 35 34 35 37 36
43 43 42 43 42 43 46 47 48 48 51 52 55 57 56 57 57 56 49 43 40 41 38 43 43 43 42 44 40 42 42 39 39 36 36 35 32 34 35 34 34 34 34 34 33 34 35
42 43 42 44 42 44 45 46 48 49 50 52 54 57 56 56 56 54 47 45 47 45 37 39 43 42 42 42 39 41 41 39 37 36 35 33 31 34 33 33 34 34 33 31 31 34 34
42 43 42 41 41 44 44 47 47 48 49 51 54 56 55 56 52 50 47 48 48 46 29 31 39 42 42 42 38 42 41 39 37 35 35 34 34 33 32 31 33 30 34 34 33 32 27
43 43 42 42 40 42 44 46 48 47 48 51 53 55 55 55 49 47 46 49 48 40 10 32 38 43 43 38 40 40 42 39 35 35 34 33 34 32 31 31 32 30 33 32 33 33 31
44 43 43 42 41 41 44 46 49 47 48 51 52 53 55 51 49 48 49 49 45 24 13 33 39 38 40 40 39 40 40 40 41 36 36 32 35 35 33 33 32 34 33 33 32 31 26
44 44 43 42 41 42 45 46 48 47 49 49 51 52 53 50 46 49 49 45 29 18 30 32 33 37 34 37 36 37 38 38 35 32 31 36 34 36 37 32 33 31 30 25 25 24 22
43 43 43 42 41 41 42 44 48 48 49 49 50 51 51 49 51 49 46 37 20 24 29 35 35 36 32 34 35 36 36 34 37 35 33 28 27 34 35 33 31 31 28 24 17 20 20
44 43 42 42 42 41 41 43 45 47 50 49 50 49 47 51 50 48 40 29 24 26 32 34 34 32 32 33 34 35 35 32 32 35 30 27 26 35 35 33 33 34 31 29 24 25 28
44 44 43 41 42 40 41 44 46 49 49 49 48 45 46 51 49 45 37 27 28 34 37 34 30 32 28 31 33 34 32 33 32 34 34 32 27 31 34 34 34 31 32 29 29 22 20
44 43 43 42 41 39 41 43 47 48 49 49 46 41 48 51 48 42 33 29 33 37 39 36 32 33 31 32 32 28 28 31 34 33 36 35 28 27 31 32 29 32 30 29 27 26 20
43 43 43 42 41 39 40 43 46 48 49 48 44 34 50 50 39 40 35 33 36 36 40 39 38 35 34 32 32 30 30 30 35 35 34 34 32 26 26 31 33 31 29 28 27 18 23
43 42 43 41 41 39 40 43 46 48 49 45 41 42 49 47 33 34 36 34 37 36 38 37 38 38 37 32 30 32 30 33 35 34 33 34 33 25 30 33 35 33 32 29 28 30 25
43 42 42 41 41 40 42 43 46 48 48 47 42 36 42 44 42 35 32 34 35 39 36 38 39 39 37 35 32 30 31 33 33 33 38 37 35 31 24 30 34 30 32 30 28 25 24
42 41 42 41 40 38 41 44 46 48 47 48 43 39 39 35 38 36 35 35 35 36 39 39 39 38 37 34 33 31 32 31 34 37 38 37 31 33 33 33 34 34 33 31 29 28 25
41 41 42 40 41 38 41 43 46 48 48 47 43 41 40 37 38 34 36 34 37 36 38 39 38 38 39 37 31 28 31 31 31 38 37 39 32 33 31 34 33 31 33 35 31 31 31
40 40 41 41 40 38 40 45 46 48 48 43 44 47 41 38 38 36 35 36 37 38 41 40 40 39 38 39 37 37 39 38 36 36 37 36 34 33 28 36 35 30 32 33 34 33 35
40 40 41 40 40 38 39 43 45 47 48 46 45 44 42 36 36 35 38 38 38 38 37 40 41 40 40 44 43 42 42 41 40 36 38 35 34 34 30 33 28 35 39 37 35 36 37
41 40 41 40 38 38 38 42 45 46 48 46 47 46 44 38 37 37 38 39 40 40 40 39 41 42 44 43 40 36 37 37 36 34 35 34 33 33 32 29 30 34 40 39 37 36 38
41 40 40 40 38 39 39 41 44 46 47 47 46 49 45 41 39 40 39 40 39 38 39 40 43 44 45 42 39 34 29 29 30 32 33 33 34 33 32 28 23 26 35 36 39 32 40
41 40 40 40 39 39 40 40 43 45 46 47 46 50 46 39 41 40 38 38 40 38 36 39 41 43 44 39 36 34 31 32 29 30 32 33 34 31 31 31 29 32 31 31 31 29 32
41 40 40 40 40 39 40 40 43 44 46 46 46 49 47 42 42 42 41 40 40 39 37 41 41 42 41 38 37 36 32 33 30 30 31 31 31 30 29 29 23 34 32 26 29 34 34
40 40 39 40 41 40 40 40 42 44 44 47 45 50 50 45 43 46 44 43 43 43 42 43 42 42 43 40 38 39 35 33 32 28 33 31 33 32 31 30 33 35 34 36 34 34 34

GFSGBSN_sfc_dewp_012.txt.gz
Dewpoint
48 49 48 48 48 50 52 52 54 55 59 58 58 58 59 57 56 54 54 53 53 53 54 55 56 57 54 50 49 50 54 53 57 57 54 51 48 44 40 41 42 42 43 44 44 44 46
47 47 47 46 49 48 50 52 52 53 55 59 57 58 59 58 56 55 55 54 54 53 54 54 55 54 48 40 44 45 44 47 54 56 55 53 48 48 44 43 41 42 43 43 43 44 44
46 46 46 46 47 47 48 50 51 51 53 57 58 58 58 58 57 55 55 54 54 54 54 53 54 51 47 42 45 45 44 44 46 51 52 53 51 47 46 43 45 44 41 42 42 42 42
45 45 45 45 44 44 47 49 48 50 51 53 56 57 57 57 57 56 55 55 55 55 55 54 54 49 40 46 47 45 44 42 43 48 46 51 52 50 47 46 42 41 41 35 38 40 42
44 45 44 44 44 45 43 44 48 48 50 52 53 56 57 57 57 56 56 55 55 54 55 54 49 45 40 46 46 45 44 40 41 42 42 41 48 44 43 39 36 38 31 34 35 39 40
45 43 44 43 43 45 44 44 47 47 48 50 51 53 56 57 57 56 56 55 54 53 52 50 48 43 43 40 44 44 45 43 39 39 39 40 41 39 39 36 27 29 32 35 34 37 37
44 43 42 43 42 42 42 45 46 46 46 49 50 53 54 56 56 56 54 49 43 43 48 41 41 40 39 43 44 44 44 41 40 37 36 37 37 35 36 36 35 35 34 34 35 36 35
43 43 44 44 44 42 42 44 45 47 48 47 48 51 54 55 57 56 50 43 41 40 38 44 44 43 43 44 40 42 43 39 38 35 35 35 32 35 36 36 35 35 33 32 32 34 34
45 45 45 45 44 43 42 41 44 46 48 48 48 49 53 53 57 53 47 44 46 44 36 37 42 42 42 42 39 40 41 39 37 35 35 32 31 34 34 33 33 33 32 30 30 31 31
46 44 45 45 43 43 43 41 45 47 48 48 47 49 51 54 54 50 47 47 47 43 24 29 39 41 42 42 38 42 42 39 37 35 35 34 35 34 32 32 32 29 33 33 33 31 25
45 44 43 45 43 43 41 43 46 47 47 47 47 49 51 54 51 47 47 48 47 37 12 33 39 44 43 38 38 40 42 39 36 34 35 31 33 33 32 31 32 29 33 32 33 32 29
46 46 45 44 43 43 42 44 46 45 47 47 48 49 51 49 52 48 48 48 42 22 12 32 37 40 39 38 39 40 39 41 40 35 35 31 35 34 32 33 32 33 32 32 32 32 25
46 45 45 45 44 43 43 42 43 46 47 49 48 49 50 49 47 50 49 44 28 19 30 32 33 36 36 35 36 38 37 37 34 32 32 35 35 36 36 32 33 32 31 24 24 24 19
45 45 45 45 44 43 43 41 42 44 47 48 50 49 50 48 51 50 46 34 23 24 27 34 32 34 31 35 34 36 37 34 37 36 33 29 23 34 35 32 30 30 29 24 16 18 19
45 45 44 44 44 43 42 41 42 45 47 50 49 48 47 48 51 49 37 29 24 25 33 34 33 30 30 34 34 35 35 34 32 37 31 29 24 34 34 34 33 34 29 29 25 22 23
43 44 44 43 44 43 41 42 43 45 47 49 46 45 44 49 52 47 34 28 27 31 36 34 29 31 29 32 32 34 33 32 34 36 36 32 27 30 33 35 34 33 35 29 28 19 16
43 44 44 43 43 42 41 41 43 45 48 48 45 39 46 50 51 41 32 29 30 37 37 34 32 31 29 31 32 32 29 30 34 33 35 34 32 26 34 31 28 32 31 33 32 29 19
43 44 43 42 43 42 40 40 44 46 48 46 43 34 49 49 38 37 34 31 36 36 40 38 37 33 32 31 31 30 28 29 34 35 33 35 34 26 27 31 32 30 28 28 25 19 23
43 43 42 42 42 41 39 41 44 47 48 45 40 41 49 46 33 35 35 34 36 37 38 37 37 37 37 33 31 31 31 33 35 35 33 34 33 26 26 32 34 32 31 29 28 28 22
43 43 42 42 42 41 39 41 44 47 48 45 41 35 42 42 42 35 32 32 33 38 37 38 38 38 37 35 32 30 31 33 35 35 37 36 34 30 24 29 33 32 33 32 30 26 23
42 43 41 41 42 41 39 42 44 47 48 46 43 36 37 32 36 35 34 33 32 35 38 37 38 37 37 36 36 33 32 32 34 36 37 37 31 33 33 32 34 34 33 34 31 29 24
42 42 42 42 41 40 39 41 44 48 49 44 41 40 39 35 38 33 34 35 35 35 38 36 36 36 38 37 35 31 33 32 34 35 35 38 31 33 31 34 35 33 34 32 34 30 27
42 42 42 41 41 39 39 43 44 47 48 41 42 44 39 37 38 33 33 34 33 37 38 38 39 39 38 39 40 39 37 39 38 36 36 36 33 32 27 33 34 29 32 33 32 34 29
42 42 41 41 41 39 39 41 43 46 48 46 44 44 40 36 36 33 35 34 37 38 36 40 40 40 40 43 42 41 39 39 40 39 38 35 33 33 29 32 27 36 39 34 31 32 34
42 42 41 40 41 40 39 40 41 45 46 45 46 45 44 36 36 35 38 37 37 39 40 39 39 41 43 42 39 37 37 36 37 39 38 38 34 32 31 31 32 36 37 34 31 32 34
42 42 41 40 41 41 39 40 41 44 45 45 45 48 46 39 36 36 37 39 39 39 39 41 43 44 43 42 38 34 29 31 29 32 34 37 34 33 30 29 24 27 41 42 39 35 37
41 41 41 40 40 41 40 41 41 44 44 45 45 49 46 41 40 40 38 39 41 39 37 37 39 40 44 40 36 34 32 32 28 30 33 32 33 30 29 29 29 32 33 40 33 31 34
42 41 41 40 41 41 40 41 40 43 45 45 44 48 47 42 42 41 41 40 40 39 36 39 40 41 40 37 36 36 33 32 29 29 31 30 29 30 30 29 22 35 32 30 30 34 34
42 41 40 41 41 41 40 41 40 42 44 45 42 45 49 43 42 45 44 43 42 41 42 42 40 42 42 40 38 39 35 32 31 27 31 30 31 31 31 29 32 35 34 35 34 34 33

GFSGBSN_sfc_dewp_015.txt.gz
Dewpoint
47 47 47 47 47 46 46 49 50 49 51 54 56 58 58 58 58 56 54 53 53 53 54 54 55 57 54 50 50 50 52 51 57 57 53 51 47 44 40 42 43 43 43 44 44 44 44
46 46 46 46 46 45 46 45 46 48 49 51 54 56 57 58 58 57 55 54 54 53 54 54 55 53 49 43 44 45 44 47 57 57 54 51 48 47 44 43 41 41 43 43 43 43 44
46 46 46 45 44 44 46 47 45 46 48 50 52 55 56 57 58 58 56 55 54 54 54 53 54 50 47 42 45 45 44 44 48 54 54 54 51 47 46 44 45 44 42 41 42 42 41
45 45 44 44 45 43 42 43 42 45 47 48 49 52 54 56 57 57 56 55 54 55 55 54 54 48 39 45 47 45 44 42 43 50 49 53 52 50 47 46 41 41 41 36 37 40 41
43 45 43 45 45 45 44 43 43 44 47 47 48 50 52 54 56 57 57 56 55 55 54 55 49 44 40 46 46 45 43 40 42 43 43 50 48 44 46 41 36 38 31 35 34 38 39
44 44 45 45 45 46 45 44 43 42 46 48 48 48 50 52 54 57 57 55 54 53 52 50 48 43 43 40 44 44 45 41 39 40 39 40 40 38 39 38 28 30 34 34 33 36 36
47 48 46 45 45 45 45 44 43 42 44 46 48 49 49 50 54 56 55 51 46 45 47 41 41 40 40 43 44 44 44 41 39 38 37 38 37 34 35 37 34 35 34 33 34 35 34
47 46 45 45 45 44 44 43 43 43 45 46 48 49 48 49 54 55 52 45 42 40 39 45 44 43 44 44 40 42 43 39 37 35 36 35 34 34 36 37 36 35 34 32 32 32 32
46 46 46 46 46 45 44 43 43 44 46 46 47 49 47 48 51 53 48 44 45 42 35 37 42 42 42 42 39 40 41 40 37 35 35 33 32 34 34 35 33 33 32 29 29 31 32
46 47 47 46 46 46 44 43 43 45 46 47 47 47 48 48 49 51 47 47 47 41 24 29 39 41 42 42 38 42 42 40 37 35 35 34 34 34 33 32 33 31 32 32 31 30 24
47 46 46 45 45 45 45 44 43 44 43 45 47 47 48 49 48 48 49 48 44 37 9 32 38 43 42 38 37 40 42 39 36 35 35 31 33 34 33 31 32 30 32 31 32 32 31
46 46 46 45 45 45 45 43 43 43 43 45 47 49 48 48 49 49 50 48 39 24 14 32 37 39 38 37 39 40 39 41 39 35 36 32 35 34 33 33 33 34 33 32 32 31 25
44 45 45 45 45 44 44 43 43 42 43 47 48 49 48 48 44 50 51 45 30 18 30 31 33 39 35 35 37 37 37 37 35 31 31 34 34 35 35 32 33 32 32 25 23 24 20
43 43 44 45 44 44 44 42 42 42 45 46 48 49 48 48 49 48 47 37 24 24 27 33 33 36 33 32 34 36 35 34 36 36 32 27 23 33 35 32 30 32 30 25 17 17 20
43 43 44 44 44 44 43 42 42 43 46 47 48 47 47 48 49 48 40 30 24 25 33 32 32 31 31 32 33 34 35 33 35 35 31 28 26 33 35 35 32 32 29 30 27 25 24
41 44 44 44 43 43 43 43 41 44 47 48 45 45 44 48 48 44 35 31 27 34 34 33 29 30 28 31 32 33 33 33 33 36 35 32 27 29 33 35 35 34 34 28 29 19 17
44 44 44 43 43 43 43 41 42 45 46 48 43 39 46 48 47 39 32 30 31 37 35 32 31 31 30 31 31 32 30 31 34 35 36 34 32 26 34 32 28 32 31 33 32 29 21
44 43 43 43 43 42 43 41 42 44 47 45 40 35 47 49 34 34 34 32 36 38 39 38 34 32 30 31 31 31 29 28 33 35 34 34 33 27 26 30 32 30 29 28 26 23 26
43 43 43 43 42 42 42 40 42 45 47 45 37 39 47 45 32 34 36 35 36 37 38 37 36 36 35 32 31 31 31 33 35 34 33 34 32 23 25 30 32 32 31 30 29 28 25
43 43 43 43 42 42 40 40 42 45 47 46 39 34 41 42 41 36 33 33 33 37 38 38 37 37 36 34 33 31 31 33 35 35 37 36 32 28 21 26 32 31 31 32 32 28 24
44 43 43 42 42 42 40 41 43 45 48 47 41 35 38 33 36 35 33 32 33 34 37 37 38 37 34 34 34 33 32 32 35 37 36 36 31 32 31 30 31 32 34 33 31 30 26
43 43 43 42 42 41 40 41 44 45 49 43 38 38 39 36 38 33 35 32 30 35 36 36 34 34 37 36 34 33 33 32 32 34 35 38 32 34 31 33 34 31 33 34 33 32 30
43 43 42 42 41 42 40 43 44 45 48 42 42 43 41 37 36 34 32 34 34 36 37 38 37 36 37 37 39 40 40 38 36 34 34 36 34 32 27 32 34 30 33 34 33 33 32
42 42 42 41 41 41 41 40 43 44 47 45 44 43 40 34 35 33 33 33 35 37 36 40 39 39 40 44 42 42 41 40 38 38 37 36 33 33 29 32 26 37 38 36 34 32 31
42 42 41 41 41 41 42 40 42 42 45 44 45 43 42 35 35 34 34 32 34 36 39 39 39 41 43 42 37 36 37 37 36 38 39 38 36 32 29 29 32 34 35 35 33 32 33
42 42 42 41 41 41 41 41 42 41 44 45 44 48 44 37 34 35 37 37 37 36 39 40 43 44 42 39 36 33 30 29 28 30 35 38 37 35 31 27 27 28 38 37 38 32 36
42 42 41 41 41 41 41 41 41 41 43 45 44 48 44 41 40 37 36 38 41 40 38 39 40 40 42 37 33 34 32 31 27 29 31 32 33 31 30 29 29 32 33 40 31 29 33
41 41 40 41 41 41 41 41 41 40 44 44 43 47 43 42 41 41 41 40 38 38 36 38 39 41 40 36 36 35 34 31 28 29 30 30 29 30 30 28 22 33 37 32 30 33 34
40 40 40 41 41 41 40 41 40 40 42 44 41 43 44 44 43 45 44 43 42 41 41 42 40 41 41 38 39 39 34 31 30 28 31 29 31 29 30 29 32 34 33 34 34 34 34

GFSGBSN_sfc_dewp_018.txt.gz
Dewpoint
47 47 46 47 46 45 45 46 46 46 46 47 49 50 54 57 58 58 58 55 54 54 54 54 55 56 53 50 48 49 51 52 56 57 53 49 46 43 40 39 41 40 37 40 40 43 41
47 46 45 45 46 46 45 44 43 44 44 47 48 50 52 56 56 58 58 56 55 54 54 55 54 54 47 43 45 45 44 51 54 55 53 51 48 45 42 40 40 39 41 40 41 40 40
45 45 46 45 46 46 46 46 45 44 43 45 48 48 49 52 54 57 57 56 55 55 54 55 54 49 46 36 43 44 44 46 55 55 53 52 49 46 45 41 43 41 38 36 36 37 36
45 45 45 46 45 46 46 46 45 44 44 43 47 48 48 50 53 56 57 57 56 55 55 54 54 46 39 43 46 44 43 43 49 50 52 54 52 46 41 44 39 37 38 33 34 38 39
45 48 48 46 46 46 46 45 45 44 43 43 45 47 48 49 50 54 56 57 56 56 55 55 49 43 40 46 44 43 41 43 46 45 48 51 47 42 43 37 35 35 29 32 33 35 36
48 46 47 46 46 47 46 45 45 43 44 45 45 45 48 49 49 52 55 57 55 54 52 51 47 43 43 40 43 43 43 42 42 43 43 43 40 36 35 36 29 29 32 30 30 33 36
47 47 47 47 48 46 46 46 45 45 43 44 45 46 48 49 49 49 53 54 46 45 47 40 40 39 40 43 44 42 42 40 40 41 37 39 37 33 32 34 33 32 31 30 31 33 32
47 48 47 47 47 46 46 46 46 44 44 45 46 47 47 47 48 49 51 46 41 42 39 44 43 41 43 42 39 42 42 37 37 34 37 37 34 34 34 34 33 33 31 30 30 31 31
47 47 47 47 47 46 46 46 45 45 44 45 46 45 47 47 47 48 48 48 48 42 36 40 43 41 41 42 38 40 40 38 36 35 36 32 32 33 34 34 32 32 31 29 28 29 30
45 45 46 46 46 46 46 45 45 44 44 45 44 45 46 47 45 45 45 50 50 45 36 33 39 40 41 41 37 41 40 38 37 34 35 34 34 32 32 32 32 30 30 30 29 29 25
45 45 46 45 46 45 45 45 45 43 43 43 46 46 46 48 45 43 47 51 50 43 24 33 38 43 41 36 37 40 42 38 35 34 35 32 32 33 32 31 32 30 31 29 29 29 28
45 45 45 45 45 45 45 45 44 43 44 45 46 46 48 47 46 45 51 50 46 32 23 32 39 39 38 37 37 40 40 39 37 34 35 32 35 33 31 33 33 33 31 31 30 30 27
42 43 44 45 45 44 44 44 43 42 42 45 46 49 48 47 41 48 51 44 31 29 30 31 32 37 34 33 36 36 37 36 34 32 32 32 32 33 33 30 33 33 30 25 24 25 21
44 46 45 45 44 43 44 43 42 42 44 46 48 48 47 46 49 50 48 36 28 26 28 32 33 33 31 31 34 35 35 34 34 33 32 28 27 32 35 31 28 30 28 24 17 15 15
45 45 44 44 43 44 44 43 43 42 45 47 48 46 47 48 48 46 39 31 29 25 30 31 33 31 32 30 32 33 33 31 32 34 31 29 26 32 33 33 32 32 30 29 27 25 23
45 44 44 43 43 44 43 43 42 42 46 48 44 43 44 49 48 44 34 34 27 33 32 31 28 28 27 30 30 30 31 31 31 32 33 31 29 29 32 35 34 32 31 29 31 20 17
44 44 43 43 44 43 43 41 42 43 46 48 43 38 46 48 46 38 33 33 34 34 33 31 30 29 28 28 30 29 29 31 33 34 34 33 30 29 32 32 28 32 31 34 30 28 19
44 44 44 43 43 43 43 40 42 44 46 46 41 33 46 47 36 36 35 33 37 35 39 36 32 31 30 31 30 30 29 29 33 36 33 34 31 28 28 27 29 27 26 28 28 25 27
44 44 44 43 43 42 42 40 42 44 45 44 38 36 47 46 34 35 36 35 37 37 37 36 34 34 32 31 30 30 31 32 34 34 32 33 32 26 28 29 30 29 28 28 31 31 28
44 44 43 43 42 42 42 40 43 44 46 47 39 34 40 42 41 35 33 33 35 38 37 37 37 36 33 31 32 31 31 33 34 33 36 35 30 31 24 28 31 33 30 31 33 28 26
44 44 44 43 42 42 42 41 42 45 47 47 40 35 38 35 36 34 33 33 33 33 37 37 36 36 33 32 32 32 32 32 34 36 35 34 32 33 31 30 31 33 32 32 32 31 27
42 43 43 43 42 42 42 41 44 46 47 43 36 37 39 37 35 32 33 31 32 35 34 35 32 35 36 33 32 33 33 33 32 34 33 36 32 34 32 34 33 33 34 35 34 34 32
42 43 42 42 41 41 42 42 44 45 46 41 43 43 41 37 35 31 31 32 31 35 36 37 36 35 35 35 38 38 37 37 35 33 33 35 35 33 29 31 34 31 34 34 35 36 33
42 42 42 42 42 41 42 42 42 44 45 44 43 42 40 34 34 31 32 33 34 32 37 38 38 36 39 43 42 41 41 39 39 39 35 36 34 34 30 34 27 36 38 38 36 35 36
42 42 42 42 42 42 41 42 42 42 44 44 45 42 41 36 34 33 33 33 36 38 36 37 39 40 43 42 37 33 36 37 36 37 38 37 37 33 31 30 29 34 36 39 35 32 33
41 41 40 40 40 41 41 41 42 41 43 44 45 46 44 39 35 34 34 33 33 34 36 38 43 45 43 40 36 30 29 30 30 33 37 37 39 35 32 28 26 32 33 37 36 30 33
41 40 40 41 41 41 41 41 42 40 43 44 44 45 43 41 41 36 35 36 40 39 39 40 41 43 44 39 34 30 30 32 29 29 30 33 34 31 29 29 28 32 34 40 29 30 34
40 40 40 39 39 40 40 40 39 40 41 44 42 46 41 40 43 41 41 40 40 40 37 40 40 41 41 36 34 34 35 33 32 31 31 30 30 30 30 27 27 33 36 32 34 35 34
40 40 40 39 38 38 38 38 39 40 40 43 41 43 44 40 45 46 44 44 42 42 41 42 40 40 41 38 38 39 35 34 33 28 33 31 31 29 30 30 34 34 35 36 36 35 35

GFSGBSN_sfc_dewp_021.txt.gz
Dewpoint
46 46 46 46 46 46 47 47 46 45 46 45 44 47 49 49 52 55 57 58 56 55 55 55 55 56 52 50 48 50 52 53 56 56 50 46 43 40 38 36 36 37 34 31 35 37 38
45 46 46 47 47 47 46 47 47 46 46 45 44 45 48 48 49 53 55 58 57 55 55 55 54 54 48 46 47 48 46 50 50 55 51 48 45 42 40 38 38 37 37 37 38 38 38
47 46 49 48 47 46 46 46 46 46 46 45 45 44 46 48 49 51 53 57 58 55 55 56 55 48 44 41 41 43 45 48 52 52 52 51 49 45 44 41 41 41 39 37 37 38 37
48 49 48 47 48 47 48 48 47 46 46 45 45 45 46 47 49 50 51 54 57 57 55 55 55 45 40 43 44 42 42 47 51 53 53 52 50 47 42 42 38 36 36 33 32 34 34
48 47 47 48 48 48 49 48 46 47 46 46 44 44 45 46 48 50 50 51 56 56 55 55 49 44 39 47 40 40 41 45 48 47 50 52 50 44 42 39 33 33 29 30 31 34 34
47 48 48 49 48 48 48 48 47 47 47 46 45 45 46 47 48 49 50 51 53 56 53 51 47 43 41 40 42 41 40 45 45 44 45 44 41 37 37 34 28 28 31 30 28 30 34
49 49 48 48 47 48 48 48 46 46 46 46 44 45 47 47 48 48 48 48 49 46 49 41 42 39 40 42 43 42 40 43 42 41 36 38 36 33 31 32 31 30 29 28 28 30 30
46 45 45 47 47 47 47 46 46 46 46 46 45 46 46 45 47 48 47 42 44 46 42 41 40 41 41 41 39 40 40 39 39 37 37 37 35 33 33 32 32 32 30 29 28 29 29
46 46 47 46 46 46 46 46 46 46 46 44 45 46 45 46 46 46 44 42 49 49 40 40 41 39 41 42 37 40 39 37 37 35 35 34 33 33 33 32 32 31 30 29 27 28 28
45 46 45 45 45 46 46 45 45 45 45 45 43 46 45 46 44 44 41 44 50 49 36 36 38 38 41 40 37 40 40 37 36 33 34 34 33 31 32 31 31 29 29 29 28 28 25
46 45 46 46 46 46 45 45 45 45 44 43 43 46 47 48 45 41 44 50 50 46 27 35 37 40 40 36 38 39 40 38 34 33 34 32 32 32 31 30 31 29 31 29 29 28 28
45 47 47 46 45 45 44 45 44 43 42 45 46 47 48 47 46 43 48 49 45 32 27 33 38 38 36 35 36 39 38 39 36 32 33 31 33 32 31 31 32 32 30 30 30 28 26
44 47 46 45 44 44 44 44 44 43 43 45 46 48 48 47 40 45 49 44 31 28 30 32 32 36 34 32 34 36 37 36 33 32 32 31 31 32 31 30 32 31 29 27 25 26 21
44 46 45 44 44 44 44 44 43 43 44 46 48 46 46 43 46 48 45 36 27 30 28 31 35 33 31 32 32 32 32 33 32 30 30 28 28 31 33 31 29 31 29 24 16 13 13
45 45 45 45 44 44 44 44 41 43 45 47 47 44 46 47 48 48 39 30 32 27 30 31 32 31 32 31 33 31 31 31 30 31 31 29 28 30 32 32 30 30 29 29 26 22 22
45 46 45 45 44 44 44 43 42 44 46 47 45 42 44 47 46 44 37 34 30 31 31 31 28 29 27 28 30 29 29 30 29 31 31 30 29 28 31 33 32 30 31 28 30 20 15
45 45 45 44 44 43 43 42 42 44 45 46 44 38 45 46 46 40 33 34 32 32 32 29 28 27 27 27 28 27 29 31 31 31 31 30 28 29 31 31 27 31 30 32 27 26 21
44 45 45 44 43 42 43 42 42 44 47 47 41 34 46 45 37 38 35 38 34 32 37 32 31 28 28 28 28 29 28 29 32 32 30 31 30 29 28 27 27 27 27 26 27 24 26
44 44 45 44 43 43 43 42 43 45 47 47 37 36 46 46 34 34 37 36 34 36 35 33 32 31 30 29 28 29 29 32 32 33 31 32 31 27 30 28 27 27 27 26 30 32 29
42 43 44 43 43 43 42 42 43 45 48 47 39 34 39 42 40 33 36 34 35 38 36 35 34 32 31 29 31 29 30 33 33 33 38 35 30 31 25 28 30 34 31 30 33 30 27
42 43 43 43 43 42 43 43 43 45 47 46 40 37 38 35 36 33 37 34 33 31 35 35 33 32 30 29 29 30 31 32 33 36 33 32 33 33 30 30 31 33 31 32 33 34 30
42 43 43 42 42 42 42 43 44 46 46 43 37 37 39 34 34 31 34 34 33 33 32 32 31 33 33 30 31 30 31 31 31 33 33 35 33 35 31 31 31 32 32 35 37 36 35
42 42 42 42 43 42 42 44 44 44 46 41 42 43 40 36 32 29 30 31 32 33 37 35 33 33 33 34 36 37 36 35 34 33 33 35 35 33 29 30 32 31 35 36 37 36 36
41 41 40 40 41 41 42 42 43 42 45 44 43 42 40 34 31 29 31 31 31 32 35 36 37 34 41 41 40 39 38 39 37 37 35 35 35 34 32 33 28 36 35 38 38 36 32
41 40 40 41 42 42 42 42 43 41 44 44 45 43 40 34 32 32 31 32 34 33 35 36 38 39 40 39 36 31 34 36 35 37 38 36 36 33 31 29 28 32 34 35 36 34 33
41 41 40 40 39 40 41 41 41 41 42 44 45 45 42 39 32 32 32 33 35 34 36 36 42 44 41 39 35 28 25 29 29 34 37 38 37 35 33 29 26 31 32 36 36 33 34
41 40 40 40 39 39 39 39 39 41 41 43 44 45 41 39 39 34 33 34 34 34 37 40 40 42 43 38 35 29 27 31 27 28 31 32 34 32 31 30 27 30 33 38 30 30 35
41 40 40 40 39 39 39 39 39 40 40 41 43 45 40 38 40 40 35 37 39 39 36 40 40 40 40 35 33 33 35 32 31 29 30 29 30 29 29 28 27 33 33 32 35 36 35
41 40 40 40 39 39 39 39 39 39 40 40 40 43 44 39 41 46 44 44 42 40 40 41 40 39 40 37 37 38 36 33 31 29 33 30 30 30 30 30 34 35 35 36 37 36 35

GFSGBSN_sfc_dewp_024.txt.gz
Dewpoint
47 48 48 49 48 48 47 48 47 47 47 47 46 46 46 45 46 49 51 54 56 58 57 55 55 55 52 49 49 53 57 57 57 57 52 45 41 40 37 34 34 34 34 34 34 35 36
48 49 50 49 48 48 48 49 49 48 48 48 47 46 46 47 47 49 50 53 54 58 57 55 55 56 49 44 49 47 46 48 52 55 53 48 42 41 40 36 35 36 36 36 35 35 37
50 49 49 48 49 49 49 50 50 49 48 48 48 47 46 46 47 47 49 51 53 56 57 55 56 51 43 43 42 46 47 46 49 54 51 49 49 46 44 41 40 40 39 39 38 37 37
51 49 49 50 50 50 49 48 49 49 48 48 48 47 46 45 46 46 49 50 52 53 58 56 56 47 42 44 44 41 43 46 49 52 53 53 50 47 44 42 40 38 38 35 33 35 36
48 51 47 47 47 48 49 49 49 48 46 47 47 47 46 45 47 47 49 50 51 51 57 55 51 47 39 46 40 42 40 44 48 50 55 51 50 45 43 39 35 35 30 31 32 35 34
51 47 47 48 48 47 48 48 47 47 47 47 46 46 46 46 47 47 49 49 49 51 56 53 48 43 41 40 40 40 40 43 46 46 48 50 46 41 40 38 31 30 31 31 30 32 33
47 48 47 47 46 46 47 47 47 47 46 46 46 46 46 46 46 46 47 46 45 48 50 44 43 38 38 43 43 41 40 44 43 43 40 43 39 35 36 36 35 32 30 29 29 30 29
47 47 47 47 47 47 47 47 46 46 46 46 46 45 46 46 46 46 46 41 41 48 42 47 42 40 41 42 39 40 40 42 41 39 38 37 35 34 34 33 32 31 30 30 30 29 28
47 45 48 48 48 47 46 46 46 46 45 46 46 45 45 46 46 45 42 41 47 46 42 43 40 40 40 41 39 39 40 39 38 37 37 33 33 34 34 32 32 31 30 30 28 29 29
46 46 48 47 46 46 45 45 45 45 45 45 43 46 47 48 42 43 40 44 48 47 34 38 39 39 41 41 38 40 40 38 38 36 36 35 34 31 33 32 31 29 30 30 29 28 24
47 46 47 46 45 45 45 45 45 44 43 44 45 46 47 47 44 40 41 49 48 46 25 38 38 41 41 37 39 39 41 38 35 34 35 34 33 33 31 31 31 29 32 30 30 28 27
45 46 46 46 46 45 45 45 45 44 43 45 46 47 49 47 46 43 45 49 45 31 24 36 38 37 38 37 37 38 38 39 37 34 34 33 34 34 32 32 32 32 31 30 30 29 22
45 46 47 46 46 45 44 44 44 42 44 46 47 49 47 46 41 46 48 44 30 24 35 33 34 35 33 33 36 36 36 36 34 31 33 32 32 33 33 31 33 33 29 23 22 24 19
43 46 47 46 45 44 44 45 43 42 44 47 47 49 47 45 48 48 45 35 24 32 31 31 34 34 30 32 33 34 35 33 34 31 32 28 27 31 32 31 30 30 29 24 17 18 19
43 45 47 46 45 44 43 44 42 42 46 48 48 44 47 48 48 46 41 29 30 30 30 32 33 32 31 31 32 33 33 32 30 31 29 28 28 31 32 32 32 31 29 29 27 24 19
44 45 46 45 45 44 44 44 43 43 47 48 46 43 44 48 47 45 37 32 33 31 33 31 28 28 27 30 30 30 30 29 29 30 31 31 27 29 32 33 32 30 30 27 28 14 15
45 44 45 45 45 44 43 44 43 45 46 50 44 38 45 47 47 41 32 33 35 33 32 31 28 27 27 28 30 28 28 30 30 30 31 30 29 29 32 30 29 30 29 30 28 28 18
45 43 44 44 44 43 43 44 44 46 48 47 41 34 44 47 37 38 35 35 36 35 37 31 30 28 26 27 28 26 26 29 30 32 29 31 31 28 28 29 30 29 28 27 25 20 24
44 42 44 44 44 43 43 44 44 45 48 46 38 38 47 45 33 35 36 37 35 36 34 33 30 30 28 28 27 29 30 33 34 33 30 31 32 24 26 28 28 27 27 28 28 28 25
44 43 44 43 43 44 43 44 45 45 47 47 40 34 40 42 41 35 35 35 38 39 36 33 31 31 29 29 31 29 31 34 34 34 39 35 31 27 23 26 31 31 32 30 30 29 26
43 43 42 42 43 43 43 43 45 46 48 46 40 37 39 36 37 35 38 35 33 31 36 35 33 31 29 29 30 28 30 33 33 38 34 32 31 29 31 30 30 30 30 31 32 34 30
43 42 41 41 41 42 42 44 45 46 48 43 38 37 39 35 35 35 36 36 32 34 35 32 32 32 33 30 32 28 30 31 31 33 32 34 29 34 30 32 31 30 31 31 33 36 36
42 42 41 42 42 43 43 45 44 45 45 42 43 43 40 36 33 31 32 34 34 35 37 36 34 33 33 37 38 37 36 36 35 32 32 36 35 32 27 31 31 30 32 35 37 36 37
42 41 41 41 40 41 42 42 42 43 45 44 44 42 39 34 32 30 32 33 34 34 35 36 37 36 41 41 39 40 38 38 37 35 35 36 35 34 30 31 23 35 37 37 36 37 38
42 42 41 41 40 40 40 40 40 42 42 43 45 42 40 36 33 30 32 32 33 38 36 37 38 40 41 40 37 33 34 35 35 36 36 36 36 33 30 29 27 30 35 34 36 34 34
42 42 41 41 40 40 40 40 40 41 41 41 45 45 41 38 35 34 32 35 34 34 36 38 42 44 42 39 35 27 24 32 31 34 37 38 37 35 32 28 24 33 33 36 37 34 36
44 40 41 41 40 40 40 39 39 40 40 40 44 44 41 38 40 40 33 34 36 35 38 39 41 41 43 37 34 29 27 31 28 30 31 34 35 31 31 30 29 29 34 38 32 30 36
44 41 41 40 41 40 40 39 39 39 40 40 41 44 40 37 39 41 42 37 38 38 37 41 40 40 40 36 34 33 32 33 31 30 31 30 29 30 30 29 23 34 34 32 35 37 36
44 41 39 41 40 41 40 40 39 38 39 39 38 42 42 38 39 43 44 45 44 44 42 41 41 38 41 38 36 37 34 35 32 32 32 29 30 31 30 30 33 35 35 36 37 36 36

GFSGBSN_sfc_dewp_027.txt.gz
Dewpoint
50 51 50 50 50 49 50 50 50 51 51 50 49 48 48 47 47 45 47 48 52 55 56 58 56 56 54 48 48 55 58 59 56 56 53 51 45 42 38 36 36 36 36 37 36 35 35
52 52 50 50 50 51 49 50 50 51 50 50 48 48 48 47 46 46 46 47 49 53 55 58 56 56 51 44 48 51 52 56 56 55 54 52 44 42 39 38 35 35 37 38 38 38 38
50 49 49 48 48 49 48 49 50 49 49 48 47 47 48 48 47 46 46 46 49 51 54 57 56 52 46 44 45 47 47 48 52 55 52 53 49 46 44 41 41 40 38 39 39 39 38
50 52 49 48 48 48 48 48 48 48 48 48 48 48 47 47 46 46 47 48 49 50 53 54 56 51 44 46 44 42 43 46 49 54 54 53 50 46 44 42 39 38 38 36 37 37 38
51 47 48 47 48 48 48 48 47 47 47 47 47 47 47 46 46 46 47 47 48 50 51 53 52 48 41 47 43 42 40 44 48 52 55 52 52 46 43 39 36 36 32 33 34 34 36
47 48 47 49 49 49 48 47 47 47 46 46 46 46 46 46 46 47 47 48 48 48 49 54 50 44 43 40 42 42 41 42 47 50 52 51 48 44 42 37 32 32 32 31 30 32 34
48 47 48 49 48 47 47 46 46 46 46 46 46 46 46 46 47 46 46 44 40 43 48 41 43 40 40 43 43 41 41 45 44 47 44 48 41 39 38 38 36 35 33 30 31 31 30
48 48 48 48 47 46 46 46 46 46 45 45 46 45 45 46 46 47 45 40 41 43 37 46 45 42 43 43 39 40 41 43 42 41 40 38 36 38 38 38 37 33 31 30 31 31 29
48 46 48 47 47 46 46 46 46 45 44 44 44 45 47 47 47 45 42 41 46 44 38 42 46 42 41 43 40 39 40 41 40 39 37 35 33 36 35 34 32 31 31 30 29 30 29
47 46 48 47 47 46 45 45 45 45 44 43 45 46 47 48 44 43 40 45 47 45 33 38 42 41 42 43 39 40 42 40 39 37 37 36 35 33 34 33 32 29 30 31 30 28 24
46 46 48 47 47 46 45 45 45 45 42 44 46 47 47 48 44 40 43 47 47 43 23 39 41 43 43 40 39 38 42 39 36 37 38 37 35 33 31 33 32 30 32 30 30 27 25
44 45 47 47 47 46 45 44 45 43 42 46 46 47 48 48 47 44 46 48 43 28 22 35 39 38 39 38 38 39 39 41 38 37 36 33 34 34 33 32 32 32 30 29 29 27 18
44 45 46 47 46 45 44 45 45 43 43 46 47 48 47 47 42 46 47 44 27 22 36 34 36 37 36 36 36 37 37 36 34 32 34 35 33 33 33 31 33 31 26 17 21 22 18
44 45 45 46 45 45 45 44 44 43 45 47 48 48 48 46 46 47 45 34 21 33 34 37 36 35 33 34 35 35 36 34 35 32 31 30 22 31 32 31 30 31 26 19 17 17 20
44 43 45 45 45 45 43 44 44 45 47 48 49 44 45 47 48 45 40 25 29 34 35 36 33 31 31 33 34 34 33 32 32 32 27 26 26 32 32 32 32 30 27 29 24 23 15
44 45 45 45 45 44 44 44 44 46 48 49 46 42 44 48 46 43 35 32 32 37 35 33 31 31 29 30 31 31 32 32 30 31 31 31 27 31 32 33 33 29 30 23 21 10 15
45 44 45 44 44 44 44 44 45 46 49 48 40 39 43 47 47 40 31 31 36 34 34 32 29 29 27 32 30 29 30 31 31 31 31 31 30 30 33 30 28 30 29 28 27 24 15
45 43 43 43 44 44 44 44 45 47 49 45 38 33 44 47 35 37 34 33 38 36 37 33 30 29 27 29 29 28 28 29 31 32 30 31 32 29 27 30 31 30 28 28 22 17 23
44 43 42 42 44 44 44 44 44 47 48 43 37 38 45 44 31 34 35 37 40 37 35 34 31 30 29 28 25 28 31 34 32 31 29 32 30 20 24 28 30 30 29 29 28 28 23
44 43 42 41 42 43 44 45 44 46 48 45 39 32 37 39 40 36 36 37 36 38 36 34 29 29 29 28 30 28 31 33 35 35 40 34 31 23 20 24 30 27 30 29 30 28 25
43 43 42 42 42 43 44 45 45 47 47 44 37 35 37 29 35 35 38 38 33 33 35 34 33 30 30 29 27 27 32 32 33 38 34 32 27 27 30 30 31 29 29 30 29 30 29
44 43 42 42 41 41 42 43 45 46 46 41 38 37 37 37 34 34 35 35 34 35 35 32 33 35 36 34 33 29 32 32 31 33 32 33 27 32 29 31 31 30 30 30 31 31 31
44 42 42 42 41 40 41 41 42 44 44 41 42 43 40 35 32 31 33 34 34 36 36 37 35 35 37 38 39 38 36 36 33 32 32 34 31 32 23 30 30 29 31 31 35 37 37
44 42 42 41 41 41 40 41 41 42 42 44 43 42 39 33 32 31 32 34 34 37 35 37 38 38 41 41 39 39 38 38 36 33 35 35 35 34 28 30 19 32 37 36 35 36 37
42 43 41 41 41 41 40 40 41 41 42 42 44 41 39 33 36 32 32 33 37 37 37 38 40 41 41 39 36 35 36 35 36 35 35 37 37 33 30 29 27 29 37 35 35 34 35
42 45 39 42 41 41 40 40 40 40 41 40 44 43 40 37 34 38 35 34 33 33 35 40 43 44 41 39 34 27 24 30 32 34 37 37 38 35 32 27 24 29 33 36 37 32 36
42 44 41 40 41 41 40 40 40 39 40 39 43 43 40 38 39 38 38 35 36 35 35 38 39 40 41 35 33 29 25 31 28 31 32 35 35 32 31 30 29 31 32 39 30 29 36
42 44 41 40 40 41 41 40 40 39 39 38 38 43 39 36 36 39 40 42 40 37 35 38 38 39 39 34 33 31 29 32 30 31 32 31 31 31 32 30 24 30 34 32 33 37 37
40 43 41 40 40 41 40 38 39 39 38 38 34 39 43 37 36 40 40 41 44 43 41 41 40 39 39 37 33 35 33 34 31 29 33 31 31 31 30 28 30 34 34 36 37 36 36

GFSGBSN_sfc_dewp_030.txt.gz
Dewpoint
50 50 50 50 50 49 48 48 49 50 51 50 50 50 48 48 48 48 46 46 46 46 50 53 56 57 54 48 46 51 58 59 55 55 52 49 47 43 40 39 40 36 37 38 38 38 36
49 51 50 49 48 47 49 49 49 48 48 49 49 49 48 49 48 48 48 46 46 46 48 52 55 57 50 42 47 52 55 54 55 54 52 51 48 45 40 38 37 36 36 37 39 38 39
51 49 49 48 48 51 50 49 49 48 48 48 48 48 48 47 47 47 46 46 47 47 49 51 54 54 45 41 45 50 55 55 56 54 53 54 52 44 42 41 40 40 37 38 38 39 38
48 49 49 48 50 49 48 47 47 47 47 47 47 47 46 47 47 46 46 47 47 48 49 51 53 53 42 46 43 43 45 46 53 55 53 53 51 46 43 42 39 37 37 34 35 36 37
48 48 48 49 49 48 47 46 46 45 46 47 46 46 46 46 46 46 46 47 48 48 49 49 48 50 39 50 44 42 42 44 47 53 55 52 50 45 42 38 35 35 31 33 34 36 36
48 48 48 49 49 48 47 47 47 46 46 46 45 46 46 46 47 47 47 47 48 47 47 46 48 44 41 40 43 42 41 43 47 51 51 50 49 44 41 36 31 33 32 31 31 32 35
48 48 47 49 48 48 47 47 45 46 45 45 45 45 46 46 46 47 46 43 37 40 44 44 45 40 39 43 43 43 41 41 48 48 46 48 43 40 40 38 35 34 34 31 31 32 29
48 48 46 49 48 47 46 46 46 46 46 44 44 45 46 47 48 46 44 39 40 41 35 43 46 43 42 42 39 41 43 45 45 41 43 41 38 42 43 41 38 36 32 30 31 32 29
47 46 46 49 48 48 47 46 45 46 46 43 44 46 47 47 48 45 42 41 46 43 36 39 45 43 41 42 39 40 42 42 42 40 38 37 37 40 37 36 32 31 30 30 29 30 29
46 46 47 48 48 47 46 45 45 45 44 42 44 46 47 48 46 44 40 45 46 43 31 38 42 43 42 43 39 41 44 41 40 38 36 35 34 35 35 33 32 29 31 30 29 27 24
46 45 46 47 47 46 46 46 45 45 44 44 45 47 48 48 45 41 43 46 46 42 21 37 40 45 43 40 38 38 42 40 37 37 37 35 35 32 33 33 32 31 31 29 29 27 24
45 46 45 47 46 46 45 43 45 44 44 46 47 48 49 47 45 44 47 46 43 27 22 34 41 39 38 38 38 40 40 40 40 38 37 34 34 34 32 32 32 32 30 29 29 26 16
45 46 44 47 45 45 43 45 44 44 46 47 48 49 47 47 41 46 47 42 26 20 35 32 37 37 36 36 37 38 37 35 35 34 34 36 34 33 33 31 33 29 25 17 14 15 16
45 44 44 46 44 45 44 44 44 47 48 49 49 46 47 48 47 47 43 32 20 33 34 38 36 35 35 35 36 37 35 34 35 33 31 27 27 31 32 31 30 28 25 18 12 17 19
45 44 45 44 44 45 45 44 46 48 50 49 47 43 46 47 47 46 40 25 28 33 37 36 33 33 32 34 37 35 34 33 33 32 26 25 25 32 32 32 31 30 25 28 23 22 14
45 44 43 43 46 45 44 45 45 49 50 47 40 43 42 47 47 44 36 32 32 38 35 33 30 31 31 31 33 32 31 32 31 32 31 29 25 32 32 32 33 29 30 25 22 8 13
44 44 43 42 43 43 44 45 45 48 49 46 39 36 42 47 46 39 31 31 36 36 35 32 31 28 30 29 30 29 30 31 31 30 31 30 28 29 33 30 29 30 29 27 25 20 14
44 43 42 42 44 44 45 45 45 47 48 44 38 28 42 45 35 37 33 34 37 37 37 34 30 29 28 31 29 28 29 30 32 32 29 31 30 22 29 31 31 30 28 27 19 15 21
44 43 42 42 42 43 44 44 44 46 48 40 36 37 43 41 28 34 36 35 37 38 35 33 30 30 30 29 27 27 30 34 33 32 30 31 27 20 23 28 30 29 29 29 28 28 17
44 43 42 42 41 42 42 43 45 46 48 41 35 28 35 40 38 36 34 36 34 36 33 30 30 29 28 28 28 30 31 34 35 34 39 34 29 22 20 22 28 25 29 29 29 24 23
44 43 42 42 41 41 42 42 44 46 47 40 36 35 38 29 34 34 37 36 34 34 35 34 30 29 30 30 29 31 32 32 35 38 35 32 23 25 28 29 29 28 28 29 28 28 25
43 43 42 42 42 41 41 42 44 45 45 40 35 37 37 34 34 33 34 33 34 35 35 34 35 36 33 34 32 30 32 31 31 33 31 33 23 31 28 30 31 28 30 29 29 29 29
42 44 42 41 42 41 41 41 42 43 43 41 42 42 40 34 32 30 31 33 33 35 36 37 35 37 37 38 39 36 34 33 32 31 31 31 30 31 25 28 30 28 30 31 32 33 32
41 44 41 42 41 41 41 40 41 41 42 43 43 42 38 31 33 31 32 34 33 36 35 38 38 37 40 41 39 38 37 35 33 33 35 34 34 34 27 27 17 29 33 33 32 35 36
41 43 42 40 40 41 41 41 40 40 41 41 44 41 39 32 35 34 35 35 36 36 37 38 40 41 41 39 36 35 35 35 36 34 35 36 36 31 28 27 27 29 36 35 34 32 36
40 42 44 40 41 42 42 40 40 40 40 38 44 43 39 36 32 38 37 33 33 32 34 39 42 43 41 38 34 27 28 29 33 35 36 37 38 34 32 26 24 26 32 36 36 30 36
41 41 44 41 40 40 41 41 41 38 39 37 41 42 40 36 36 37 37 37 37 34 33 36 37 37 39 34 32 28 24 30 31 31 33 35 35 32 32 30 29 31 32 38 28 27 36
41 40 43 41 40 39 40 40 39 39 37 37 35 43 38 35 34 37 39 42 41 36 33 35 36 37 36 31 31 30 28 30 29 30 32 33 31 31 33 30 24 31 36 33 32 35 37
42 41 42 44 42 39 40 39 39 38 39 38 32 37 40 37 33 39 38 38 40 43 40 39 37 38 38 34 32 33 32 34 30 26 32 31 31 30 31 29 31 31 34 36 36 36 36

GFSGBSN_sfc_dewp_033.txt.gz
Dewpoint
48 53 49 50 49 48 51 51 50 49 49 49 48 49 49 48 48 49 49 48 48 47 47 47 49 53 55 47 43 49 57 59 56 55 52 51 46 43 40 40 40 38 38 38 39 39 38
51 49 49 48 48 51 50 49 48 47 47 47 48 48 48 48 48 48 48 48 47 47 47 47 49 53 51 39 45 48 55 55 56 54 52 49 46 44 41 38 39 38 38 37 38 37 38
51 49 49 49 49 50 49 48 47 47 46 46 47 47 47 47 47 47 47 47 47 47 47 47 50 51 48 41 45 47 56 55 55 54 52 51 49 43 42 39 39 39 36 38 38 39 38
50 50 47 49 49 50 48 48 47 47 47 46 47 47 47 46 46 46 46 47 47 47 48 48 50 50 44 46 44 42 51 55 57 56 53 54 52 47 43 42 39 38 36 34 35 37 37
49 49 49 46 50 50 48 48 47 46 46 46 46 46 46 46 47 47 47 47 47 47 47 48 46 47 41 49 44 42 44 47 53 55 54 52 50 45 42 37 35 35 31 33 34 36 35
50 49 48 47 50 50 48 48 47 47 47 46 46 44 45 46 47 46 48 47 47 46 45 45 45 44 44 40 44 42 42 49 50 52 51 49 47 42 40 36 29 32 31 31 31 32 35
49 48 47 47 49 49 48 47 47 45 46 47 44 44 45 47 48 48 46 42 35 38 42 37 41 39 41 44 44 45 41 45 50 48 45 46 43 39 39 37 35 33 33 32 32 32 30
48 47 47 47 49 48 47 47 47 46 46 46 43 45 46 47 47 48 45 37 37 40 33 38 43 44 44 43 39 44 43 45 45 42 45 43 39 41 42 40 38 37 35 32 31 32 29
48 46 47 47 48 47 47 47 46 45 46 45 44 44 46 47 48 46 41 40 43 43 35 34 42 44 42 41 39 41 42 44 43 41 40 38 40 43 42 41 39 32 31 30 30 30 28
46 46 46 46 48 46 47 44 44 46 44 45 46 47 47 48 46 44 40 43 45 42 30 36 40 44 43 42 38 41 43 42 42 39 39 38 40 40 40 39 32 29 30 31 29 27 24
46 46 46 46 46 45 44 45 45 45 46 48 48 48 49 48 44 41 42 46 44 41 21 37 40 47 43 38 38 39 45 41 38 38 38 36 34 38 37 34 32 31 31 29 29 26 23
45 46 45 46 44 45 45 46 46 48 49 49 49 49 48 45 46 45 47 46 41 27 20 33 41 41 37 38 39 41 41 41 42 38 36 34 34 34 32 33 32 32 29 27 29 25 16
45 46 45 43 45 46 45 46 47 48 49 49 48 49 47 46 42 47 46 41 27 19 35 33 36 37 35 36 38 38 37 36 36 34 34 35 33 32 33 31 32 29 26 17 12 15 15
46 45 44 43 45 44 44 47 47 49 49 48 47 47 47 47 47 46 43 33 22 31 33 38 36 35 34 36 37 37 35 34 34 34 34 30 29 31 32 31 30 28 26 19 8 14 17
45 45 43 43 43 44 45 46 47 48 50 49 46 43 44 45 46 45 39 24 27 32 37 35 34 33 32 36 37 37 34 32 33 31 28 24 25 32 32 32 31 30 23 26 22 20 15
45 44 43 43 44 45 45 45 47 48 49 48 41 41 40 45 46 41 31 31 33 37 34 32 29 32 30 33 33 35 32 32 31 33 31 28 25 31 32 32 32 29 30 22 19 9 12
45 44 43 43 42 43 43 44 46 47 48 46 38 34 40 45 45 36 29 32 36 37 37 31 31 28 29 29 30 29 30 31 32 31 31 30 27 29 32 29 29 28 27 26 24 20 12
45 44 43 43 42 42 43 44 45 47 49 42 35 27 40 44 33 34 33 34 37 38 38 32 30 30 29 30 28 26 29 29 32 31 29 30 29 25 28 31 31 30 28 27 19 15 20
45 44 43 43 42 42 43 44 45 46 48 39 33 34 41 40 33 35 37 36 37 39 35 32 29 29 31 28 26 28 29 32 33 31 29 30 26 17 24 27 29 29 29 28 26 26 15
44 44 43 43 42 42 42 43 44 46 48 40 34 27 35 38 38 36 35 35 34 37 32 30 30 30 28 28 28 29 30 35 34 32 38 34 28 22 19 22 27 24 28 29 26 21 21
43 45 43 42 42 42 42 42 43 44 47 39 35 35 35 30 32 33 35 34 33 34 34 32 29 29 29 29 30 31 32 32 35 38 35 31 24 25 27 28 28 27 28 29 26 27 22
42 45 43 42 42 42 42 42 42 45 45 41 37 37 38 33 33 32 33 32 33 34 34 33 29 33 34 33 31 30 31 31 30 32 32 32 26 28 24 29 30 28 29 29 29 29 28
43 44 44 42 42 42 42 41 41 42 42 40 42 41 40 33 32 30 30 32 33 34 36 37 36 37 37 38 38 34 32 32 31 31 31 30 29 30 25 27 28 27 29 30 30 31 29
43 43 46 41 41 41 42 41 41 41 41 39 42 41 38 31 32 32 34 33 34 36 34 38 38 36 40 40 39 37 36 33 33 32 33 32 33 34 27 25 16 27 32 32 31 32 33
42 42 45 42 41 40 41 41 41 40 40 38 42 40 38 32 33 33 36 35 35 35 36 38 40 40 41 38 35 34 34 34 33 33 35 35 35 30 27 26 26 29 35 34 33 31 35
42 42 43 44 40 39 41 40 40 39 40 36 44 42 37 35 31 36 36 34 32 31 33 37 41 42 39 37 33 28 27 29 32 35 36 37 36 34 32 26 24 27 33 37 36 29 34
42 41 42 45 41 40 40 41 40 38 38 36 39 42 39 35 35 37 35 35 35 33 32 34 36 36 37 33 31 27 23 30 30 30 33 35 35 31 32 30 29 31 32 37 27 27 36
41 42 41 43 44 41 39 41 41 41 40 36 34 41 35 35 33 35 38 37 39 35 33 35 36 36 35 31 30 29 27 29 28 29 34 33 32 32 31 30 24 32 37 32 33 35 36
42 42 42 43 45 42 40 39 40 39 40 38 32 35 38 33 31 37 36 36 37 42 40 38 35 36 36 32 31 31 31 32 29 26 31 31 32 30 30 29 31 31 33 36 36 36 35

GFSGBSN_sfc_dewp_036.txt.gz
Dewpoint
51 51 49 50 50 49 51 50 49 48 48 48 47 47 47 48 48 48 48 48 49 48 48 48 47 48 51 47 43 48 54 58 52 56 53 51 46 43 39 41 39 38 38 39 39 39 38
51 50 49 50 51 49 50 50 49 49 48 48 48 47 47 47 47 46 47 47 47 47 47 47 46 48 49 42 46 46 47 55 51 55 52 51 47 43 41 40 38 39 38 38 38 37 37
49 50 51 50 47 50 51 50 49 48 48 47 47 46 47 46 46 46 47 47 47 47 46 47 46 47 48 43 47 44 53 54 54 55 52 50 48 44 41 38 40 37 35 37 37 38 37
50 50 49 48 48 50 50 49 48 48 48 47 47 47 45 46 47 47 47 47 47 46 46 47 47 48 44 48 51 47 50 56 56 55 53 52 51 45 42 41 39 37 36 34 35 38 38
49 49 49 48 48 50 49 48 48 48 47 47 48 47 45 45 46 47 47 47 46 47 47 46 45 45 42 51 47 44 46 52 55 55 54 52 50 45 42 37 35 35 31 33 34 36 35
49 49 48 48 48 49 49 48 48 47 47 47 48 45 44 45 47 48 48 47 46 45 45 45 45 41 44 42 47 42 47 53 51 50 50 48 47 41 39 36 29 32 30 31 32 31 35
49 48 48 48 48 49 48 48 47 45 45 46 47 45 44 46 47 46 46 41 34 37 41 35 37 39 42 46 49 45 44 51 52 48 43 46 42 37 38 37 35 34 33 31 32 32 30
47 46 47 47 48 48 46 45 44 46 47 46 45 45 45 46 47 47 44 37 36 38 32 37 36 41 44 46 42 45 46 45 46 43 42 42 38 39 40 38 37 36 34 32 33 32 29
47 47 46 46 48 46 45 46 47 48 49 49 48 49 48 47 48 46 41 39 42 42 33 36 40 43 42 44 40 42 45 46 42 42 41 38 40 42 40 38 38 33 32 30 30 30 28
47 46 47 46 44 48 46 46 48 49 50 49 49 49 49 49 44 44 39 42 45 42 22 34 38 44 45 44 39 43 46 44 43 40 38 38 43 42 41 39 36 34 31 31 29 28 25
46 47 46 44 47 46 45 47 48 49 49 49 49 49 48 45 42 41 43 44 43 40 14 37 38 47 45 37 38 41 47 42 39 39 40 36 40 40 39 38 37 35 31 29 28 26 23
46 46 45 44 44 44 46 47 48 49 49 49 49 49 47 45 43 44 47 45 40 22 21 33 39 40 37 38 40 42 42 43 42 38 37 36 39 40 39 37 36 32 28 27 27 24 16
45 46 44 44 45 45 46 46 48 48 49 49 48 49 47 46 39 46 44 40 24 19 35 33 36 36 35 37 38 38 39 37 37 33 34 36 34 33 33 31 31 29 26 18 14 11 16
46 45 44 44 43 44 45 46 48 48 49 50 48 47 47 46 46 45 43 29 19 32 34 38 35 35 34 35 37 37 36 34 34 36 34 29 29 32 32 31 30 28 26 20 12 12 17
45 45 44 44 43 44 45 45 47 48 49 50 45 42 42 44 46 44 35 25 27 32 37 36 34 33 34 36 38 36 34 33 32 31 28 24 25 32 31 32 31 29 24 25 21 19 14
45 45 44 44 44 44 45 46 46 47 49 48 39 39 39 44 45 40 33 32 34 36 34 32 29 31 30 32 32 34 31 32 32 32 32 28 25 31 32 32 32 29 29 22 18 7 11
45 45 44 44 44 43 44 45 46 47 49 44 38 33 38 45 42 36 31 32 37 38 36 31 30 29 30 29 30 32 30 31 31 31 31 29 27 30 30 29 28 28 27 25 23 19 12
45 45 44 44 44 43 44 44 46 47 49 41 35 31 39 42 34 36 35 35 37 37 38 30 30 29 29 29 27 27 29 29 31 31 29 30 29 24 26 30 31 29 28 25 18 14 20
44 44 44 44 43 43 43 44 44 46 48 38 33 32 40 39 33 34 36 36 37 37 34 30 28 29 31 28 26 26 29 32 33 30 29 30 25 18 24 26 29 28 29 27 24 23 15
44 44 44 44 43 43 43 43 44 45 47 39 34 29 35 37 36 36 34 33 33 36 32 31 30 30 28 27 29 28 29 35 34 31 38 33 26 22 18 20 27 24 29 28 25 20 20
44 44 45 44 43 43 43 42 43 44 46 39 35 34 37 31 32 32 32 33 33 33 35 32 29 29 28 28 30 30 32 32 34 39 34 30 24 24 27 27 28 27 28 28 24 26 21
44 44 46 44 43 43 43 42 42 43 44 40 34 35 38 33 32 30 31 31 33 34 34 31 28 32 34 29 30 30 31 30 30 32 31 31 27 28 24 29 29 27 28 28 28 28 27
43 43 44 45 43 42 42 42 42 42 41 37 41 41 37 32 30 28 30 31 32 34 35 37 36 36 36 37 37 32 32 32 31 31 31 31 29 27 19 27 28 24 28 29 29 30 29
42 42 43 45 42 41 41 41 41 41 40 41 42 41 35 30 31 31 34 34 35 35 33 37 37 35 39 40 38 36 33 33 32 32 32 31 31 30 27 25 16 25 32 31 30 30 31
42 42 42 44 43 41 40 40 40 40 40 40 42 39 38 31 32 32 34 35 34 34 35 37 38 40 40 37 34 33 34 32 32 32 34 34 33 28 26 25 25 28 33 32 31 31 33
42 43 42 43 44 41 40 42 40 39 40 35 42 41 38 35 29 35 35 34 31 30 32 36 40 41 38 35 32 27 26 27 31 34 36 37 34 31 30 26 22 27 34 36 35 29 34
43 42 42 42 45 43 41 40 42 41 40 36 36 37 38 34 33 35 34 35 35 32 31 32 35 35 37 32 30 27 23 28 29 30 33 34 35 31 29 28 28 30 31 37 28 27 34
42 42 43 42 43 45 42 40 41 41 40 36 35 38 32 29 31 34 37 36 39 35 32 34 35 35 33 32 31 29 25 28 27 31 30 31 30 31 30 29 24 33 37 33 33 35 35
41 42 42 42 42 43 45 44 41 40 40 38 33 35 38 31 26 34 35 36 36 38 41 37 34 34 35 31 31 30 30 29 27 25 30 29 30 29 29 28 31 34 33 34 36 36 35

GFSGBSN_sfc_dewp_039.txt.gz
Dewpoint
51 49 49 51 51 50 50 51 51 50 49 49 49 48 48 47 46 46 47 47 47 48 48 48 48 45 48 45 45 48 52 51 52 53 53 49 49 46 42 41 40 38 39 39 40 39 39
49 50 51 50 50 48 51 51 50 49 49 49 48 47 46 46 47 45 46 47 47 47 47 48 46 45 45 41 47 52 46 49 50 54 53 50 48 45 42 41 39 40 39 38 39 38 38
49 50 50 50 49 48 50 50 49 49 49 49 48 48 47 47 45 46 46 47 46 46 47 47 46 43 43 41 47 52 48 53 50 54 52 52 47 43 41 40 40 39 37 37 38 38 37
48 50 50 49 48 49 50 49 49 49 48 48 48 48 48 46 44 46 47 47 47 47 46 46 47 45 38 48 50 50 46 54 52 55 52 52 49 44 42 41 39 37 36 34 36 38 37
50 49 48 49 47 49 49 48 48 47 46 46 46 48 48 45 44 47 48 48 48 47 46 46 45 43 40 51 46 48 46 52 54 54 54 53 49 46 42 37 36 36 32 33 34 38 36
50 48 48 47 47 50 47 47 46 48 48 49 48 47 46 44 46 47 47 47 46 44 45 45 44 39 42 42 47 44 47 53 51 52 49 47 46 42 40 36 30 33 32 33 30 32 35
47 48 48 48 47 46 49 48 48 48 50 50 50 48 46 44 45 47 47 41 34 35 41 34 34 37 43 48 48 45 50 51 50 47 43 45 40 37 39 36 33 33 33 32 33 32 31
47 47 47 47 46 49 46 47 49 49 50 49 49 49 49 50 47 46 44 36 34 38 31 36 36 36 40 46 42 44 48 47 45 41 44 41 37 38 40 38 35 34 33 32 33 31 30
48 47 47 45 47 46 46 48 48 50 50 50 50 49 48 48 48 47 41 38 42 41 32 37 41 41 43 43 41 42 46 47 38 37 40 36 38 40 39 38 36 34 34 32 32 30 28
47 47 46 45 45 46 48 48 49 50 50 49 49 49 48 48 42 43 40 44 44 41 23 34 38 44 43 45 41 44 48 45 44 34 39 39 43 40 39 37 36 34 32 31 29 29 26
46 47 46 45 45 46 47 47 49 49 50 49 49 49 48 46 42 40 42 43 43 40 11 37 39 46 42 39 41 42 47 44 40 40 40 36 40 41 39 39 37 34 31 29 28 27 26
46 47 45 45 45 45 45 47 49 49 49 50 49 49 47 44 42 45 47 43 40 19 19 33 39 39 37 40 41 44 43 44 43 38 37 37 41 41 40 40 36 31 28 27 26 25 23
46 46 45 45 44 45 45 46 48 48 49 50 49 48 46 46 40 46 44 39 20 20 34 32 35 36 36 37 39 41 38 38 37 34 34 37 36 37 39 35 37 32 30 24 19 20 21
46 46 45 45 45 45 45 46 47 49 49 50 49 45 45 45 45 46 44 26 24 33 34 38 36 36 34 36 38 38 38 34 34 36 34 30 29 33 32 32 32 30 28 24 16 11 16
45 47 45 45 45 45 45 45 47 48 48 50 45 40 41 43 45 45 36 29 28 33 35 35 32 31 33 35 37 37 36 33 32 32 30 26 28 32 32 32 32 29 28 25 22 20 18
45 46 45 45 45 45 45 45 46 47 48 49 38 37 38 43 44 39 31 33 35 37 33 32 29 31 30 32 33 33 32 33 32 31 31 28 28 32 32 33 32 30 29 25 22 13 13
45 46 46 45 44 44 44 45 46 47 48 45 36 33 38 43 41 36 30 32 36 37 36 30 29 29 31 30 31 31 29 31 32 31 30 29 29 31 32 30 28 29 27 25 23 20 16
45 45 46 45 44 44 44 44 45 46 47 40 34 31 40 41 34 37 35 36 37 37 37 30 30 29 28 29 28 29 27 29 32 31 29 30 29 28 28 31 31 30 27 24 21 19 20
45 44 47 44 44 44 44 44 44 45 47 38 32 32 39 39 29 32 33 36 37 35 32 29 28 30 30 28 26 27 29 33 32 31 30 29 25 19 23 26 29 29 28 26 23 24 21
44 44 46 45 44 44 43 43 43 44 47 38 33 28 34 36 34 32 32 32 32 36 32 30 29 29 28 27 29 28 28 35 34 32 37 32 26 23 17 21 28 27 29 26 26 22 21
44 44 44 47 44 43 43 43 43 43 46 38 34 33 35 28 30 30 31 32 31 32 35 31 29 28 28 27 30 29 32 33 34 37 33 30 25 25 27 26 28 28 28 28 24 25 22
43 44 44 45 44 43 42 42 42 42 44 39 34 34 36 31 31 28 29 29 31 33 34 30 28 31 32 28 28 29 30 30 30 32 31 31 29 28 24 30 29 28 28 29 29 28 26
43 43 43 44 45 43 42 42 42 42 42 36 39 41 38 31 29 27 29 30 32 34 35 37 34 34 35 36 37 34 32 31 31 31 31 31 29 25 20 27 28 26 28 28 29 29 28
42 43 43 43 46 43 41 42 41 41 40 41 41 41 35 29 30 30 33 34 33 34 33 36 36 34 38 38 37 34 33 32 32 32 31 30 31 28 25 25 17 25 31 31 29 29 30
42 42 41 42 43 44 42 41 40 40 40 40 40 39 37 30 30 31 33 33 34 33 34 36 37 39 39 36 33 32 33 31 32 33 33 33 32 28 25 25 24 28 31 31 30 31 31
43 44 42 42 43 46 43 41 42 41 40 35 37 38 37 33 28 33 33 34 31 29 31 35 39 40 38 36 33 28 26 27 30 33 36 35 32 28 29 23 22 26 36 36 35 31 34
43 43 42 43 43 44 45 42 41 41 41 35 34 36 34 31 30 35 32 34 35 31 30 31 35 35 36 31 30 28 24 28 28 27 32 33 34 30 29 26 26 30 35 38 31 30 33
44 42 42 42 42 43 44 45 44 40 40 37 35 37 31 27 28 31 35 34 38 36 31 32 34 34 32 31 31 31 25 27 27 28 30 29 30 30 30 28 22 34 36 35 36 35 36
44 42 43 42 42 42 43 44 46 41 40 39 34 35 37 30 28 30 33 33 33 33 36 38 33 33 35 31 30 30 29 28 26 26 30 31 29 29 29 26 30 33 34 36 36 35 35

GFSGBSN_sfc_dewp_042.txt.gz
Dewpoint
51 51 51 51 51 50 50 51 51 50 50 50 50 49 49 48 47 47 46 46 47 46 47 47 49 48 42 38 41 51 50 48 55 51 50 49 46 45 41 40 40 35 37 35 35 39 39
50 51 50 51 50 49 51 50 50 50 50 50 49 49 48 48 47 47 47 46 46 45 46 47 48 47 40 35 42 50 49 48 52 49 50 49 43 44 41 41 38 36 37 36 36 38 38
49 51 50 50 49 48 51 49 48 47 48 47 47 47 48 48 48 45 46 47 47 46 47 46 46 43 40 33 47 51 49 49 51 48 47 49 44 44 42 41 40 39 35 37 37 36 35
51 49 48 49 49 49 47 47 48 49 49 50 50 49 47 48 46 44 46 47 47 47 46 46 45 43 35 38 39 43 49 48 49 50 49 51 48 43 41 40 39 36 35 33 31 36 37
50 48 49 49 48 47 49 49 48 50 50 50 50 50 50 47 44 44 47 47 47 47 45 46 43 42 33 48 46 45 47 48 48 49 52 51 49 43 41 36 35 34 24 26 30 36 32
48 48 50 48 46 50 48 48 50 49 50 50 49 49 49 44 42 45 46 48 46 45 44 43 42 38 37 39 45 46 46 51 49 50 50 47 46 41 36 32 23 27 24 28 25 31 36
49 48 49 47 46 48 48 50 49 50 50 50 50 49 49 47 45 45 46 42 37 36 39 29 28 35 39 46 46 46 47 51 49 47 42 45 41 37 35 32 29 29 28 24 28 31 31
48 48 47 46 47 49 49 49 50 50 51 49 49 49 48 49 48 46 45 36 34 39 28 34 34 34 36 44 42 43 48 46 43 40 42 41 36 35 37 36 33 30 27 27 33 32 31
47 48 47 46 46 46 48 48 50 50 50 49 49 49 47 46 47 47 41 38 43 41 32 35 40 38 42 44 40 41 46 44 42 40 40 36 35 36 37 35 33 33 29 32 29 31 29
47 47 47 46 46 46 47 48 50 50 49 50 49 49 47 44 41 43 39 44 44 42 34 35 38 43 43 43 41 45 49 43 39 39 40 37 41 35 34 34 33 33 34 33 31 30 23
47 47 47 46 45 46 46 47 49 50 49 50 50 48 47 47 42 41 43 45 44 42 22 37 38 45 42 40 42 43 51 47 38 37 39 37 39 37 34 34 35 31 33 31 30 29 29
46 47 46 46 45 45 46 46 48 49 49 50 50 48 47 45 44 44 47 44 42 32 24 34 40 38 38 40 41 44 45 45 43 39 39 38 41 42 40 37 36 31 30 28 29 28 30
46 47 46 46 46 45 45 46 47 48 49 49 49 49 45 45 40 46 46 42 33 28 35 34 36 36 38 37 38 39 38 38 38 33 34 36 37 41 39 36 36 32 32 31 29 30 25
46 47 47 46 46 46 45 45 46 47 48 48 49 47 46 45 47 46 45 37 29 33 33 37 36 36 37 38 38 38 36 37 36 36 35 34 31 37 39 37 36 35 34 29 21 17 16
45 46 47 46 46 46 46 45 46 47 48 49 45 42 45 45 46 47 41 32 31 35 35 34 32 30 32 35 37 37 35 34 33 33 32 31 32 34 34 33 37 34 34 25 24 21 23
45 46 46 46 46 45 45 45 45 46 49 48 44 40 42 43 47 44 41 34 36 37 33 31 28 30 28 31 32 33 34 32 31 31 31 30 31 31 31 32 31 31 29 30 32 23 18
45 45 46 46 45 45 45 45 45 46 48 46 42 41 41 45 44 42 34 35 35 37 35 30 30 28 30 30 32 30 28 31 31 30 30 30 30 31 32 31 29 29 28 26 26 23 18
45 45 46 45 45 45 44 45 45 45 47 44 41 43 43 44 41 41 37 37 37 36 36 30 31 31 29 30 30 29 26 30 32 31 29 30 31 31 29 30 31 29 28 24 24 24 23
45 45 45 48 45 44 44 44 45 44 46 45 39 40 44 45 38 38 36 36 37 34 31 29 28 30 30 28 27 29 29 33 32 30 29 29 29 28 27 28 30 29 29 26 24 26 27
44 44 45 46 45 44 44 44 44 44 46 43 40 40 41 42 39 36 34 33 31 36 32 30 29 29 27 27 28 28 29 34 33 32 36 33 27 28 21 25 30 31 29 27 29 30 23
44 44 45 45 46 44 43 43 43 43 45 42 40 36 37 38 36 35 35 34 32 31 35 31 29 27 26 26 27 28 31 32 33 36 32 30 33 31 27 27 29 30 29 28 29 27 29
43 44 44 44 45 45 43 43 42 42 44 40 38 36 36 35 34 32 33 33 33 34 34 29 28 29 30 27 25 27 30 30 28 33 30 31 32 32 30 30 29 29 28 29 29 28 26
43 43 43 43 43 45 43 43 42 41 42 40 41 41 38 33 32 31 32 33 33 35 37 36 31 32 32 34 36 34 31 31 31 30 30 31 32 32 27 28 28 27 28 28 29 29 28
43 42 41 41 43 45 44 42 42 41 40 43 40 40 35 32 32 31 33 34 34 36 34 37 36 33 37 36 34 33 33 32 32 32 31 31 32 33 29 28 24 27 31 30 29 28 29
42 43 44 42 43 44 45 42 43 42 41 40 40 39 37 30 31 30 34 35 36 36 36 37 39 40 41 37 33 30 31 30 31 33 31 31 32 31 27 24 24 25 30 30 30 30 30
43 44 43 43 43 44 45 44 42 42 41 38 40 39 38 31 28 33 33 34 35 34 34 38 41 42 40 37 34 28 27 26 29 32 36 33 32 30 29 24 22 29 33 34 35 31 33
45 44 43 43 43 43 43 44 46 41 41 37 38 38 37 31 30 31 32 34 37 35 34 36 39 40 39 36 31 28 28 29 27 26 31 32 32 30 28 25 24 28 36 38 34 33 35
45 44 42 43 43 42 42 43 44 45 40 39 38 39 35 31 26 28 34 33 37 38 34 36 38 37 38 35 32 31 28 28 29 28 28 27 28 30 28 26 23 32 38 35 36 36 38
47 43 42 42 42 43 43 43 42 46 45 40 37 36 38 34 30 28 27 28 30 30 33 38 38 36 38 36 36 35 30 30 30 28 32 27 29 27 28 26 29 35 35 37 36 35 36

GFSGBSN_sfc_dewp_045.txt.gz
Dewpoint
50 52 51 50 50 49 51 51 49 49 49 49 49 49 49 49 49 48 47 47 46 46 46 47 48 48 44 38 32 51 55 58 54 51 47 47 39 43 38 37 35 35 32 31 33 37 36
50 51 49 50 49 50 50 49 50 50 50 51 51 50 50 48 48 48 47 47 47 47 46 46 46 48 42 37 33 49 50 49 54 51 44 46 39 42 39 36 34 36 35 33 32 36 37
50 49 49 50 49 49 50 50 49 50 51 51 50 49 49 48 48 47 45 46 47 46 47 47 45 42 40 35 36 50 51 47 49 52 43 44 40 42 41 37 38 37 32 34 32 34 35
50 49 49 49 48 48 49 49 50 51 51 51 50 49 49 49 48 46 44 47 47 47 47 46 46 41 36 37 37 44 50 46 51 52 44 47 46 41 40 39 38 35 34 31 32 34 34
50 50 49 49 48 48 49 50 50 51 51 50 50 49 49 48 47 42 45 47 48 48 47 46 42 39 33 41 36 37 47 45 48 51 45 48 48 42 40 36 34 33 27 27 28 32 33
50 49 48 47 48 49 50 50 50 51 51 50 50 49 49 47 42 44 46 47 45 46 44 41 39 36 34 35 41 43 48 48 46 46 46 48 48 42 35 32 25 26 27 22 24 32 31
49 49 48 47 47 47 48 49 50 51 51 49 50 49 49 47 43 46 45 41 39 36 36 29 29 32 37 40 46 46 46 50 47 45 41 45 42 37 33 29 25 21 25 21 22 31 31
48 49 48 47 47 47 48 49 50 50 50 50 50 47 48 47 46 47 44 35 37 40 28 30 31 32 34 37 41 45 45 43 44 39 39 42 38 35 33 29 26 28 24 22 26 30 30
48 48 48 47 47 47 47 48 50 50 50 50 51 48 46 47 48 45 39 39 42 41 36 32 37 38 41 44 38 44 44 45 41 37 39 35 37 37 34 31 29 26 25 23 26 31 30
48 48 48 48 47 47 46 47 49 50 50 50 51 49 47 46 42 42 38 42 42 42 34 34 38 41 44 44 40 46 47 45 40 37 38 39 36 39 35 32 28 25 30 30 31 29 18
48 48 48 47 47 47 47 47 47 49 49 50 49 51 47 47 41 40 42 44 43 43 24 36 37 44 45 41 42 45 49 46 38 39 40 38 39 35 34 32 29 30 34 32 32 30 29
47 48 48 47 47 47 47 47 47 47 49 49 49 50 49 45 44 42 45 44 43 33 24 35 39 38 37 39 42 44 45 46 43 39 38 38 41 40 36 35 32 33 32 31 31 30 29
47 47 48 47 47 47 47 46 46 47 47 49 48 49 48 44 41 45 45 41 33 29 35 34 37 38 38 37 39 40 39 40 36 33 33 36 36 40 39 35 34 33 30 29 28 30 24
47 47 47 47 47 47 47 47 46 46 47 49 49 48 46 43 46 46 44 38 29 33 34 37 36 36 37 38 38 38 37 37 39 38 36 33 30 34 38 37 34 33 31 29 20 21 22
46 46 47 47 46 47 47 47 46 46 48 49 48 43 44 45 46 46 41 33 33 35 33 32 32 31 32 35 37 35 33 33 34 34 34 34 33 38 38 38 37 36 35 27 23 19 21
46 46 47 47 47 46 46 47 46 47 48 49 42 40 43 43 47 44 41 35 36 36 32 30 27 29 28 31 31 31 32 32 31 31 31 31 32 35 35 39 37 38 33 30 33 26 17
45 46 46 48 47 46 46 46 46 46 48 48 43 39 43 46 46 41 36 36 33 34 33 30 28 27 28 29 31 28 29 32 31 29 30 31 30 32 32 31 31 32 31 28 28 25 22
45 45 45 47 47 46 46 45 45 45 47 47 43 43 44 45 42 40 36 37 37 34 33 30 31 30 27 29 29 27 27 30 31 30 28 30 32 31 30 30 31 30 28 26 26 26 23
44 45 45 46 47 46 45 45 44 44 45 43 38 41 45 45 39 37 36 34 35 32 30 28 28 30 30 28 27 28 28 33 32 30 29 29 31 29 28 29 30 29 29 28 25 28 30
44 44 45 45 46 46 45 44 44 44 44 43 39 40 40 40 40 35 32 31 31 36 31 29 28 29 28 26 27 28 29 33 33 32 36 34 27 29 25 27 29 30 28 29 29 32 25
43 44 44 44 44 45 44 44 43 43 44 43 40 39 38 40 35 35 35 32 30 30 33 30 28 27 25 25 25 26 30 31 32 35 32 30 33 32 26 27 30 31 29 29 31 29 30
42 43 44 43 42 45 45 44 43 43 44 40 36 36 37 35 34 33 33 32 32 32 32 28 27 26 26 25 23 25 28 28 27 32 30 31 32 32 31 29 28 29 28 28 29 28 26
42 43 42 42 43 45 46 43 44 43 41 37 37 40 39 34 32 31 30 32 32 35 35 34 28 28 28 31 32 33 29 28 28 27 29 29 33 32 27 27 28 27 28 27 28 28 27
42 42 45 44 44 44 46 43 43 43 40 36 37 40 34 32 32 30 33 34 33 35 33 33 35 30 34 35 34 32 31 30 30 30 30 29 31 32 29 29 23 28 30 29 28 28 29
43 42 45 44 44 44 44 45 44 43 42 36 35 37 34 29 29 30 32 34 35 35 36 35 37 40 38 36 30 29 29 29 30 31 30 30 29 30 27 25 24 23 28 30 29 30 29
44 44 45 44 43 44 44 45 46 43 42 36 38 37 36 30 26 32 32 34 34 33 33 36 41 42 40 38 32 25 25 24 26 30 34 31 30 29 28 23 21 29 32 32 33 31 32
44 45 44 43 43 43 43 43 44 44 42 39 38 39 33 28 22 28 29 32 36 36 34 36 39 40 40 34 30 26 25 27 25 25 29 30 29 29 27 24 24 25 35 36 31 33 35
45 46 44 43 42 43 44 43 43 43 44 42 38 39 34 30 28 26 28 27 28 37 34 37 38 38 38 34 30 29 26 27 26 26 26 26 26 26 26 27 22 29 36 34 36 38 40
47 47 43 43 42 42 44 44 44 42 42 41 38 37 38 35 29 31 28 25 26 31 33 37 38 36 37 34 33 32 28 27 26 23 29 26 26 26 26 25 30 32 33 37 37 37 37

GFSGBSN_sfc_dewp_048.txt.gz
Dewpoint
51 51 50 51 51 49 50 52 50 50 51 52 52 51 51 50 49 48 48 47 47 46 47 46 47 48 46 40 37 42 51 56 56 54 47 48 37 43 40 40 37 37 34 32 32 37 37
51 51 50 51 49 49 50 50 51 52 51 52 51 50 49 49 50 48 46 47 46 47 46 47 46 46 43 38 36 39 50 53 54 54 45 47 36 42 39 36 37 36 36 35 31 36 38
51 51 50 49 49 50 50 51 50 51 51 51 51 50 49 50 49 47 47 44 45 47 46 47 46 42 40 36 39 51 51 50 54 52 44 46 42 38 42 38 37 36 34 36 34 35 36
50 50 50 49 49 49 50 50 50 51 51 51 51 49 49 50 48 47 44 45 47 48 48 47 46 41 35 37 40 38 52 47 49 53 47 45 46 40 42 41 37 35 36 32 33 34 35
50 49 49 48 48 49 49 49 50 51 52 52 50 49 50 48 46 43 44 46 48 48 47 47 42 40 32 41 35 36 48 46 48 52 52 46 49 44 43 38 36 34 30 30 32 33 34
50 50 49 48 48 48 49 49 50 51 51 51 51 48 50 48 43 45 46 46 45 45 44 41 38 36 34 34 33 33 46 48 49 50 48 46 46 42 39 36 32 30 29 28 29 31 33
50 49 49 48 48 48 48 49 49 51 51 51 51 48 49 47 44 46 46 44 40 36 36 36 32 31 36 39 38 37 48 48 50 48 41 44 40 37 36 34 31 28 27 25 27 31 31
49 49 49 48 48 48 47 48 48 50 50 50 50 50 47 48 46 47 46 36 37 39 31 29 30 30 33 35 41 46 47 44 45 40 39 41 37 36 37 33 30 26 24 24 26 31 30
49 49 49 48 48 48 47 47 47 48 49 50 49 50 48 47 46 45 39 38 43 42 35 33 38 38 40 43 40 45 43 45 42 38 38 36 35 36 34 32 29 25 25 23 25 31 31
48 49 48 48 48 48 47 47 47 47 47 49 49 49 51 48 44 43 38 41 44 43 33 34 37 40 43 44 43 46 45 44 41 36 35 36 38 37 36 33 30 25 26 27 29 30 25
48 48 48 48 48 48 48 47 47 47 47 47 49 49 50 50 44 40 41 44 45 44 24 36 38 43 45 43 42 43 48 42 38 37 40 38 38 38 38 35 31 29 34 32 32 31 30
48 48 48 48 48 48 48 48 47 47 47 47 48 48 49 48 46 42 45 45 44 31 24 34 40 38 40 40 42 42 45 44 43 39 38 38 41 41 39 40 36 35 33 32 31 30 28
47 47 48 48 48 48 48 48 48 47 47 47 49 49 48 44 43 46 46 42 32 26 36 35 35 38 38 38 39 37 37 38 36 32 33 36 36 40 41 39 39 34 31 27 23 23 23
46 47 47 48 48 48 48 48 48 47 47 49 49 48 47 43 47 47 45 38 26 32 33 37 37 36 36 37 38 38 37 37 40 37 35 32 29 36 38 37 35 33 29 27 18 21 22
46 47 47 48 48 48 48 47 47 47 48 49 50 47 45 48 47 47 41 31 31 35 34 33 34 31 34 35 35 36 38 37 38 40 35 33 32 37 37 39 37 35 34 28 26 18 21
46 46 47 47 48 48 47 47 47 47 47 49 44 43 44 46 47 44 41 34 36 36 32 30 28 31 30 32 33 32 32 33 32 34 33 34 31 37 38 40 38 37 36 30 30 21 17
46 46 47 47 47 47 47 46 46 46 47 49 45 41 44 47 47 43 35 35 33 33 33 30 28 27 29 29 31 27 29 33 31 30 31 32 31 34 37 35 35 35 33 30 28 27 23
45 46 46 46 47 46 46 46 45 45 46 45 45 42 46 48 43 44 38 38 37 33 34 31 32 30 29 29 30 28 28 31 32 32 29 32 32 31 31 31 34 36 34 31 29 25 24
45 45 45 46 46 45 45 45 45 44 44 43 39 41 47 46 38 38 37 33 35 33 31 29 29 32 30 29 27 29 30 36 34 33 30 30 31 26 27 29 31 30 30 33 28 31 29
43 44 45 45 44 44 46 45 45 44 44 44 40 39 44 44 40 37 33 31 32 38 33 30 29 30 29 27 28 29 30 35 35 33 37 34 29 28 25 26 31 28 29 30 30 25 27
43 43 44 43 44 45 47 45 45 45 46 44 40 38 37 39 36 35 36 33 30 30 35 32 29 29 27 26 26 26 31 32 33 35 33 32 30 27 28 28 32 32 30 29 28 29 25
42 43 43 44 45 45 46 45 44 44 45 38 35 35 36 36 35 33 34 34 33 33 33 30 29 28 27 26 25 25 29 29 29 32 30 33 29 31 27 29 29 27 28 29 29 29 28
41 43 45 45 44 44 46 45 44 44 43 36 36 39 38 35 33 32 32 33 33 36 36 34 32 29 28 34 33 33 29 29 29 30 29 31 31 27 23 28 28 26 28 28 28 29 28
42 42 45 44 44 44 44 46 45 44 42 36 34 39 35 31 32 31 33 33 34 36 36 33 35 33 35 36 34 32 30 30 30 29 29 28 32 30 23 26 16 27 30 30 28 28 29
42 42 45 44 44 44 44 44 45 44 43 38 36 34 33 25 24 28 32 33 35 36 36 36 38 39 37 36 30 29 29 29 28 30 30 28 32 31 24 22 24 24 30 30 28 28 29
43 44 44 44 43 43 44 44 44 45 43 40 39 38 33 29 23 22 28 32 33 34 34 37 41 42 40 38 33 27 26 24 27 30 33 30 30 28 28 22 21 31 31 32 32 31 32
44 45 45 44 43 43 44 44 44 44 44 42 40 40 35 28 24 25 27 31 34 36 36 37 39 39 41 35 30 28 26 27 24 24 29 30 30 28 29 26 24 32 34 35 31 31 35
45 46 47 44 43 43 44 44 45 43 44 44 40 40 36 31 30 29 26 25 27 30 35 38 37 38 38 33 31 31 25 26 26 25 27 26 27 26 27 27 21 35 36 34 37 39 39
46 47 47 43 43 43 44 44 44 43 43 42 39 39 39 36 32 34 33 31 29 28 31 35 38 37 39 36 34 31 29 27 26 23 28 26 27 25 26 27 31 33 34 37 37 37 38

GFSGBSN_sfc_dewp_051.txt.gz
Dewpoint
51 51 50 50 50 50 51 51 51 51 52 52 52 51 50 49 50 49 48 48 47 47 46 47 47 47 46 40 39 41 48 51 51 54 50 49 43 47 41 43 41 40 37 39 40 42 42
51 51 50 50 49 50 50 50 50 51 52 52 51 49 50 50 50 47 46 46 45 47 46 46 46 46 43 37 40 46 44 48 52 53 49 49 37 46 42 41 39 38 39 39 38 37 36
51 50 50 49 49 49 50 51 50 51 52 52 51 49 51 50 50 48 46 44 45 46 46 47 46 43 41 37 40 43 51 51 53 51 48 48 45 43 40 38 39 38 36 39 38 37 36
51 50 50 49 49 48 50 50 50 51 51 51 52 49 50 48 47 47 45 46 46 47 47 47 46 44 37 39 40 39 48 48 52 54 51 48 47 43 42 40 37 35 36 34 36 36 36
51 50 50 49 49 48 49 50 50 50 51 51 51 48 49 47 45 45 46 46 47 47 46 46 44 42 35 43 37 37 45 42 50 53 54 47 48 44 41 37 35 36 32 33 32 35 35
50 50 50 49 49 48 48 48 50 50 51 50 51 49 49 47 45 47 47 46 45 46 44 43 40 37 37 36 38 42 47 45 48 50 50 46 45 40 40 36 30 32 32 31 31 32 34
50 50 50 49 49 49 48 48 47 49 50 51 49 50 48 48 46 47 46 44 37 36 38 37 36 33 34 37 41 42 45 46 48 49 41 43 38 36 37 37 33 31 31 28 31 32 33
49 49 49 49 49 48 48 48 48 47 48 49 50 50 50 48 48 47 45 37 39 38 34 36 36 33 33 34 39 41 47 46 45 40 42 40 34 37 38 35 34 31 29 28 28 32 32
49 49 49 49 49 49 48 48 48 48 48 48 49 49 50 48 47 45 40 40 43 42 36 35 39 39 41 42 39 39 47 45 42 40 38 36 36 37 38 34 32 31 25 25 27 30 30
49 49 49 49 49 49 48 49 48 48 48 47 48 50 49 50 43 42 40 43 44 43 32 34 37 42 42 45 40 47 46 45 42 38 37 36 37 37 35 35 32 28 27 27 30 29 25
48 48 49 49 49 49 49 48 48 49 48 47 47 49 48 49 44 41 42 43 44 42 16 37 38 45 45 40 41 41 47 44 39 38 39 36 38 37 37 36 34 30 33 32 32 30 29
48 48 48 49 49 49 49 49 49 48 48 47 47 49 48 48 46 43 44 44 43 24 20 34 39 38 40 42 41 43 43 44 42 38 38 38 40 40 39 42 40 35 33 32 31 30 22
47 48 48 48 49 49 49 48 48 48 48 48 48 49 48 46 43 45 45 42 28 18 35 30 36 39 38 38 38 37 38 38 36 32 33 37 36 39 41 39 40 36 30 28 23 20 20
46 47 48 48 48 49 48 48 48 48 48 48 50 49 47 45 46 46 45 36 23 32 32 37 38 37 35 37 37 38 37 36 38 37 33 30 29 37 39 37 37 35 29 25 18 20 22
46 47 48 48 48 49 48 47 47 47 48 47 49 46 44 46 46 46 41 26 29 33 35 35 35 33 34 36 37 35 35 36 38 39 31 32 31 37 38 40 39 36 34 29 26 22 18
46 47 47 48 48 47 47 47 47 46 47 47 43 42 43 47 46 44 34 28 31 38 34 32 30 31 33 33 33 35 36 36 38 39 39 36 29 37 37 39 38 37 36 30 27 20 16
46 46 47 47 47 46 46 47 46 46 47 47 42 38 43 47 46 42 28 30 36 35 34 31 30 29 30 31 34 31 31 32 33 35 34 35 31 34 38 36 36 36 34 30 29 26 21
45 45 46 46 45 45 46 46 46 45 46 43 39 33 44 47 35 38 31 35 37 34 34 32 32 30 29 30 27 28 30 31 32 31 30 32 32 31 32 37 38 37 34 31 27 24 22
44 44 45 44 45 45 47 46 46 45 45 41 36 37 45 44 33 34 35 36 37 35 31 30 31 32 30 28 27 28 32 35 33 33 30 31 29 27 28 29 34 34 36 36 34 29 25
43 44 45 44 45 46 47 46 46 45 45 43 37 36 40 41 38 35 32 32 34 36 35 30 29 30 29 27 27 28 31 34 35 33 39 34 30 25 22 25 30 29 32 36 35 27 25
43 43 44 45 45 45 46 46 46 46 47 41 37 36 36 34 36 34 34 33 31 33 35 31 29 29 28 25 26 28 32 33 34 37 33 31 24 23 27 31 31 30 29 31 31 29 25
42 43 45 45 45 45 45 46 46 46 45 36 32 34 35 33 35 32 34 33 32 33 33 31 29 29 27 27 26 26 30 30 30 32 30 32 25 27 22 28 28 27 29 30 30 29 28
42 42 45 45 45 45 45 45 45 45 42 34 34 35 36 33 33 30 32 35 34 35 35 34 34 31 28 35 34 33 29 29 29 31 29 31 28 23 20 28 27 24 27 28 28 30 29
42 42 44 44 44 44 44 45 45 45 43 34 33 36 32 29 27 26 32 34 34 36 36 34 37 33 34 35 34 31 30 29 29 30 30 31 29 26 19 23 15 23 30 30 27 27 30
43 43 44 44 44 44 44 45 44 45 44 36 36 33 30 24 25 23 27 32 34 35 35 37 39 40 39 37 30 28 28 29 28 30 30 29 29 29 20 21 21 24 30 29 28 28 29
44 44 44 44 43 43 44 45 45 44 45 39 37 37 32 26 23 25 24 28 31 32 35 38 41 41 40 37 33 27 25 22 26 28 32 32 31 27 28 21 19 28 30 32 33 29 33
45 45 45 43 43 43 44 45 45 44 44 42 38 37 34 27 27 27 25 28 32 34 34 38 38 38 39 33 29 27 22 26 25 26 28 30 30 27 28 27 24 26 32 35 28 28 35
45 46 46 44 42 43 44 45 45 44 44 41 38 38 34 29 30 31 28 24 25 28 32 36 36 36 36 31 30 29 24 25 25 25 28 27 26 27 28 27 21 33 36 33 35 39 37
46 46 47 44 43 43 44 45 44 43 43 42 37 39 39 35 31 34 33 32 32 28 27 32 35 37 39 34 33 31 27 27 26 24 28 25 26 25 26 26 29 36 36 37 38 39 40

GFSGBSN_sfc_dewp_054.txt.gz
Dewpoint
52 51 51 50 50 51 51 51 51 51 53 52 52 49 51 51 50 48 47 47 46 46 46 46 46 48 45 40 38 42 50 51 48 54 52 46 46 45 43 43 45 40 42 43 45 48 47
52 51 50 50 50 49 51 51 51 51 52 52 52 49 50 50 49 48 47 46 45 47 46 46 46 46 43 36 39 44 42 45 47 52 50 48 45 47 41 42 43 42 40 41 44 44 44
51 51 51 50 50 49 50 51 51 51 52 52 51 50 49 48 48 47 46 45 46 46 46 46 46 43 41 37 41 45 43 48 49 52 49 50 44 46 42 40 41 39 39 39 38 38 38
51 51 50 50 49 49 48 49 50 51 51 51 51 49 49 47 45 45 46 47 46 47 47 47 46 43 38 41 44 42 44 50 53 53 50 51 46 45 41 40 38 35 37 34 36 37 36
51 51 50 50 49 49 49 48 47 50 51 51 51 51 49 48 46 47 46 47 47 47 46 46 43 41 35 41 38 40 46 47 51 53 52 50 48 43 41 36 34 34 33 33 34 36 36
50 50 49 50 50 49 49 48 48 48 49 50 50 50 49 49 47 48 48 47 46 46 44 44 42 36 36 35 39 45 47 48 49 50 49 47 45 40 39 36 30 31 32 32 32 34 35
50 50 50 50 49 50 49 49 48 48 48 48 49 49 50 48 49 48 46 40 36 34 38 34 33 35 33 38 39 44 47 47 49 48 42 43 39 36 36 34 33 33 30 31 32 33 33
50 49 50 49 49 49 49 49 49 49 48 48 48 49 49 50 48 48 44 38 38 38 33 37 38 37 36 34 38 42 46 45 43 39 42 41 36 37 38 37 33 32 31 29 29 31 32
49 49 49 50 49 49 50 49 49 48 49 48 47 49 48 49 49 43 39 39 42 42 34 36 39 40 42 43 39 41 46 45 40 40 38 35 36 39 38 35 33 31 28 28 26 31 30
49 49 49 49 49 49 49 49 49 49 48 49 48 47 48 49 43 41 39 43 43 43 29 35 37 40 43 44 38 48 49 45 42 39 38 36 37 36 37 35 32 29 28 27 28 29 27
48 48 49 48 49 49 49 49 49 49 48 48 48 48 47 48 42 40 41 43 43 39 11 36 39 46 41 40 40 41 48 44 39 40 38 37 36 36 35 35 33 31 31 30 31 29 28
48 48 48 48 48 48 49 49 49 48 48 48 47 48 47 47 46 43 44 44 42 21 12 33 39 36 36 39 41 42 43 44 43 39 38 38 41 40 39 41 38 35 32 31 31 28 23
47 48 48 48 48 48 49 48 48 48 47 47 47 49 47 47 42 45 44 41 22 21 32 29 37 39 37 36 37 38 38 38 36 33 31 37 37 39 40 37 38 35 29 26 24 21 21
46 47 48 48 47 47 46 47 48 47 47 48 48 49 47 46 46 45 43 29 19 31 30 36 37 37 35 37 37 37 36 34 38 34 32 28 29 36 38 36 35 34 32 23 18 20 20
46 47 47 48 47 47 47 47 47 47 47 48 48 44 44 45 46 45 36 20 23 28 35 36 36 34 33 36 37 36 35 34 37 37 29 31 31 37 38 40 39 37 32 30 23 22 17
45 46 47 47 47 46 47 48 47 46 47 47 41 41 42 47 46 44 31 26 30 36 35 33 31 31 31 33 34 36 36 37 37 40 36 33 30 37 38 39 39 38 36 27 25 20 15
45 46 46 46 46 46 47 47 47 46 47 46 41 38 43 46 45 40 24 26 35 37 34 31 30 29 31 33 33 33 34 35 38 38 39 35 30 34 38 36 34 36 35 33 30 25 19
44 45 45 45 46 46 47 47 47 45 46 42 37 33 44 46 39 39 28 34 37 34 34 33 31 30 28 30 28 29 30 31 33 34 30 34 31 29 32 36 38 37 35 31 29 26 22
44 44 45 45 46 46 47 47 47 45 46 41 36 35 45 43 36 32 34 35 36 34 32 30 30 31 30 28 27 30 31 34 33 32 31 32 28 24 28 32 37 37 37 35 34 29 22
43 43 44 45 45 45 46 46 46 45 46 42 37 34 41 43 38 36 32 33 32 36 34 30 29 30 29 27 27 29 30 34 34 32 38 34 29 24 21 24 30 29 36 36 34 24 25
43 43 45 45 45 45 45 46 46 44 45 40 34 33 36 34 35 34 33 33 32 33 34 31 29 29 28 25 27 28 32 32 33 36 33 29 24 22 27 30 29 29 30 34 34 32 26
43 43 45 44 45 45 45 46 46 45 41 34 31 32 33 32 34 32 33 33 32 33 33 31 29 30 28 26 26 25 30 31 29 32 31 31 23 25 21 27 28 27 28 32 34 35 34
44 43 44 44 44 44 45 45 45 45 39 31 33 33 37 31 31 29 32 34 35 35 35 34 32 32 31 33 33 32 31 30 30 30 29 30 27 21 17 27 25 23 26 27 29 31 33
44 43 44 44 44 44 45 44 45 45 40 33 32 33 29 28 24 27 28 32 33 34 35 36 37 33 33 35 35 30 30 30 30 31 31 30 27 23 17 22 12 24 28 29 27 27 30
44 44 44 44 44 44 44 45 45 45 44 36 35 32 28 22 25 22 23 29 32 34 35 36 39 39 40 36 29 28 28 28 28 30 29 31 28 27 18 17 20 22 29 29 28 27 28
45 45 45 44 43 43 44 45 45 44 45 38 36 36 31 25 23 25 23 27 31 31 33 37 41 41 38 37 33 25 23 24 24 27 31 31 30 25 28 21 17 22 32 31 32 27 33
46 46 46 44 43 42 44 45 44 44 44 40 37 36 32 27 28 28 24 24 29 28 32 36 36 37 37 32 28 26 21 25 25 24 27 29 30 25 26 25 25 25 28 34 26 26 35
46 46 47 45 43 42 44 45 45 44 43 39 37 38 33 28 29 30 29 26 27 26 29 34 36 37 34 30 29 28 23 24 24 25 26 27 26 27 28 26 19 29 35 31 32 37 37
46 46 47 45 43 43 43 44 43 44 44 41 37 40 39 33 30 33 33 33 32 31 27 29 33 36 36 36 33 30 28 27 26 23 28 25 25 23 26 25 27 31 33 37 39 38 37

GFSGBSN_sfc_dewp_057.txt.gz
Dewpoint
51 51 51 50 50 49 50 51 50 51 52 53 52 50 49 50 49 48 47 47 46 47 46 46 46 48 45 39 38 45 48 46 44 50 51 45 44 44 42 45 44 42 41 44 44 48 47
51 51 51 50 49 49 49 50 51 51 52 52 52 49 49 49 48 48 47 46 45 46 46 47 46 47 43 35 39 46 45 42 43 49 48 49 43 45 43 43 44 43 43 44 46 46 44
51 51 50 50 50 49 49 48 49 50 51 52 52 50 49 48 46 47 46 46 46 47 47 46 46 43 41 37 41 48 47 43 47 49 46 50 46 45 42 41 44 44 42 43 46 46 47
51 51 50 50 50 50 49 48 48 47 49 50 51 50 49 48 46 47 47 47 47 47 48 48 47 43 36 41 45 47 45 48 49 51 53 52 47 46 40 41 38 37 39 37 39 42 42
51 51 50 50 50 51 50 49 49 49 48 48 50 50 50 49 48 47 48 48 47 48 46 46 42 40 32 40 41 44 45 46 49 53 54 49 47 43 41 37 34 35 33 34 35 37 37
50 50 50 50 49 49 49 49 49 49 48 48 48 49 50 49 49 48 49 49 48 46 44 45 42 35 35 35 41 45 47 47 48 50 48 47 44 39 38 35 31 31 30 33 32 35 36
50 50 50 49 49 49 49 50 49 48 49 48 47 48 49 50 49 48 47 37 34 32 37 33 34 34 34 35 43 45 45 45 49 46 42 44 37 35 35 35 33 32 32 32 32 34 34
50 50 50 49 48 49 49 49 49 49 49 47 47 46 48 49 50 48 42 38 37 38 32 38 38 38 39 37 38 42 46 40 44 40 42 40 34 37 37 35 33 32 31 31 31 33 33
49 49 49 49 49 49 49 49 49 49 49 49 48 47 48 48 50 42 39 38 42 42 33 37 39 40 43 43 40 40 43 44 41 41 38 34 35 39 38 35 32 30 30 29 28 30 31
48 49 49 48 48 49 49 49 48 48 49 49 49 47 49 47 45 41 39 41 43 42 24 35 37 39 42 43 40 45 46 44 41 36 37 37 38 38 37 35 33 29 30 30 29 29 27
48 48 48 48 48 48 48 49 49 48 48 48 48 47 49 47 42 40 40 43 43 37 14 34 37 45 41 40 40 40 49 46 39 40 39 37 36 37 36 35 32 31 31 28 29 29 28
47 47 48 48 48 48 47 47 48 48 48 48 47 48 47 47 46 44 44 44 41 19 11 32 38 36 36 39 41 43 45 46 45 39 38 38 41 39 38 40 35 34 31 30 30 27 22
47 47 48 48 47 48 48 48 47 47 47 47 47 49 47 47 42 44 44 40 22 15 28 26 36 37 36 36 36 39 39 38 36 32 33 37 37 39 40 36 37 33 29 23 21 23 20
46 46 47 48 47 47 47 47 47 47 47 47 48 49 48 46 45 45 41 28 16 24 28 34 38 37 34 36 36 35 36 35 38 33 31 30 30 36 38 35 33 32 29 23 17 20 20
46 46 47 47 47 47 47 47 47 47 47 49 47 43 43 45 46 44 35 18 21 26 34 35 36 34 34 36 35 35 35 33 36 35 27 27 29 37 38 39 37 34 32 28 22 20 17
46 46 46 46 46 46 47 47 47 47 47 47 40 40 42 46 45 44 29 26 26 34 36 33 30 32 31 34 34 33 34 35 37 38 34 31 27 35 38 39 38 36 36 29 24 16 16
46 45 45 45 46 46 47 47 47 47 46 46 40 38 43 46 45 39 23 26 33 37 36 31 30 28 31 32 33 33 33 35 38 39 37 32 29 31 37 35 33 36 36 33 29 24 17
46 44 44 45 46 46 46 47 47 46 46 42 37 32 43 45 39 38 27 32 37 33 34 33 31 30 30 32 32 30 32 32 38 39 36 34 30 29 31 36 38 36 35 35 29 22 21
46 44 44 45 45 45 46 47 47 46 45 39 36 37 44 44 31 29 33 35 36 34 32 30 29 31 30 28 26 30 31 34 35 35 34 34 31 27 29 33 37 37 36 36 33 28 20
45 44 44 44 45 45 45 46 46 46 45 41 35 31 42 43 40 36 31 32 30 35 33 30 29 29 28 27 28 30 30 33 34 32 39 35 29 24 22 23 30 33 34 35 35 29 27
45 45 44 44 44 45 45 46 46 45 44 38 33 31 33 28 36 34 33 33 30 32 33 31 28 29 28 26 27 29 32 32 33 35 33 29 25 25 26 28 30 30 31 34 33 33 30
45 45 44 44 44 44 45 45 46 44 39 33 29 29 32 31 32 31 33 33 31 32 32 30 28 30 28 25 26 26 31 30 28 31 31 30 23 24 21 27 28 27 28 32 33 33 32
45 46 45 44 44 45 45 45 46 45 36 30 31 32 33 30 27 28 30 32 35 36 34 34 31 33 29 31 32 32 32 31 31 30 30 29 26 21 16 26 25 22 25 27 31 34 34
45 46 45 44 43 44 45 46 45 45 38 32 32 31 28 27 24 25 24 23 32 33 34 35 37 33 33 36 35 30 30 30 31 31 31 29 26 22 16 22 11 21 25 27 27 27 33
45 46 45 44 43 44 45 45 45 45 43 35 34 30 26 20 24 21 23 27 32 34 35 35 38 38 40 34 29 27 27 27 28 30 30 30 29 23 18 16 20 20 28 28 27 26 28
46 46 46 44 43 44 45 45 44 45 45 37 35 34 30 21 22 25 23 26 29 30 32 36 40 40 38 35 31 25 23 24 24 28 31 31 30 24 24 21 17 19 29 31 30 26 32
46 46 46 44 43 44 44 44 45 44 44 39 36 35 31 27 28 28 24 23 26 25 28 33 32 36 37 32 28 26 22 25 24 21 28 29 30 23 23 25 24 25 27 33 25 24 35
46 47 47 45 43 44 45 44 44 44 44 38 36 37 32 28 28 30 29 26 28 26 27 29 35 38 35 31 29 27 23 23 23 24 26 26 26 27 27 26 19 27 33 29 30 36 36
46 47 48 45 44 44 44 44 43 44 44 40 37 40 39 35 29 33 33 33 31 30 28 27 32 33 36 36 32 31 28 25 24 22 26 24 25 24 26 25 27 28 34 36 38 37 36

GFSGBSN_sfc_dewp_060.txt.gz
Dewpoint
52 51 51 51 50 50 50 49 49 50 51 53 53 51 50 49 49 48 48 47 47 48 47 47 47 48 44 38 37 42 48 48 44 46 48 47 43 41 41 44 45 41 44 44 47 47 46
52 51 51 51 50 50 50 49 49 47 50 52 52 52 50 48 47 48 48 48 47 47 47 47 47 47 42 34 40 47 47 45 43 46 48 49 43 43 42 44 43 43 43 43 47 47 47
52 51 51 50 49 51 50 49 49 48 48 50 51 52 50 49 47 47 47 47 47 48 48 48 47 43 41 36 44 48 45 46 45 44 47 48 47 43 44 43 45 44 43 44 45 45 45
51 51 51 50 50 50 50 49 50 50 48 47 49 51 51 49 48 47 48 48 48 48 48 48 48 42 36 42 46 44 46 45 45 48 48 48 50 46 43 42 41 40 40 39 44 47 47
51 51 51 50 50 49 49 49 48 48 49 50 47 49 50 50 49 48 48 49 48 47 47 47 42 39 32 43 41 47 47 44 49 50 52 50 49 44 41 37 35 38 31 34 41 46 47
51 51 50 49 49 50 50 50 49 49 49 49 50 47 49 49 50 49 49 48 48 46 44 44 43 34 34 34 41 47 47 48 47 48 47 48 45 39 38 36 31 33 30 31 34 41 44
50 50 50 49 49 49 49 50 50 49 49 49 49 49 48 48 49 50 47 36 33 31 38 33 33 34 34 37 46 42 45 46 47 43 40 43 38 35 34 34 33 33 32 32 33 35 35
50 50 50 50 48 49 50 50 48 48 49 49 50 49 47 48 48 50 41 36 35 37 36 38 38 37 39 41 38 42 47 42 44 38 40 39 33 37 37 35 33 32 31 30 32 34 34
50 50 50 49 48 49 48 49 49 49 48 49 49 48 47 49 48 42 38 37 42 41 35 36 39 40 41 44 41 42 43 42 40 39 38 33 34 38 37 33 31 30 30 29 30 31 31
50 49 49 49 48 48 49 47 48 47 48 48 48 46 47 49 45 40 38 41 43 41 22 32 36 38 41 43 38 44 46 41 40 38 37 35 39 37 37 33 32 29 31 30 30 30 27
49 49 49 49 49 48 48 48 48 47 47 47 46 47 48 48 41 40 40 43 43 34 10 30 36 43 41 40 38 39 47 44 37 39 38 37 37 37 35 34 33 31 30 28 29 28 25
49 49 48 48 48 48 48 48 47 47 48 47 47 47 48 46 45 44 43 43 38 19 15 32 38 36 36 39 40 42 44 47 44 39 39 38 40 38 37 39 34 33 30 30 28 27 20
48 48 48 48 48 48 48 48 47 48 48 47 48 49 47 46 41 44 44 38 20 15 26 32 35 33 34 36 37 38 37 37 36 32 34 37 37 38 39 36 36 32 29 25 24 21 19
48 47 47 47 47 47 47 47 48 47 48 47 48 49 47 46 45 44 40 27 15 22 27 32 36 35 33 36 36 37 36 35 37 35 32 29 30 36 38 34 33 30 28 23 17 20 20
48 47 47 46 47 47 47 47 47 48 47 47 46 42 43 44 46 44 36 16 18 24 33 35 36 34 34 36 34 35 36 35 35 33 29 26 30 37 39 38 36 33 28 26 22 18 15
47 47 46 45 46 46 47 47 47 47 46 47 40 39 41 46 46 44 30 26 25 31 35 35 29 32 30 31 32 34 33 35 37 36 33 30 28 35 38 38 38 34 33 27 27 15 16
47 47 46 45 45 46 46 47 47 47 45 45 39 38 42 45 45 39 23 27 31 35 36 30 30 29 30 33 33 31 32 35 38 36 34 31 28 32 36 34 34 36 34 31 28 23 17
48 47 45 44 45 46 46 47 47 46 45 41 37 34 43 44 39 37 26 31 37 33 35 32 31 30 31 33 32 31 32 33 39 38 32 32 30 29 31 37 37 35 34 33 28 21 21
47 46 45 44 45 45 45 46 47 45 45 39 34 38 44 43 31 28 32 34 35 33 32 30 29 30 29 29 27 30 31 33 39 36 33 33 27 27 29 33 36 36 34 35 34 30 19
47 46 45 44 44 45 45 46 46 44 45 40 35 30 41 43 40 33 30 32 30 35 33 31 29 29 29 26 29 29 30 33 36 37 41 35 29 23 21 23 29 32 33 33 33 30 27
47 46 46 44 43 44 45 46 46 42 45 37 32 30 32 29 36 32 32 33 30 31 32 31 28 28 28 26 28 29 31 31 32 39 36 35 26 24 26 26 31 30 31 34 34 33 30
46 47 45 44 43 44 45 46 46 42 39 32 27 29 31 30 31 29 33 31 33 33 32 30 28 30 28 26 26 27 31 29 31 31 31 30 26 24 21 27 29 28 29 31 33 34 34
46 47 45 44 44 45 46 45 46 42 34 29 30 31 32 29 26 28 27 28 33 35 35 34 31 33 28 29 32 31 32 31 30 30 30 29 28 21 15 25 25 22 26 27 30 32 32
47 46 45 44 44 45 45 45 45 43 37 32 31 31 28 27 24 25 23 24 30 32 33 36 37 32 34 38 33 31 30 31 31 30 31 27 24 22 15 20 8 19 25 27 27 28 33
47 46 46 44 45 45 45 44 45 45 41 35 33 30 24 19 24 20 22 27 32 33 35 35 38 38 40 33 29 27 27 27 28 30 30 29 27 22 17 16 19 20 28 28 26 26 28
47 47 46 44 44 45 45 45 44 45 43 36 34 33 28 18 20 26 22 25 26 27 31 34 37 35 38 34 30 26 23 24 23 27 31 31 28 23 23 16 15 18 24 31 30 24 31
47 47 46 44 44 44 44 45 44 44 44 38 35 34 30 26 27 27 24 23 25 23 23 31 32 35 35 31 29 27 22 24 23 22 27 30 30 26 24 21 23 25 27 30 23 22 33
47 47 46 44 44 45 44 44 44 43 42 38 36 37 32 28 27 29 30 26 27 25 23 26 33 35 36 31 30 28 24 23 22 23 25 26 26 25 25 23 18 27 31 28 28 33 35
48 47 46 44 44 44 44 44 44 44 43 38 35 40 37 33 29 32 33 33 32 30 28 26 31 34 35 34 31 29 28 25 22 21 25 24 26 24 26 25 26 26 33 34 36 36 35

GFSGBSN_sfc_dewp_063.txt.gz
Dewpoint
53 53 52 51 50 51 51 50 49 49 49 50 51 52 51 50 48 48 49 48 48 48 48 48 48 48 44 38 38 42 49 50 47 51 49 47 43 43 43 43 45 43 45 43 46 45 45
53 52 52 51 51 50 51 51 50 50 49 48 49 51 51 50 48 47 48 48 47 47 48 47 47 47 42 31 40 46 45 44 45 48 48 50 43 42 43 44 43 43 45 45 46 46 46
52 52 52 51 50 50 49 48 49 50 50 50 47 49 50 51 49 47 48 48 48 48 48 47 47 44 41 35 42 46 44 44 45 44 45 50 48 42 44 45 44 44 42 43 45 46 45
53 52 52 51 50 50 50 50 50 48 50 50 50 47 49 50 50 48 49 48 49 49 48 46 47 42 35 41 45 46 47 44 45 46 46 51 50 45 43 44 41 41 42 39 43 44 46
53 52 52 51 49 50 50 51 50 50 50 51 49 48 47 49 50 50 49 49 50 48 46 46 41 39 35 44 41 45 46 41 45 48 50 49 49 44 41 40 37 39 35 37 40 44 46
53 52 51 51 49 49 49 50 51 50 50 51 50 50 47 47 49 50 50 49 48 45 42 44 43 35 36 38 42 45 46 46 46 47 46 48 46 40 38 38 30 34 34 34 37 44 45
53 52 51 50 50 49 49 50 50 50 50 50 50 50 47 48 48 49 46 35 31 30 38 34 34 34 35 41 47 45 46 47 46 43 38 41 38 35 37 33 34 33 34 33 33 43 42
54 51 51 50 50 49 49 48 49 50 49 50 50 49 46 47 47 48 40 35 33 36 35 37 38 38 39 42 37 43 48 42 41 37 39 39 34 37 36 34 34 34 32 33 33 38 39
54 51 51 50 50 49 49 49 48 48 49 49 48 47 46 48 47 43 37 37 42 41 34 35 39 40 40 44 41 41 44 42 37 36 38 36 35 38 37 33 31 31 31 31 31 34 34
53 51 50 50 50 50 49 49 48 48 48 47 47 46 46 49 43 40 38 40 43 40 22 27 36 38 42 42 38 44 45 42 39 36 38 37 38 37 36 33 31 30 32 31 31 31 29
53 51 49 49 49 49 49 49 48 48 47 47 46 46 46 48 40 39 40 43 42 33 13 30 35 42 41 38 38 40 46 43 37 38 39 36 37 37 35 33 32 31 32 30 31 29 28
53 50 49 49 49 49 48 48 48 47 47 47 47 47 47 47 45 42 43 43 36 20 16 30 38 36 36 40 39 41 43 45 43 40 39 39 40 39 38 37 33 32 30 30 29 28 25
52 50 49 49 49 48 48 48 47 47 47 47 48 49 46 46 40 44 43 36 20 14 25 33 34 34 34 36 36 38 37 38 35 32 33 37 37 39 39 35 35 32 29 26 24 23 23
52 50 48 48 48 48 47 47 48 47 47 47 48 47 47 45 45 43 40 28 15 21 28 34 35 34 32 36 37 37 36 35 38 37 34 32 30 36 38 35 33 31 30 24 19 21 21
51 50 48 48 47 47 47 47 47 47 47 47 46 42 43 44 46 44 36 16 19 24 33 34 36 32 32 35 34 36 36 36 35 34 30 28 31 38 39 39 36 33 29 26 22 20 20
51 49 48 48 46 46 47 47 47 47 46 46 39 39 41 45 46 43 32 26 25 29 35 35 30 32 28 32 32 35 35 35 36 35 33 30 30 36 38 38 38 34 32 27 28 19 18
51 49 48 47 45 45 46 46 47 47 46 46 39 37 43 44 45 39 23 25 31 34 35 31 30 30 30 31 33 31 32 36 38 36 33 30 29 34 36 34 35 35 33 31 28 24 21
50 48 48 46 45 45 45 46 47 46 45 41 37 35 44 43 39 38 28 30 36 33 36 32 31 30 31 33 32 32 32 34 39 36 31 32 29 29 31 37 37 35 33 31 26 22 23
49 48 47 46 45 44 45 46 46 46 44 38 34 39 45 43 32 28 31 34 35 33 32 30 29 31 30 33 27 30 32 34 39 35 32 32 28 26 29 31 34 33 33 34 32 30 22
49 48 47 46 45 44 45 45 46 43 45 39 35 31 42 43 40 35 30 30 30 34 32 30 29 30 29 27 30 30 30 33 38 38 39 34 29 24 21 23 31 32 31 30 31 30 26
49 47 47 46 45 44 44 45 45 41 46 36 32 30 31 32 36 30 31 32 30 30 32 31 28 28 27 26 28 29 31 31 33 40 37 34 25 24 26 27 32 31 31 30 30 31 29
48 47 47 46 45 45 45 45 45 40 40 32 29 30 30 28 29 28 30 31 34 34 33 30 28 30 28 25 27 27 30 30 31 31 33 30 25 25 23 28 29 29 29 32 33 32 31
48 48 47 46 46 46 45 45 44 40 34 30 29 31 31 27 26 28 27 28 33 34 36 35 31 32 29 30 32 31 31 31 31 30 30 29 27 23 20 25 24 21 24 28 30 32 33
49 47 46 46 46 45 45 45 43 41 35 32 31 30 29 26 25 27 22 24 30 31 34 35 37 31 34 38 32 30 30 31 30 30 30 28 26 24 21 20 12 20 25 28 28 28 31
48 47 46 45 46 46 45 45 45 41 40 34 32 28 22 22 23 20 22 27 30 32 35 35 40 38 38 33 29 27 27 27 28 30 30 28 26 24 20 17 19 20 28 26 25 26 28
48 47 46 46 46 45 45 44 45 43 40 35 33 32 25 18 21 26 22 24 24 26 30 32 36 38 39 33 31 25 23 24 24 28 30 30 28 25 23 17 16 16 25 31 29 25 30
49 47 46 45 46 46 45 44 44 44 42 36 35 33 29 26 26 25 23 23 25 23 23 29 26 35 37 31 30 27 23 25 23 24 29 32 31 26 25 22 23 24 25 30 23 23 31
49 47 45 45 45 46 45 44 43 43 42 37 35 36 31 27 27 29 30 25 26 24 22 25 33 35 37 30 30 28 24 23 24 23 24 26 26 25 26 25 18 27 30 29 27 33 35
49 48 45 45 46 45 44 44 44 43 41 38 34 39 37 30 29 32 32 32 31 30 27 26 30 34 35 34 32 29 28 24 22 20 25 24 26 25 26 25 26 27 31 32 33 35 35

GFSGBSN_sfc_dewp_066.txt.gz
Dewpoint
54 53 52 52 51 51 50 51 51 51 51 50 48 49 51 51 49 47 48 48 48 47 48 48 48 48 42 34 34 40 47 51 52 50 49 47 45 40 37 42 44 45 43 41 41 43 42
55 53 52 52 51 51 51 49 50 51 50 50 50 48 50 51 50 47 47 48 48 47 48 48 47 46 38 26 37 42 41 45 49 49 47 48 43 40 37 39 43 44 46 42 43 43 43
56 54 52 52 51 51 50 50 51 51 50 51 50 49 48 49 50 49 48 48 49 49 49 48 47 44 38 27 38 43 43 43 45 47 46 50 48 41 41 40 44 42 41 47 44 43 43
57 54 53 52 51 50 50 50 51 51 51 51 51 50 48 48 49 50 49 49 49 49 48 46 47 42 30 37 42 42 44 41 44 46 49 52 50 44 41 43 42 41 40 38 42 43 44
58 55 53 52 51 50 49 49 51 51 50 51 50 50 49 48 49 49 50 50 50 49 47 46 41 40 33 43 41 43 43 39 43 46 49 50 49 43 43 38 35 37 28 32 39 43 43
58 56 53 52 51 50 49 49 50 51 51 51 51 50 49 48 49 48 50 50 46 46 44 43 41 38 36 38 43 44 44 45 41 43 45 44 45 40 36 34 26 27 26 30 33 41 41
59 56 54 52 51 51 50 50 49 48 49 50 50 49 48 48 49 48 48 39 34 34 37 36 36 35 36 44 46 41 46 45 42 42 38 40 40 34 32 32 26 27 29 30 32 39 39
59 57 54 52 51 50 50 49 49 49 49 50 50 47 48 47 49 47 44 36 34 39 34 37 37 39 40 42 41 43 46 39 40 38 39 37 36 33 36 34 32 31 31 30 34 39 40
59 57 54 52 51 50 50 49 49 48 49 49 49 47 47 47 49 47 39 36 43 42 36 35 39 39 40 43 40 42 44 39 38 38 37 36 36 37 36 33 32 30 29 31 29 40 39
59 57 54 52 51 50 50 50 49 48 48 48 49 46 47 47 45 42 39 40 44 41 35 31 35 39 41 42 39 45 45 41 37 36 38 38 37 36 33 32 29 30 33 33 33 31 25
59 56 53 51 51 50 49 49 48 48 48 48 47 47 47 48 43 40 41 44 44 38 25 33 37 41 41 37 39 41 46 39 35 37 38 37 35 35 35 32 31 30 33 32 32 27 29
59 56 53 51 50 49 49 48 48 47 47 47 47 48 48 46 45 43 44 44 40 33 23 34 36 34 37 37 36 41 41 42 42 37 39 38 39 38 35 35 33 32 31 31 31 29 27
58 55 52 51 50 49 48 48 48 47 47 47 48 49 46 46 43 45 45 39 33 29 28 33 31 32 35 34 35 37 37 36 35 32 33 38 37 39 39 33 33 32 28 27 25 28 22
58 55 52 50 49 49 48 47 47 47 46 47 48 48 47 46 46 45 42 34 29 28 29 35 33 34 34 36 36 37 37 34 37 37 36 33 32 37 39 34 31 31 27 25 18 19 19
57 54 51 50 49 48 47 46 47 46 47 46 47 46 46 47 46 45 37 34 32 32 32 32 34 31 32 34 37 37 37 34 34 35 32 32 32 38 39 38 36 32 31 26 24 22 23
56 54 51 50 49 48 46 46 46 46 46 46 45 43 45 46 47 44 36 31 33 30 36 34 30 32 26 31 34 36 36 36 35 34 32 31 31 36 38 38 37 34 31 28 33 24 18
56 53 51 50 48 47 46 46 46 46 45 46 43 41 45 46 46 41 35 35 32 33 35 32 30 30 31 29 33 32 36 37 37 34 32 30 31 35 36 35 31 33 32 31 28 27 22
55 53 51 49 48 47 46 45 45 45 45 45 43 39 45 46 39 39 36 33 36 34 36 33 31 30 32 33 32 32 34 35 38 34 30 31 31 30 34 36 36 33 30 30 27 27 26
55 52 51 49 48 47 46 46 46 45 44 41 41 39 46 44 32 34 35 34 35 33 33 31 30 31 30 32 30 31 33 35 39 35 31 32 30 28 30 31 32 31 32 31 31 32 30
54 52 50 48 47 46 46 46 45 43 45 42 40 36 42 43 40 35 34 32 31 35 33 30 29 30 28 28 30 31 31 36 39 37 38 35 29 28 24 25 29 30 29 30 31 32 26
54 52 49 48 47 46 46 46 44 41 47 40 37 36 35 34 35 35 35 33 30 31 32 31 29 29 28 29 29 30 32 34 35 40 37 34 33 31 26 29 32 32 29 29 31 30 29
53 51 49 47 46 46 46 46 43 44 43 34 31 34 34 34 34 34 33 33 32 33 32 30 28 29 28 27 28 29 31 32 33 34 36 34 32 29 28 28 29 29 30 31 30 29 29
53 50 49 47 46 47 46 46 42 43 37 32 34 36 35 30 31 32 31 31 33 34 35 34 32 31 30 31 33 30 32 32 32 34 34 35 32 30 28 25 25 23 24 27 30 31 30
52 50 48 47 47 46 46 44 42 41 35 32 34 37 31 25 29 31 25 24 31 32 34 36 37 33 38 39 32 32 31 31 32 31 32 31 31 30 28 25 21 21 22 26 25 26 28
51 49 48 47 47 46 46 44 42 42 39 35 35 27 27 24 25 22 23 27 30 33 35 38 39 37 37 34 30 28 29 29 29 30 30 31 30 28 26 23 21 22 28 27 25 27 29
51 50 48 47 46 46 46 45 42 42 40 37 36 33 24 22 21 23 23 25 27 28 33 33 36 35 39 35 32 27 23 24 26 29 31 28 28 27 25 20 15 22 27 31 30 25 31
51 49 47 47 47 46 45 45 44 42 41 39 37 36 31 26 28 26 21 21 25 23 28 32 27 37 39 34 34 28 24 25 23 25 29 31 30 28 25 22 21 24 24 30 25 28 33
50 49 48 46 46 46 45 45 44 43 41 38 38 38 32 29 30 30 30 26 26 25 26 26 34 36 36 34 31 29 26 25 24 24 27 26 28 27 27 25 21 27 31 29 31 32 34
50 49 48 47 46 45 45 44 44 43 41 39 37 39 36 33 31 33 32 33 32 31 28 28 32 34 35 34 33 31 26 25 24 22 27 24 26 25 26 24 27 29 30 31 33 34 34

GFSGBSN_sfc_dewp_069.txt.gz
Dewpoint
58 56 54 53 53 52 51 51 50 51 50 50 51 51 49 50 52 50 48 48 49 48 48 49 49 49 42 31 28 39 44 51 49 51 49 48 45 42 36 42 48 45 41 41 47 41 39
59 57 55 53 52 52 51 51 51 51 51 51 51 51 50 49 50 51 49 48 49 49 49 49 49 49 39 28 33 39 39 45 49 50 48 49 45 40 34 38 44 45 44 43 49 42 40
60 58 56 54 53 52 51 51 51 51 51 51 51 51 50 50 49 50 51 49 49 50 49 49 48 42 38 30 34 41 41 43 48 48 46 48 51 43 35 36 43 42 41 41 43 48 38
61 59 57 55 53 52 51 51 50 51 51 51 51 51 50 50 48 49 50 51 50 50 50 47 47 40 34 36 38 39 40 41 47 50 48 50 51 47 37 38 42 42 41 38 43 41 41
62 60 58 56 54 52 51 51 51 51 51 51 51 50 50 50 49 49 49 50 51 50 49 47 43 39 31 40 38 42 41 38 45 49 49 48 49 41 41 38 36 40 37 39 38 43 42
63 61 59 56 54 52 52 51 50 50 49 49 50 50 49 49 49 49 49 50 48 47 45 41 39 39 36 36 42 43 42 41 42 47 45 44 44 40 36 33 26 26 29 32 32 41 41
63 61 59 57 55 53 52 51 50 50 50 49 50 49 48 49 48 49 47 42 36 36 37 35 35 35 37 43 45 40 41 41 43 42 37 40 39 35 30 29 23 24 24 24 32 37 38
63 62 59 57 54 53 52 51 50 50 49 49 49 48 48 48 48 49 46 37 37 40 33 36 37 38 42 45 38 40 44 36 37 38 38 38 36 32 29 29 28 23 24 24 29 35 35
63 62 59 58 55 53 51 51 50 50 49 48 48 48 48 48 48 47 42 35 42 40 36 34 38 38 42 44 37 39 42 38 38 38 37 36 36 34 31 30 28 25 24 25 28 34 36
63 62 59 57 55 53 51 51 50 49 48 49 48 47 48 47 46 43 38 39 43 42 36 31 34 38 40 41 37 45 45 40 39 36 37 38 37 35 31 28 26 25 26 28 30 32 26
62 62 59 57 55 52 51 50 49 49 48 47 47 46 48 47 44 39 41 41 42 41 26 33 35 40 39 39 39 39 45 37 33 36 39 37 35 33 30 28 28 29 33 32 32 29 23
62 62 59 57 54 52 51 50 49 48 48 47 47 47 48 45 45 43 42 42 42 33 24 33 35 34 33 35 37 40 39 41 38 35 37 37 40 37 33 33 32 33 31 30 29 25 26
62 61 59 56 53 52 50 50 48 48 47 47 48 48 47 45 42 44 43 41 33 31 30 32 30 33 32 31 34 37 35 34 31 32 33 36 37 38 38 33 33 30 27 27 24 27 22
61 60 58 56 53 51 50 49 48 47 46 46 48 47 47 45 45 44 44 35 30 29 30 33 31 35 36 33 34 35 33 33 36 37 36 34 31 36 38 31 28 30 24 23 17 18 18
61 59 58 55 53 51 50 49 48 47 46 46 48 47 46 46 45 46 38 33 34 32 30 30 32 35 33 35 34 36 34 31 33 36 33 31 33 39 39 38 35 29 30 27 24 20 21
60 59 57 54 52 51 50 48 47 47 46 47 44 43 43 47 46 45 37 33 34 32 33 31 27 31 30 31 31 34 32 33 32 37 33 30 30 35 39 38 36 33 29 27 31 23 12
56 58 57 54 52 51 49 48 47 47 45 48 43 39 45 47 46 42 35 37 33 35 35 33 27 27 27 30 32 31 34 36 34 35 32 32 30 33 36 34 31 32 30 29 27 26 21
55 58 56 54 52 50 49 48 47 47 47 46 42 38 45 46 40 39 34 34 36 35 35 33 32 30 28 30 31 30 34 35 36 33 29 30 33 31 31 34 36 35 29 28 25 25 23
54 58 56 54 51 50 48 47 47 47 48 43 39 39 46 45 33 33 35 34 35 33 32 31 31 31 31 30 29 31 36 36 38 34 30 31 31 30 32 31 32 32 29 30 28 30 31
55 57 55 53 51 49 48 47 47 47 46 44 39 36 41 42 38 34 33 31 32 36 32 30 30 31 30 30 30 31 33 37 38 36 38 35 29 29 25 26 29 29 28 29 30 33 26
52 56 54 53 50 49 47 47 47 46 45 44 38 36 36 35 33 33 35 32 30 31 33 31 29 30 29 28 29 30 33 37 38 39 36 34 33 31 26 30 30 31 29 28 31 29 29
51 55 54 52 50 48 47 47 46 44 47 40 33 33 35 33 34 33 34 32 30 32 30 29 27 28 29 28 29 29 32 33 33 37 35 35 33 30 30 28 28 29 29 29 28 27 27
52 54 53 51 49 48 47 47 45 48 45 35 34 36 34 33 33 32 30 30 31 33 35 33 30 29 29 32 32 31 32 31 32 34 34 34 32 31 29 25 25 23 24 26 28 29 28
54 54 52 50 49 47 47 47 44 49 43 32 33 34 29 25 29 30 30 31 32 34 33 36 35 32 38 38 32 31 31 31 32 33 34 33 33 33 30 26 22 23 23 23 23 25 25
49 52 52 49 48 48 47 45 44 47 41 33 36 33 28 22 26 28 27 29 31 34 35 37 38 37 39 34 30 29 29 29 29 30 31 32 31 30 28 25 21 20 27 26 24 26 29
50 53 51 49 48 48 46 44 44 43 41 36 35 34 26 24 25 26 28 29 30 31 34 35 36 39 39 34 32 25 24 24 26 29 31 29 30 28 25 22 15 23 27 29 29 25 31
53 52 50 49 48 48 45 44 44 43 41 38 37 38 31 25 27 24 25 27 26 28 30 34 32 38 40 34 30 25 24 24 22 23 27 29 29 27 26 23 21 23 24 29 23 29 31
52 51 50 49 48 47 46 44 43 43 41 39 38 39 34 28 30 30 29 25 25 25 28 28 35 36 37 33 30 28 24 23 22 24 26 26 26 26 26 27 21 29 30 27 31 32 33
51 50 50 49 48 47 46 45 44 42 41 40 36 35 35 32 31 31 30 31 32 31 27 32 34 35 35 35 34 30 25 25 22 20 27 22 26 26 24 27 28 30 29 33 34 32 32

GFSGBSN_sfc_dewp_072.txt.gz
Dewpoint
61 61 59 56 54 53 53 52 52 52 51 52 52 52 52 51 49 50 52 49 48 48 48 49 49 50 45 34 30 39 44 51 50 48 44 46 45 45 42 40 45 44 44 45 48 43 42
63 62 61 57 55 54 53 52 52 52 52 52 51 52 51 51 51 49 51 51 49 49 49 49 49 49 41 31 32 38 39 43 47 47 44 47 45 45 42 37 43 42 47 46 49 46 45
63 63 62 59 56 55 53 52 52 51 52 52 51 51 51 51 51 49 49 51 51 49 49 50 48 44 38 33 33 39 38 43 47 46 44 49 48 48 43 36 45 44 43 48 47 47 47
63 63 63 60 58 55 54 53 52 51 51 52 52 51 51 50 50 49 49 50 50 51 50 50 48 42 35 38 38 39 39 40 47 48 47 47 48 48 46 39 42 42 42 40 46 46 44
63 64 64 61 58 56 55 53 52 51 51 50 50 50 50 49 49 49 47 50 50 51 49 49 44 41 33 39 39 42 41 38 45 47 46 45 48 45 42 39 38 42 35 37 38 45 46
63 63 63 61 59 57 55 53 52 51 51 50 50 50 49 48 49 47 50 50 49 48 46 42 40 38 38 38 44 43 42 41 43 44 43 42 45 42 40 36 31 36 34 35 34 40 44
63 63 63 62 60 57 55 53 52 51 51 50 50 49 49 48 47 47 49 45 40 37 37 35 34 35 40 44 45 41 41 40 44 41 36 39 38 37 36 34 29 37 35 34 36 38 39
62 63 63 62 60 58 55 54 52 51 51 50 48 49 49 47 47 49 47 40 39 40 34 36 36 40 42 42 37 39 41 37 39 36 38 39 35 35 33 32 29 25 29 33 37 38 34
60 62 62 62 60 58 56 54 52 51 50 49 49 48 48 48 48 47 43 36 43 40 36 34 38 38 41 42 35 37 41 39 38 36 38 36 38 35 34 30 27 27 25 33 35 40 38
58 59 62 62 60 58 56 54 52 51 50 49 48 48 46 48 46 44 39 40 44 43 35 32 34 37 41 40 38 43 46 40 40 38 37 38 39 35 36 32 27 24 26 29 31 32 30
57 57 60 62 60 58 56 53 52 50 49 48 47 47 46 48 45 40 42 42 43 43 24 33 34 40 39 36 38 39 45 40 37 37 37 37 37 36 31 29 30 31 33 31 33 32 27
56 57 57 61 60 58 56 53 51 50 49 48 47 48 48 46 46 44 44 44 44 32 19 33 34 34 33 35 36 40 39 41 39 36 39 38 40 41 40 34 32 34 32 31 30 29 26
55 55 57 57 59 58 55 53 51 50 48 46 47 48 48 44 43 46 44 43 33 28 31 31 30 31 30 31 34 36 34 34 33 31 33 37 38 39 39 33 35 32 29 26 23 23 22
54 54 56 55 59 57 55 52 51 49 48 46 47 48 47 44 46 46 45 37 27 30 30 30 31 34 31 30 31 33 31 32 36 36 34 33 30 37 38 34 31 30 27 26 17 20 21
54 54 54 54 59 57 55 52 50 49 48 47 48 47 46 47 46 47 40 31 33 32 29 29 31 31 30 32 33 34 35 31 33 37 32 33 32 38 39 38 36 31 29 29 26 20 22
51 53 54 54 58 56 55 53 50 49 48 48 46 44 45 47 47 45 38 32 34 33 31 30 30 33 27 30 29 33 31 33 33 36 35 32 30 36 38 39 37 36 30 25 29 18 14
51 53 52 53 57 56 54 52 50 49 48 48 45 40 46 47 47 41 33 34 33 33 35 32 29 29 29 29 29 31 31 35 34 35 33 31 30 34 36 35 32 33 30 30 28 25 21
48 48 52 53 54 55 53 52 50 49 47 47 44 39 46 47 39 39 34 35 36 34 36 34 33 31 28 31 30 29 32 35 35 35 30 32 33 28 31 34 36 35 30 28 26 24 24
46 48 51 52 55 54 52 52 50 49 48 45 40 41 46 45 33 32 34 34 35 34 34 32 31 32 32 30 29 32 34 38 37 34 32 31 31 28 27 30 32 32 32 32 29 31 26
46 48 50 51 55 53 51 51 50 49 49 47 39 35 41 42 38 34 32 30 33 38 33 31 31 32 31 30 31 31 33 37 39 36 40 36 31 29 28 27 30 29 29 30 31 28 28
46 47 49 50 54 52 51 50 50 49 49 46 41 37 36 33 33 33 34 31 29 31 34 32 30 31 30 30 30 30 33 36 38 39 37 34 30 27 27 30 31 31 29 28 28 30 27
44 47 47 49 54 52 50 50 50 49 48 44 36 36 37 34 33 32 33 32 28 31 31 30 29 30 30 33 30 30 33 33 35 36 36 35 30 29 26 29 28 28 30 29 29 29 28
43 46 46 53 53 51 50 49 50 49 47 41 37 38 36 35 33 31 31 31 30 34 36 33 30 29 30 33 32 31 32 32 33 35 35 34 32 28 26 26 26 23 26 27 29 29 28
44 46 46 48 52 51 49 49 49 48 47 39 36 37 34 29 31 31 31 33 32 34 33 35 35 32 38 38 33 32 31 31 33 33 33 34 33 31 26 24 15 25 23 25 26 27 29
44 46 46 47 49 50 50 49 47 48 49 38 38 37 32 27 29 30 30 32 33 36 36 36 38 36 39 35 30 29 29 29 30 31 31 32 36 31 26 24 24 21 26 26 25 25 29
44 45 46 48 49 50 49 49 46 49 46 38 38 37 32 27 25 28 29 32 31 33 35 36 36 40 39 34 32 26 24 24 27 29 31 30 31 29 26 21 18 26 28 29 29 26 32
44 44 46 50 51 49 49 48 45 48 46 40 38 39 36 28 28 28 28 29 29 30 32 35 36 38 39 34 31 27 26 25 25 24 27 28 28 26 27 24 25 26 27 31 21 30 33
44 44 49 51 49 49 48 46 45 47 43 41 38 40 37 30 30 31 31 27 27 27 31 29 35 36 36 32 31 28 26 24 22 27 26 25 26 26 27 25 21 29 28 26 31 33 33
43 45 46 49 49 48 47 46 45 43 42 42 36 36 36 33 31 31 30 30 31 31 30 34 34 34 37 35 33 32 25 25 23 22 27 24 27 29 26 27 30 30 33 32 31 30 29

GFSGBSN_sfc_dewp_075.txt.gz
Dewpoint
63 63 62 62 59 57 55 54 53 53 52 52 52 52 52 52 52 51 49 51 52 49 48 49 50 49 47 40 34 40 44 49 49 48 45 44 44 45 41 42 46 46 46 47 49 50 45
64 63 63 63 61 58 56 55 54 53 52 52 52 52 52 52 51 51 50 49 51 51 49 49 50 49 45 36 35 39 39 45 46 47 44 46 46 47 45 42 43 45 46 47 50 50 49
63 63 63 63 63 59 57 55 54 53 52 52 52 52 51 51 51 50 49 48 50 51 51 49 50 45 42 38 35 41 40 46 46 47 43 47 47 47 47 41 44 45 42 46 49 48 48
63 63 63 63 63 60 58 56 55 53 52 51 50 50 50 51 50 49 48 48 49 50 50 51 49 45 37 41 40 42 42 46 47 48 47 46 45 47 46 45 44 42 41 37 44 47 47
61 62 63 63 63 61 58 56 55 53 52 51 51 50 51 50 48 48 47 47 50 50 51 49 46 43 36 41 41 44 44 41 46 47 47 45 45 45 44 41 39 39 34 35 38 48 47
58 61 61 62 62 62 60 58 56 54 52 52 51 50 50 49 48 48 48 49 50 50 46 44 43 40 39 40 44 44 43 42 43 44 44 44 44 41 41 39 32 35 34 35 35 43 45
55 57 59 60 62 62 61 59 57 54 53 51 51 50 49 49 47 47 48 45 39 38 38 36 36 36 42 44 45 41 42 42 42 41 37 39 36 36 37 38 34 36 36 34 36 43 41
55 55 56 58 58 61 61 59 57 55 53 51 51 49 48 48 47 48 47 42 39 39 34 38 38 41 43 42 37 40 43 39 39 36 38 37 35 38 39 38 36 36 36 37 39 40 39
51 54 55 56 58 59 61 59 57 55 53 51 50 49 48 46 48 47 44 42 43 41 36 36 39 39 40 44 36 38 41 40 39 36 37 34 35 38 38 37 34 34 33 36 36 41 41
50 52 54 55 56 57 60 59 57 55 53 52 49 48 48 46 45 45 40 42 42 41 31 33 37 39 42 42 37 44 44 42 39 37 38 38 39 36 37 36 31 26 33 35 37 36 31
49 50 53 54 56 56 57 59 57 55 53 51 49 47 47 47 45 41 42 41 41 41 12 34 36 42 42 37 39 39 45 42 37 39 38 37 39 37 36 35 33 32 34 36 36 35 30
48 49 52 54 55 56 56 59 57 54 53 51 49 47 48 46 46 45 42 42 42 26 9 30 36 36 35 37 39 39 42 42 41 38 40 40 43 40 38 36 34 35 30 32 33 29 22
49 49 50 52 54 55 55 57 56 54 52 50 48 48 48 45 43 44 42 41 30 15 30 28 33 33 32 32 34 36 36 35 33 30 33 36 37 40 39 33 33 31 28 24 23 20 21
48 48 48 50 53 55 54 56 55 54 51 49 47 49 48 44 46 44 43 35 18 28 30 31 30 33 30 32 32 34 34 31 35 34 31 29 27 38 39 36 31 30 27 24 19 20 21
46 48 47 49 51 54 54 56 55 53 51 48 49 46 46 46 46 45 41 23 29 28 29 29 32 28 31 33 33 34 33 32 33 37 30 30 31 37 39 39 35 30 26 28 24 21 21
46 46 46 48 50 51 53 56 54 52 50 49 45 45 45 47 46 44 36 29 30 34 31 30 30 30 28 31 30 32 30 32 33 37 35 33 30 35 37 39 36 33 30 23 24 15 13
44 45 47 47 48 51 52 54 53 51 51 50 44 40 46 47 46 41 31 31 32 34 36 32 33 32 29 29 30 28 30 34 35 35 32 32 30 34 35 33 32 32 29 29 26 25 20
45 45 47 47 48 49 52 52 52 50 49 49 43 38 46 46 37 38 30 33 37 34 36 35 33 32 29 30 30 29 31 34 35 34 30 35 30 31 30 34 36 35 32 28 24 21 22
43 44 47 47 46 50 50 52 52 50 50 46 40 41 46 45 29 31 32 35 36 35 35 34 32 32 32 31 30 34 34 37 36 34 31 31 28 27 30 29 32 32 33 33 29 29 22
42 44 46 45 45 49 50 53 52 49 49 47 39 35 41 42 38 33 31 33 34 37 35 31 31 32 31 29 31 32 33 37 38 37 40 36 31 25 21 25 30 29 31 32 30 21 27
44 45 45 45 44 48 48 52 51 50 49 47 40 35 36 33 33 33 33 31 33 33 35 31 30 31 30 29 30 31 33 37 38 40 36 34 29 25 28 29 31 30 29 30 29 30 27
45 45 45 45 45 47 49 52 51 50 49 44 37 36 35 33 33 31 33 31 27 32 32 31 29 30 32 32 30 31 32 33 35 36 35 35 27 28 25 28 28 27 29 30 29 29 30
45 45 45 45 45 47 53 51 51 50 49 42 38 37 34 35 32 31 31 32 30 34 35 32 30 30 32 32 31 31 33 34 36 35 35 34 29 25 21 26 24 22 25 28 29 29 29
44 44 44 45 45 47 51 51 50 50 47 38 36 37 33 31 32 31 32 33 33 34 34 37 36 34 37 38 34 32 31 33 34 35 36 34 31 29 23 23 16 23 23 26 28 29 30
44 43 44 45 45 47 47 51 50 49 49 38 37 35 30 29 31 31 32 34 34 37 36 37 36 36 38 35 30 29 29 29 30 31 31 37 37 33 23 20 23 21 24 23 21 25 30
42 43 43 44 45 46 48 50 50 49 48 38 37 36 31 29 25 26 30 32 32 32 34 35 37 40 38 34 31 24 23 25 27 28 30 31 34 30 26 19 19 23 28 29 29 27 33
43 43 43 44 46 49 50 50 49 49 48 39 37 38 32 27 29 28 28 30 30 32 32 34 36 36 37 32 29 26 23 27 25 24 27 27 28 28 26 22 24 27 28 30 19 22 33
42 42 44 44 49 51 50 50 48 47 48 38 37 39 33 30 30 31 31 29 27 30 31 31 33 34 33 29 29 27 26 25 24 26 27 26 25 24 25 22 20 26 27 24 30 31 31
42 42 44 44 45 49 49 49 47 47 46 40 34 34 34 32 29 31 31 31 31 32 32 33 31 32 35 31 30 30 26 24 21 23 27 24 26 25 26 26 29 33 30 29 30 29 30

GFSGBSN_sfc_dewp_078.txt.gz
Dewpoint
63 63 63 63 63 63 61 59 57 55 54 53 52 52 52 53 52 51 51 50 49 51 51 49 49 50 47 41 38 40 42 47 48 48 43 42 40 43 40 42 44 42 46 45 48 50 50
58 61 62 63 63 63 63 60 58 56 54 54 52 52 52 52 52 51 51 50 48 50 51 50 49 49 45 36 37 39 39 45 47 47 44 46 46 47 43 42 42 45 47 47 49 49 50
56 57 59 62 62 62 62 61 59 57 55 53 53 51 51 51 51 50 49 48 48 49 50 51 50 46 42 39 37 43 42 46 46 47 43 47 45 44 46 42 46 45 43 46 47 49 47
53 54 56 58 60 60 61 62 59 58 56 54 52 51 50 51 51 49 48 47 47 47 49 50 50 45 39 41 40 43 43 46 47 47 47 47 45 46 46 46 45 41 40 39 43 46 46
51 52 53 55 56 58 59 62 60 58 57 54 52 51 50 50 50 49 48 48 48 49 50 50 46 44 38 42 42 45 43 42 47 47 46 44 46 44 43 39 39 39 34 36 38 44 45
49 49 51 53 56 56 58 59 61 59 58 55 53 52 49 49 49 47 48 49 49 50 47 45 44 41 40 40 43 44 44 42 42 44 43 43 43 40 40 36 30 35 34 36 36 41 45
50 49 50 52 53 56 56 58 58 60 58 55 52 51 49 49 49 47 47 44 38 38 38 36 36 37 40 43 45 41 42 42 42 42 36 40 37 32 35 37 37 34 34 34 37 40 40
47 47 49 51 51 53 55 57 57 59 58 56 53 51 49 47 47 48 47 42 38 37 32 38 38 41 43 42 36 39 43 39 39 36 38 37 34 36 38 37 38 35 34 36 38 40 42
47 47 49 50 50 52 54 56 57 57 58 55 54 51 49 47 47 46 44 43 42 40 35 37 39 38 40 44 36 36 43 41 38 34 36 32 36 40 39 37 35 35 34 36 36 40 42
47 47 48 49 50 50 53 55 56 57 57 55 54 50 48 46 45 45 42 43 42 41 24 32 37 39 43 43 37 43 45 43 39 36 38 37 39 38 38 37 36 32 36 35 36 37 33
47 47 48 48 48 49 50 53 55 55 57 55 53 50 48 46 44 41 42 42 42 37 8 29 35 42 42 38 36 37 47 45 39 38 38 37 37 38 36 37 36 32 36 36 36 35 33
46 46 47 47 48 49 49 51 52 55 56 54 52 49 48 47 45 45 42 42 41 23 7 30 36 36 37 38 39 38 41 44 42 39 40 40 42 39 38 38 35 36 37 37 35 31 27
46 46 45 47 47 49 49 50 53 54 56 53 51 49 48 45 42 45 43 40 24 13 27 29 33 35 33 33 34 36 35 36 34 32 33 37 37 39 39 33 35 36 33 28 27 24 22
43 45 45 45 47 48 47 49 50 54 55 53 50 49 49 45 46 44 43 30 16 24 28 31 32 32 29 32 31 33 33 30 35 33 31 28 29 37 39 36 33 33 27 24 19 21 21
43 44 44 45 46 47 48 48 51 53 54 51 50 46 46 46 46 45 36 18 21 27 31 30 32 30 29 32 32 32 30 30 32 35 28 26 28 36 39 38 35 30 27 27 23 21 21
42 43 44 44 45 45 46 45 50 55 52 50 46 45 45 47 46 43 32 27 29 34 31 31 30 30 27 31 29 30 29 33 32 36 36 32 26 35 37 36 35 31 30 24 24 17 16
41 42 43 42 44 44 46 45 49 52 51 50 46 41 46 47 45 41 28 26 33 34 35 31 32 30 30 30 28 28 28 33 35 35 32 31 28 30 33 32 31 30 28 28 25 24 19
41 41 42 44 45 45 46 45 48 50 50 50 44 36 47 46 37 37 31 31 36 34 36 34 33 32 29 30 28 27 29 32 36 34 30 34 31 24 29 34 35 35 30 27 22 21 22
40 41 43 45 45 46 46 45 48 50 49 47 41 41 47 45 31 33 31 32 36 34 34 34 32 33 32 30 28 31 33 36 36 34 30 31 27 21 24 27 30 31 33 31 28 26 20
42 42 43 45 45 46 46 45 48 51 50 48 41 34 41 42 38 32 29 31 34 36 35 33 31 32 31 30 32 32 33 37 39 36 40 36 29 24 20 23 28 28 30 32 28 20 24
43 44 43 43 45 45 45 45 48 51 51 48 41 36 37 33 34 34 32 32 34 33 35 31 29 31 30 29 30 31 33 37 38 39 35 33 26 24 28 29 31 29 28 30 29 29 24
43 43 43 43 44 45 43 45 46 51 51 45 39 36 35 33 33 33 32 31 33 33 32 30 29 30 32 30 30 31 32 34 34 35 34 34 28 26 24 28 28 27 28 30 30 30 30
43 44 43 43 44 45 44 45 48 51 50 43 43 38 35 33 31 30 30 32 32 34 35 32 30 32 31 31 31 33 34 34 36 34 33 32 27 24 20 25 24 22 24 27 29 30 29
44 43 43 44 44 45 46 45 50 51 49 43 41 37 34 31 31 31 32 33 32 33 34 36 32 33 36 37 33 32 35 35 36 34 36 32 29 26 20 22 13 23 23 26 28 29 30
42 43 44 44 43 45 45 46 47 50 50 42 38 35 32 31 32 32 32 34 36 37 37 36 35 37 38 33 32 32 32 30 30 30 32 35 33 32 20 18 22 26 23 21 22 28 32
43 44 44 43 44 44 45 47 47 50 50 46 36 37 32 31 27 27 32 34 33 33 33 35 39 39 37 33 30 25 25 25 26 27 31 36 35 28 28 20 19 20 27 29 28 25 33
43 43 43 43 44 44 48 49 50 49 49 43 36 38 32 27 30 30 31 31 34 33 32 33 35 35 36 31 28 25 23 27 25 24 27 29 32 27 25 20 23 25 28 27 17 19 33
43 44 43 43 44 46 48 50 50 49 48 37 35 38 33 30 29 30 30 28 29 33 31 32 32 33 32 28 28 27 25 26 25 25 26 26 24 24 25 24 22 27 28 21 25 30 30
42 43 43 42 44 45 47 51 50 48 45 40 34 34 34 31 30 32 32 32 31 31 33 32 30 31 33 29 28 29 25 24 24 23 26 24 25 24 26 25 29 30 29 29 31 29 30

GFSGBSN_sfc_dewp_081.txt.gz
Dewpoint
55 56 57 58 58 58 61 61 61 61 59 58 55 54 53 53 53 52 51 51 50 49 50 52 49 49 46 41 39 40 43 44 48 49 44 42 39 38 38 40 43 41 41 43 45 49 49
52 53 54 55 56 57 57 59 60 62 60 59 56 54 53 53 52 51 50 49 50 49 50 51 51 49 44 35 38 39 39 43 47 46 44 43 41 43 41 41 40 41 42 41 44 48 49
50 50 51 52 53 54 55 56 58 59 60 59 57 54 53 52 51 52 50 48 49 49 50 50 50 48 42 37 38 43 44 46 46 46 43 45 45 44 44 41 44 43 40 39 45 47 46
49 50 50 50 51 52 54 56 57 58 61 60 58 56 53 51 52 51 50 49 47 47 48 49 50 44 39 42 40 43 43 44 47 47 46 46 48 45 45 45 44 40 40 35 43 46 46
49 48 48 50 49 50 52 54 55 55 57 58 58 56 54 52 51 50 48 48 48 48 49 49 46 44 37 43 41 45 45 41 43 46 46 45 45 43 44 39 36 38 32 34 40 44 43
47 47 48 50 50 50 50 52 54 56 56 57 58 56 54 52 50 50 48 49 49 49 47 46 44 41 41 39 43 43 44 42 40 43 43 43 42 38 38 36 29 34 33 34 37 43 41
46 47 48 49 49 50 50 50 52 54 56 57 58 56 54 51 49 49 47 44 37 38 38 36 36 37 39 42 44 42 42 42 41 41 36 39 35 33 36 35 36 35 32 35 39 41 39
46 46 49 49 49 50 50 49 50 53 55 56 58 55 53 50 49 48 47 41 37 36 30 36 37 38 43 41 35 39 44 38 38 35 38 36 32 35 38 36 36 36 35 36 39 40 40
46 46 47 48 49 50 49 49 49 51 53 55 57 55 52 51 47 47 44 42 42 40 33 36 38 38 40 42 35 36 42 40 38 34 36 33 37 38 37 36 36 34 32 34 35 39 41
46 45 46 46 45 47 47 48 49 49 52 53 56 54 52 50 45 45 43 44 42 39 23 29 36 38 42 42 36 41 43 42 38 33 36 37 39 38 37 35 36 33 36 35 36 35 33
44 46 45 46 46 46 47 47 48 48 50 50 52 54 51 49 45 42 41 42 42 33 9 27 35 42 42 38 36 41 47 44 38 37 36 35 36 37 35 38 37 34 37 36 36 35 36
43 43 43 43 44 46 47 47 48 49 50 51 54 53 51 48 46 45 42 42 39 23 9 28 36 35 36 38 38 39 43 45 42 39 40 38 42 41 39 39 38 37 37 37 36 35 29
42 41 43 43 44 45 47 47 49 49 49 51 52 52 50 46 42 45 43 38 25 17 27 27 32 35 33 32 34 36 35 35 35 32 33 37 37 39 39 36 37 38 34 28 27 26 26
42 41 42 43 43 44 46 46 46 49 49 49 49 52 49 46 46 44 42 30 21 21 28 30 32 32 28 32 30 32 32 29 35 33 28 29 29 36 39 36 37 35 32 27 22 22 21
42 41 41 41 42 43 44 45 47 48 49 47 52 49 47 48 45 44 34 21 20 25 29 31 31 28 28 32 32 30 29 30 32 33 26 27 29 36 38 38 36 35 30 27 23 21 21
40 42 42 41 41 42 43 44 45 47 49 52 46 45 45 48 46 42 32 27 27 31 32 31 27 28 25 28 28 27 29 33 31 36 34 30 26 34 36 36 36 30 29 25 26 19 16
41 41 42 42 43 43 42 43 44 46 47 51 46 41 47 47 45 40 27 25 31 34 33 30 30 29 28 29 28 27 28 32 34 35 33 31 28 28 31 32 31 29 28 27 25 24 18
40 41 43 44 44 43 43 43 44 45 45 48 44 34 47 47 37 36 29 30 35 34 36 33 33 32 30 30 27 27 29 30 35 34 31 33 29 24 28 33 35 33 30 26 21 20 21
40 41 44 44 44 43 44 44 44 45 44 45 39 39 47 46 32 32 31 32 34 34 34 33 32 33 30 29 25 29 31 36 36 34 31 31 27 18 22 26 30 30 32 29 27 25 20
40 41 43 44 44 45 44 44 45 44 46 46 40 33 40 42 39 31 29 30 33 36 34 33 32 32 31 29 32 28 34 37 37 35 39 34 28 22 19 21 28 28 31 31 27 20 23
41 43 44 43 43 44 46 45 45 45 47 47 41 35 38 32 35 34 30 31 29 33 35 31 30 32 33 31 30 29 35 36 37 38 35 31 25 23 27 29 30 29 29 31 27 27 23
42 43 43 43 44 44 45 45 44 46 47 45 38 36 38 35 35 33 31 31 31 33 31 29 29 32 31 30 30 30 31 34 33 35 34 33 27 25 23 28 27 26 27 29 30 30 28
43 43 43 44 44 44 45 44 46 45 48 43 43 43 38 34 33 31 31 31 32 33 34 31 30 32 31 31 32 33 34 34 35 34 33 30 27 23 19 25 23 21 24 26 29 30 30
43 43 43 43 44 44 44 45 45 46 48 44 42 41 37 31 31 31 31 32 34 33 33 35 33 32 34 33 33 33 35 35 35 34 35 30 27 25 18 22 13 22 24 26 27 28 29
43 43 43 44 44 44 45 44 46 49 49 43 41 38 34 30 31 31 32 33 36 36 36 35 35 36 36 35 34 32 33 32 30 30 33 33 31 27 19 17 21 24 23 21 23 26 32
43 44 44 44 44 44 45 45 48 48 48 44 40 38 33 31 27 28 32 35 34 34 32 35 38 39 35 32 32 27 25 25 26 29 33 35 33 26 28 19 19 21 26 28 27 22 33
44 44 44 44 44 44 43 46 49 50 48 43 38 38 33 28 28 29 31 33 35 33 31 33 34 35 35 30 27 25 22 27 24 25 28 31 32 29 25 21 23 25 28 25 18 18 33
44 43 44 44 44 44 44 46 49 50 47 42 37 37 33 29 29 30 30 28 32 33 31 33 33 33 32 29 27 26 24 26 24 25 25 26 25 25 27 26 19 28 29 21 23 31 32
43 44 44 44 44 44 46 47 50 50 46 40 33 35 34 31 30 32 32 32 31 31 34 31 29 31 32 28 28 28 25 23 24 22 25 24 26 25 26 24 28 30 29 31 30 29 29

GFSGBSN_sfc_dewp_084.txt.gz
Dewpoint
51 52 53 52 53 54 55 55 56 57 58 61 60 59 58 55 54 54 52 52 51 51 50 50 52 49 45 40 37 41 46 45 48 49 45 43 41 39 36 37 38 37 40 40 42 42 45
50 49 50 50 51 51 53 53 54 55 57 61 61 59 58 55 55 53 52 52 50 49 50 50 51 50 43 37 37 40 43 41 46 45 43 44 41 40 38 37 36 41 40 42 42 43 46
48 49 50 49 49 51 51 50 53 54 54 57 57 59 57 56 54 54 52 51 50 49 49 49 50 48 43 39 39 41 43 45 46 45 43 43 45 40 41 37 38 39 38 40 42 42 43
47 48 49 49 50 50 49 49 49 53 54 56 56 58 58 55 54 54 52 50 49 49 48 48 49 46 39 42 41 41 44 43 46 47 45 45 46 43 43 44 42 38 39 34 40 43 42
47 48 49 50 50 51 50 50 49 49 51 54 56 57 58 55 54 54 51 50 48 49 48 49 46 43 37 42 40 44 45 41 42 44 46 44 45 41 41 39 35 36 33 34 35 43 40
46 47 49 49 50 50 50 50 50 49 50 51 55 56 56 55 53 51 50 49 50 49 47 47 44 41 40 39 42 43 43 43 40 41 42 42 42 36 35 37 29 34 33 34 35 41 40
46 48 47 49 49 48 49 49 48 49 49 50 54 54 56 54 52 50 48 45 39 40 40 36 35 36 39 42 44 42 42 41 40 41 36 39 36 33 33 37 36 34 34 34 36 41 40
46 46 47 47 48 48 47 48 48 49 49 49 52 52 55 53 51 49 47 42 37 35 29 37 38 39 41 41 35 39 43 38 38 35 37 35 32 37 38 38 36 37 33 34 37 40 38
45 45 45 45 46 46 46 46 48 48 49 48 50 52 54 52 50 48 44 43 42 40 33 35 38 37 39 41 35 39 41 39 38 35 35 33 34 38 37 36 36 36 33 34 34 37 40
43 44 45 43 45 45 44 44 46 46 47 49 49 51 53 51 44 45 43 44 43 39 24 28 35 37 42 41 37 40 43 40 39 34 35 36 38 36 36 35 36 35 36 36 36 34 32
43 42 43 42 42 44 44 44 45 45 47 49 50 50 52 48 46 44 42 43 42 33 11 26 35 42 42 37 36 41 46 44 38 36 35 35 37 36 34 34 37 36 37 36 35 35 35
44 44 43 42 42 42 43 43 44 45 47 48 49 48 51 49 47 45 43 42 38 25 13 28 35 35 36 37 38 41 44 46 43 38 37 37 41 40 39 40 39 38 36 36 36 35 29
44 44 43 43 42 42 42 42 43 45 46 46 47 49 48 48 42 46 44 38 24 20 26 27 32 34 33 32 32 36 35 36 35 32 32 34 37 39 40 37 38 37 33 29 27 26 26
43 42 42 42 42 42 42 42 42 43 44 47 48 50 48 46 47 44 41 31 19 21 26 30 33 31 28 32 29 32 32 30 35 32 29 29 30 37 39 37 36 35 33 27 21 22 25
42 41 42 42 43 44 44 43 43 46 46 46 47 49 48 48 47 45 37 27 20 25 29 30 30 27 28 31 30 29 28 30 32 32 26 26 32 37 39 38 37 35 29 28 23 22 20
43 43 42 41 44 45 45 44 44 45 46 46 42 45 44 49 48 44 35 28 26 28 32 30 25 27 25 27 27 27 28 32 32 35 32 28 28 34 36 38 38 35 31 26 27 19 15
43 43 42 41 43 44 45 45 44 44 45 46 43 40 46 48 47 39 31 29 29 33 32 28 29 28 25 27 27 26 27 32 34 33 32 30 27 28 31 33 32 29 27 26 26 24 19
40 41 41 41 43 44 45 44 45 45 45 44 40 33 47 48 36 37 33 30 33 33 35 32 33 31 28 29 26 26 27 30 36 34 30 31 28 27 28 33 33 34 29 24 21 20 19
40 41 41 42 44 44 44 43 44 45 45 43 37 37 47 46 32 34 33 31 33 34 33 32 32 32 30 28 25 29 32 36 35 33 30 29 26 18 22 25 29 30 32 28 25 24 20
40 41 42 43 44 44 44 44 44 45 44 44 37 33 39 41 39 35 33 32 31 35 34 33 32 32 30 28 30 28 32 37 36 36 38 32 26 22 18 22 28 28 30 29 26 18 22
40 41 43 43 44 44 44 44 45 45 45 44 38 35 38 32 35 35 34 30 32 33 34 31 30 32 32 28 29 29 34 35 36 37 35 30 25 23 27 29 29 29 29 29 25 25 22
39 41 43 44 43 44 44 44 45 45 45 41 37 36 38 35 36 34 33 29 29 33 33 29 31 33 32 30 29 29 32 32 31 34 31 31 26 25 24 26 26 26 28 29 30 29 27
40 42 44 43 44 44 44 45 44 45 45 42 43 43 39 35 35 33 30 30 31 34 34 31 31 31 31 31 32 33 34 35 35 32 31 29 26 23 19 24 23 21 24 26 28 29 30
40 43 43 44 44 44 45 44 46 44 46 45 42 42 37 32 33 32 31 32 32 33 33 34 32 32 33 34 34 34 34 33 34 33 34 29 26 24 17 21 11 21 25 26 27 29 30
42 43 43 44 44 44 45 45 44 46 49 43 42 40 37 31 31 31 31 31 35 36 35 34 35 35 35 36 33 32 33 32 30 31 33 32 30 27 18 16 20 23 24 24 24 21 31
42 42 43 43 45 45 45 44 44 48 47 42 40 39 34 31 29 28 30 34 34 32 33 36 38 39 34 33 31 27 25 25 25 28 35 32 31 27 26 18 17 19 26 27 26 19 31
42 43 44 44 44 45 45 44 47 48 47 42 39 38 32 28 28 28 31 33 34 33 31 33 36 35 34 30 29 24 21 25 24 24 27 30 31 29 28 22 23 26 27 25 18 17 32
42 43 44 44 45 44 44 46 48 49 45 41 36 37 32 28 29 30 30 30 34 33 31 33 34 34 32 29 28 26 24 25 23 23 25 25 23 25 28 26 17 28 28 22 23 30 32
42 42 44 46 46 45 46 49 49 48 44 40 34 35 34 31 29 32 32 32 31 31 33 31 29 30 32 28 27 27 25 23 22 21 24 23 25 24 25 23 27 29 28 30 31 30 29

GFSGBSN_sfc_dewp_087.txt.gz
Dewpoint
50 50 50 50 50 51 51 51 51 53 55 55 57 60 60 59 57 55 55 53 52 51 50 51 50 52 44 39 37 40 46 43 48 48 45 43 40 39 36 36 36 35 32 37 41 39 39
49 50 50 50 50 51 51 50 51 51 52 55 55 57 56 59 56 55 53 53 52 51 50 50 50 50 43 38 38 39 43 42 44 44 43 43 40 39 39 38 38 36 34 32 33 40 41
49 49 48 49 50 50 50 51 51 50 51 51 54 55 56 57 57 55 53 53 52 50 49 49 48 48 43 39 39 40 41 43 46 44 42 42 43 40 39 36 37 36 33 34 34 41 41
47 48 47 49 49 49 49 50 49 50 49 51 50 53 55 56 57 54 53 52 50 48 48 48 49 47 41 42 42 40 43 42 46 46 45 45 45 42 39 38 38 35 34 32 38 41 42
47 48 48 49 49 49 49 48 49 48 50 49 51 51 53 54 56 54 52 51 49 48 49 49 47 44 37 43 41 43 45 42 42 42 46 44 44 39 40 36 33 33 28 34 36 42 42
46 48 47 47 47 47 49 48 47 48 49 49 49 50 52 55 55 53 50 49 49 49 48 47 44 39 39 38 42 42 43 43 41 41 41 42 41 38 37 34 28 30 32 34 34 40 40
45 46 47 47 46 47 46 47 47 48 48 48 48 49 51 56 54 51 48 45 42 42 43 38 38 37 38 42 44 41 42 40 40 40 35 39 35 33 35 36 37 33 34 34 36 41 38
44 44 43 44 44 44 45 45 45 46 47 47 46 49 50 54 52 50 48 42 39 36 32 40 39 39 39 41 34 39 43 38 38 34 36 36 33 34 37 37 37 35 33 35 39 40 37
45 46 45 44 43 43 42 44 43 44 45 44 46 48 49 51 51 49 46 42 43 40 32 34 37 36 39 40 35 39 40 38 35 35 34 34 33 38 36 36 35 34 33 34 34 37 39
44 45 44 45 44 44 44 43 42 43 44 44 45 46 47 49 45 45 43 45 44 39 26 30 36 37 42 41 37 40 42 40 38 35 33 36 37 36 36 36 36 31 36 35 35 33 30
44 44 44 45 44 42 42 42 42 42 45 46 44 45 47 48 45 44 44 44 42 35 19 30 36 42 42 36 35 42 44 42 35 36 37 35 37 34 32 34 36 35 38 36 35 34 34
46 45 44 42 43 43 44 45 45 44 44 46 46 44 46 45 47 46 44 42 38 27 19 30 36 36 37 38 37 42 43 45 43 38 38 38 41 39 38 38 39 38 36 35 35 34 28
46 45 45 44 43 41 44 45 45 44 44 44 44 44 45 45 43 48 44 38 29 23 28 29 33 35 33 32 33 36 36 37 35 31 32 34 37 41 40 38 39 36 33 27 24 25 26
45 43 44 44 43 43 43 45 45 45 44 44 45 45 43 42 47 47 43 35 22 24 27 31 33 32 29 31 30 32 32 33 37 34 31 30 30 37 39 37 36 34 32 26 21 22 26
45 43 42 43 43 43 44 44 45 45 44 45 46 43 41 47 48 46 38 27 25 27 30 31 30 27 28 31 30 29 31 30 31 33 28 28 32 38 38 38 37 34 30 29 23 22 23
45 42 42 42 42 43 44 44 45 45 45 45 43 40 42 48 47 44 35 29 29 30 32 30 24 26 25 28 27 28 29 32 32 35 32 30 30 34 37 38 38 35 32 25 27 19 16
44 41 41 42 43 44 44 45 45 44 45 46 41 35 46 48 46 38 30 27 30 33 33 27 27 26 25 27 26 26 28 31 34 33 31 29 28 31 34 34 33 31 28 26 26 24 19
43 41 41 42 43 44 45 45 45 45 46 43 40 32 45 47 34 35 33 30 34 34 35 32 31 30 26 29 26 26 28 30 36 33 30 32 28 28 30 33 33 34 30 24 24 22 20
41 40 41 41 43 44 45 45 45 45 46 43 36 36 46 45 31 32 35 33 33 35 34 32 32 32 30 28 25 29 32 36 35 33 31 29 26 20 22 25 29 30 31 27 25 24 21
40 40 41 41 43 44 45 45 44 45 46 43 37 31 38 40 39 35 34 34 33 36 34 33 32 31 29 28 29 29 32 36 36 37 37 31 25 22 18 22 28 29 31 28 25 21 22
40 40 41 43 44 44 44 45 45 46 47 42 37 34 38 33 34 35 35 34 33 32 34 31 30 31 29 28 28 30 34 34 36 37 34 29 26 24 27 28 29 29 30 30 26 24 21
39 40 41 44 44 44 45 45 45 45 45 41 35 36 37 36 37 35 34 33 31 33 33 29 30 33 31 28 29 29 32 31 30 33 32 30 27 25 24 26 25 26 28 30 30 28 27
39 41 42 44 44 44 44 44 45 45 44 40 42 42 39 35 34 34 34 30 31 32 33 31 32 31 31 31 32 32 34 34 34 32 31 29 27 24 21 23 23 21 23 28 29 30 29
40 41 43 44 43 44 44 45 44 45 44 44 43 42 37 32 35 35 32 31 31 34 32 34 33 31 32 35 35 34 33 33 33 33 32 28 26 24 19 20 12 21 25 26 27 28 30
40 42 43 43 44 45 45 45 45 43 45 44 43 41 38 32 34 30 31 30 36 35 34 35 36 35 35 34 32 29 30 29 30 34 33 31 29 25 20 17 19 22 24 23 23 21 29
41 43 42 43 44 46 46 44 44 47 47 40 41 40 36 31 28 29 31 31 34 35 32 36 38 37 35 33 29 25 23 24 24 29 35 31 30 26 25 19 17 19 24 25 25 19 31
43 43 43 43 45 46 44 47 47 47 44 42 38 38 32 28 27 27 31 33 34 34 32 33 34 34 34 31 28 24 21 24 23 24 29 31 31 27 26 22 23 25 26 26 18 16 33
43 43 43 44 45 45 45 47 48 48 44 40 36 36 32 28 28 29 30 30 33 33 31 33 35 34 33 32 29 25 23 25 23 23 26 26 23 24 27 22 16 27 28 23 24 32 33
43 43 43 46 47 46 47 50 49 48 45 39 33 35 34 30 29 31 32 32 30 30 34 31 31 30 33 28 27 27 25 23 22 20 24 24 24 23 24 23 25 29 28 30 31 32 31

GFSGBSN_sfc_dewp_090.txt.gz
Dewpoint
49 49 50 50 51 51 51 52 52 51 51 51 52 53 55 57 56 59 56 55 52 52 51 49 49 51 45 39 37 38 44 43 45 43 38 35 36 35 33 32 33 34 33 31 29 27 29
50 49 49 48 50 50 49 49 50 50 50 51 51 50 52 55 55 58 56 53 53 52 50 49 48 51 43 39 39 39 41 41 40 41 38 38 35 36 36 35 37 34 34 33 30 31 33
49 49 49 48 49 50 50 50 49 49 50 50 50 50 50 52 53 56 56 54 52 50 48 49 48 48 44 40 40 38 40 39 40 41 38 38 38 38 36 34 37 39 37 34 31 31 35
47 47 48 48 48 48 48 48 48 48 49 50 51 49 50 50 52 55 55 54 51 49 48 49 48 46 38 42 42 41 40 41 44 43 43 41 41 40 38 38 37 37 34 31 32 32 33
47 45 46 47 48 48 47 47 47 47 49 48 48 47 49 50 52 56 54 53 50 49 49 48 47 41 37 43 41 42 43 40 41 42 43 41 44 39 39 34 34 36 29 29 30 37 35
48 48 46 45 45 46 45 46 47 47 47 47 46 47 49 50 54 55 53 50 49 48 49 47 44 39 39 35 41 41 42 42 41 40 40 40 41 37 37 35 25 29 26 30 28 35 38
48 47 47 47 47 45 45 44 44 45 45 47 45 46 46 49 54 53 49 47 44 43 43 37 37 37 35 41 42 40 40 40 39 38 34 39 36 32 36 36 33 33 26 35 32 37 37
48 47 46 47 46 47 46 45 44 43 43 44 44 44 46 47 50 51 48 41 40 37 34 40 38 39 39 41 35 37 41 38 38 33 35 35 32 32 36 37 35 34 29 32 36 38 35
47 47 46 45 45 45 44 43 44 45 44 42 42 43 45 46 48 50 46 43 44 40 31 33 38 37 36 39 35 37 40 38 34 32 34 35 31 38 38 36 35 33 28 33 35 38 37
47 47 47 47 46 44 44 43 45 46 46 45 42 42 45 45 44 45 43 45 45 41 33 31 35 37 41 40 37 40 41 38 36 34 32 36 34 34 37 36 35 30 34 34 34 35 31
46 46 46 45 45 45 45 43 45 45 45 45 43 43 45 44 43 43 45 46 45 39 24 33 36 42 41 37 37 40 43 40 35 33 35 32 33 32 32 32 36 33 36 36 35 33 32
47 46 46 44 44 45 45 44 45 45 45 45 44 44 45 43 43 46 47 45 40 31 22 32 37 37 37 38 36 43 43 44 42 39 37 37 41 40 38 38 38 37 35 34 34 33 30
48 47 45 44 41 44 44 44 44 45 45 45 45 45 44 42 38 49 47 41 32 27 27 32 32 35 33 33 34 38 37 38 36 33 33 35 37 40 42 38 38 35 31 30 28 30 27
50 48 45 43 42 43 44 44 45 45 45 45 45 45 44 41 42 47 45 35 27 25 24 31 33 33 29 31 30 32 33 34 35 34 34 34 31 37 39 37 36 33 32 28 20 23 27
50 48 46 42 42 43 44 44 45 45 45 45 47 45 43 42 43 46 38 31 31 25 29 32 31 27 28 31 29 30 32 31 33 35 31 32 32 38 39 38 37 33 30 29 24 24 23
49 48 45 41 42 44 44 45 45 45 45 46 44 41 39 43 45 42 35 32 29 31 32 31 24 26 24 27 27 29 30 32 33 33 34 31 31 36 37 37 37 33 32 27 29 22 19
48 48 42 41 42 43 44 45 46 45 46 46 42 36 42 47 46 38 32 35 32 33 34 29 26 25 24 26 27 26 29 33 35 33 31 30 30 33 35 34 33 32 28 26 26 24 20
48 47 40 41 42 44 45 46 46 46 46 44 40 32 43 47 34 35 32 33 36 35 34 33 30 27 26 28 26 27 28 32 36 33 30 31 31 31 31 33 32 33 30 25 23 22 21
47 41 40 41 43 44 45 45 45 46 46 43 36 35 44 45 33 35 36 35 37 35 35 32 32 31 30 26 25 30 32 36 35 34 31 30 29 29 27 27 30 30 29 27 25 26 24
44 40 40 42 43 45 45 45 45 46 46 44 37 33 37 39 39 33 35 34 34 37 36 33 32 30 28 29 30 31 33 36 37 36 37 31 27 26 23 26 30 28 30 29 27 32 19
41 40 41 43 44 44 45 45 45 46 46 43 37 35 37 34 36 36 36 35 34 33 35 32 32 30 27 28 29 31 34 34 35 36 34 30 30 30 27 27 29 29 29 29 30 25 24
40 40 42 43 44 44 45 45 45 45 45 42 36 36 37 36 36 36 35 34 34 32 33 31 31 31 29 27 29 29 32 31 31 33 32 31 32 28 28 26 26 26 28 30 30 26 27
40 41 42 44 43 44 45 46 46 45 45 41 42 42 39 35 35 35 35 33 31 33 33 32 33 31 31 32 32 33 34 34 34 32 30 31 31 30 26 25 24 22 24 28 30 30 29
40 42 43 42 43 45 46 46 46 45 44 44 43 42 37 30 33 33 33 33 31 35 32 34 34 32 33 36 35 34 34 34 33 33 31 29 29 30 29 26 23 23 25 26 27 28 31
41 43 42 43 44 45 46 45 45 46 47 47 44 42 39 34 35 34 32 31 32 35 35 36 37 36 36 35 32 29 29 27 30 34 32 30 30 29 28 23 21 23 25 24 24 22 27
41 43 43 43 44 46 46 45 47 47 47 45 44 41 37 32 29 29 31 31 33 34 35 36 37 37 36 32 30 26 23 26 25 29 34 30 29 27 27 22 16 20 24 25 25 19 30
42 43 43 43 45 46 46 47 49 47 46 43 39 39 34 30 30 30 32 32 35 37 35 35 35 35 37 34 29 25 26 27 24 24 27 29 29 26 24 23 22 25 28 27 19 18 33
42 43 43 44 45 46 47 50 49 48 43 41 37 37 34 30 30 31 30 32 34 35 33 36 36 36 37 35 30 26 24 26 26 27 29 27 25 24 23 23 21 27 28 23 25 30 33
42 44 44 44 46 47 50 49 49 47 43 39 34 35 34 33 31 32 32 32 32 31 35 34 34 35 36 36 30 28 25 26 25 21 28 26 25 23 25 23 26 29 29 29 30 32 33

GFSGBSN_sfc_dewp_093.txt.gz
Dewpoint
50 50 50 49 50 50 50 50 50 49 49 51 51 51 50 51 52 54 55 58 56 53 52 50 49 52 46 40 37 38 45 44 45 43 36 33 32 31 29 26 27 30 30 30 30 31 30
49 48 49 49 49 49 47 48 49 49 49 51 50 50 49 51 51 51 53 58 56 54 52 50 50 52 43 37 38 38 37 38 38 40 36 36 34 31 30 31 32 31 34 34 34 32 31
49 48 47 48 47 48 48 48 47 48 47 49 49 48 49 48 51 51 52 55 54 53 51 49 49 47 42 38 38 39 38 37 37 38 37 36 36 33 30 30 30 34 35 36 36 33 31
49 49 48 47 46 46 46 46 46 47 48 48 48 47 47 47 48 51 53 55 54 52 49 49 49 45 39 40 41 40 39 39 40 40 39 38 39 36 34 32 34 31 32 32 31 32 30
48 48 48 48 48 47 48 47 46 45 46 46 47 47 46 47 48 52 55 55 53 51 50 50 45 43 35 44 40 39 40 38 38 41 41 39 40 37 38 35 33 34 30 30 27 33 30
49 49 49 48 48 48 48 47 46 46 45 45 45 45 45 45 48 54 54 52 51 50 48 45 45 40 37 35 39 41 39 40 38 37 37 37 38 37 37 34 26 30 30 28 26 30 35
49 48 48 48 47 47 46 45 46 44 45 46 45 44 43 44 46 50 50 50 43 43 45 39 38 35 36 41 41 39 39 40 38 37 31 36 36 33 34 33 33 32 30 31 29 32 34
48 48 48 48 48 47 46 45 44 44 46 46 46 45 43 44 45 47 49 43 43 40 36 40 37 38 38 39 35 37 39 37 36 34 35 34 32 29 37 37 36 33 29 28 37 36 36
49 49 47 47 47 46 45 46 46 45 45 46 46 46 43 44 46 46 46 44 48 43 34 33 38 36 37 39 34 36 39 37 35 31 30 31 31 35 35 36 35 32 29 33 34 35 36
50 49 48 48 47 45 43 45 46 45 45 45 46 46 44 45 41 40 40 45 49 44 34 32 34 35 39 38 35 40 40 37 34 32 31 31 32 32 36 36 36 31 31 35 34 35 31
53 52 51 50 48 45 43 44 45 45 45 45 45 45 45 44 40 38 45 47 45 39 25 33 35 41 40 36 39 39 41 39 34 32 34 33 33 31 31 35 35 33 32 38 36 33 35
55 54 51 49 48 43 43 45 45 45 45 45 45 45 45 39 40 39 46 47 41 32 25 32 37 37 36 36 36 42 42 42 42 38 38 36 40 38 35 36 36 36 36 36 36 33 31
55 55 50 47 46 43 44 44 45 45 45 45 45 45 44 40 36 45 48 42 31 27 29 31 32 34 32 34 35 38 39 38 36 33 33 36 36 39 41 37 39 38 34 30 30 30 26
55 51 48 47 44 44 44 44 45 45 46 46 46 46 45 40 41 42 44 34 27 27 26 30 31 31 29 31 30 33 32 35 36 35 35 34 31 37 39 38 37 37 31 30 24 25 23
50 48 46 44 44 43 43 44 45 46 46 46 47 45 43 44 43 44 37 29 32 28 29 29 30 28 28 29 30 31 36 36 36 37 34 34 33 38 38 37 36 31 30 28 26 24 22
48 47 46 43 43 43 45 45 46 46 46 47 44 41 39 42 43 43 34 33 30 33 31 29 24 25 23 26 28 31 32 33 32 32 33 31 32 36 35 37 37 33 30 29 30 25 19
48 47 41 41 43 44 45 46 46 46 47 46 43 37 43 43 44 38 31 34 34 36 34 29 24 23 23 24 27 27 28 33 33 32 31 30 30 32 35 32 31 31 27 25 25 23 21
47 42 41 42 43 45 46 46 46 46 47 44 40 33 44 46 36 36 36 35 38 36 35 33 30 26 24 25 26 27 29 32 34 33 29 31 31 31 30 32 32 31 26 24 24 20 23
45 42 41 42 44 45 45 45 46 46 47 44 37 35 45 45 34 35 34 35 37 35 35 34 30 29 28 25 25 30 32 36 35 34 30 28 29 29 27 28 30 28 28 27 24 27 23
43 41 42 43 45 45 45 46 46 46 46 41 36 34 38 41 39 33 32 33 35 37 36 35 31 28 26 25 28 30 32 35 36 35 38 34 28 29 26 27 30 28 28 25 28 32 20
41 41 42 44 44 44 45 46 46 46 46 41 37 35 37 35 36 34 33 35 32 35 37 33 31 27 25 24 26 30 31 32 33 36 33 31 30 31 27 27 28 28 27 26 28 22 24
41 42 43 44 43 45 46 47 47 46 46 41 37 37 38 35 33 34 36 34 35 34 32 31 30 28 27 26 27 26 29 27 29 31 31 31 32 30 28 26 26 26 27 27 27 25 24
41 42 44 43 44 45 46 48 46 46 45 40 42 42 40 36 34 35 32 33 34 33 33 33 33 28 30 32 32 32 32 32 32 30 29 30 31 32 26 26 24 22 23 27 28 29 26
41 42 44 44 44 45 46 47 46 46 44 44 43 42 38 31 33 33 33 33 31 34 32 34 35 32 34 35 34 32 31 31 31 30 30 28 29 31 30 28 25 25 25 26 26 27 29
41 43 44 43 44 45 46 46 46 47 47 45 46 43 39 33 34 33 31 31 31 34 36 36 36 35 36 35 30 27 27 26 28 31 29 30 28 29 29 22 20 22 24 24 24 22 26
41 43 44 44 44 47 47 47 47 48 47 46 45 44 39 34 29 29 31 31 31 34 34 35 37 37 37 32 28 24 22 25 24 27 30 28 28 27 25 23 13 21 25 24 25 19 28
41 43 45 45 45 47 48 49 50 48 47 45 42 40 35 32 31 31 30 32 37 36 34 35 36 36 38 33 27 24 25 27 22 23 25 27 27 26 24 23 21 25 27 27 18 24 31
41 43 44 45 46 48 51 50 49 48 44 43 38 38 36 32 32 32 32 34 36 36 32 35 35 36 38 33 29 25 22 25 25 26 26 25 24 23 23 23 20 27 27 23 26 30 32
41 43 45 45 46 48 49 49 46 43 41 40 36 35 35 35 33 33 32 33 33 33 35 37 35 36 37 37 31 29 24 26 24 19 29 25 26 23 24 23 26 28 29 29 30 30 33

GFSGBSN_sfc_dewp_096.txt.gz
Dewpoint
51 50 49 49 49 48 49 49 48 48 48 48 50 50 49 49 50 50 51 52 54 59 55 53 50 53 48 40 38 44 51 49 48 43 38 33 32 32 30 27 28 27 27 29 29 30 30
51 51 50 50 49 48 47 48 47 46 47 48 48 49 48 48 48 48 49 52 53 55 54 52 51 53 44 36 38 41 39 39 39 41 38 35 32 33 31 29 29 31 30 30 32 32 34
50 50 50 50 49 49 48 48 48 48 47 47 46 47 47 47 46 47 49 51 52 55 56 52 51 48 42 38 38 38 37 37 38 38 36 36 34 34 33 30 30 32 32 33 33 33 34
50 50 50 50 49 48 49 48 48 48 47 47 45 45 46 45 45 47 50 55 53 56 53 52 51 46 38 42 42 38 38 37 39 39 38 39 39 36 34 34 32 30 33 29 30 32 33
50 50 49 49 50 48 48 48 47 46 46 46 46 47 47 45 44 46 48 54 54 53 51 50 46 43 38 44 39 40 39 38 37 39 41 37 38 36 35 34 32 33 27 28 29 33 32
51 50 49 49 49 49 49 48 47 46 45 45 46 47 47 46 44 45 47 53 52 51 49 47 45 41 39 37 39 40 39 38 37 38 38 37 37 33 34 33 24 25 30 31 30 30 32
52 51 51 50 49 48 48 46 46 47 46 46 46 46 47 47 45 45 47 47 43 42 47 41 40 35 36 40 41 39 38 39 37 35 31 35 32 30 31 33 31 30 30 29 30 32 36
54 54 53 52 52 51 49 45 45 45 46 46 45 46 47 47 45 45 46 40 42 44 37 41 42 37 37 39 37 37 39 36 35 31 32 34 33 32 33 36 36 34 32 29 31 37 37
54 55 56 56 52 49 48 46 45 46 46 46 45 46 46 46 45 45 42 43 49 47 36 35 40 37 37 38 34 37 38 37 36 32 30 31 30 35 36 35 35 35 31 30 33 36 36
55 55 55 51 47 47 47 47 46 45 45 45 46 46 46 45 40 37 38 46 50 48 34 32 35 36 37 38 34 39 40 37 33 29 30 31 32 30 37 34 35 32 32 31 34 34 31
56 52 49 48 47 48 45 46 46 45 45 45 46 46 45 45 40 37 37 46 49 44 24 34 34 38 38 36 38 39 41 37 33 34 36 33 35 37 33 31 37 32 39 36 35 36 33
51 49 48 45 45 44 46 46 45 45 45 46 46 45 45 39 40 39 46 47 44 31 23 35 37 37 35 36 37 39 40 41 41 38 37 36 39 38 35 36 36 36 35 36 35 36 30
49 48 44 44 44 46 43 43 45 45 46 46 46 46 45 41 37 44 45 42 30 25 34 31 32 34 31 32 34 37 38 37 34 31 32 35 35 36 38 37 37 37 36 29 28 28 28
49 46 45 46 44 44 44 45 46 46 46 46 46 46 44 41 44 43 43 34 25 33 31 31 31 31 35 33 34 33 36 36 37 36 33 32 30 36 39 38 37 36 35 30 23 27 28
49 46 43 43 43 45 46 46 46 46 47 48 47 45 43 43 44 45 38 28 28 32 32 30 30 30 32 30 30 33 35 35 37 36 33 34 33 39 40 37 37 35 32 29 28 28 28
47 43 42 43 44 45 46 46 46 46 48 47 45 40 40 44 44 43 34 32 35 38 33 29 26 28 26 27 34 35 36 33 37 35 35 32 33 35 35 38 38 35 32 29 31 26 24
46 43 43 43 45 46 46 46 46 47 48 47 43 37 42 44 44 39 31 34 37 36 34 30 26 24 25 26 33 32 30 33 33 32 32 31 34 33 36 33 30 32 28 26 25 25 24
45 42 43 44 45 46 46 47 47 47 48 45 40 32 43 47 36 36 35 37 39 36 35 34 32 27 25 27 27 30 31 33 34 34 30 31 32 31 29 32 32 32 27 26 24 23 25
44 42 43 44 45 47 47 47 47 47 47 45 37 38 45 45 34 34 33 33 36 36 35 34 29 29 27 26 27 30 33 37 36 34 31 31 29 26 26 29 31 28 27 27 26 31 22
43 42 44 45 45 47 48 48 48 47 47 44 37 34 39 42 40 33 32 31 35 36 36 34 30 28 27 26 30 31 32 36 37 34 39 36 29 28 24 26 30 27 27 26 30 25 23
42 43 44 45 44 45 47 48 47 47 47 44 38 35 37 33 34 33 34 33 32 33 36 35 31 26 26 25 28 30 32 33 34 37 34 32 27 27 27 27 29 28 27 26 24 23 24
42 43 44 45 45 45 47 48 47 47 48 41 37 37 38 36 35 33 35 33 33 32 32 32 29 29 30 29 28 27 28 29 30 30 30 31 28 28 23 27 27 25 27 28 29 24 25
41 43 44 45 45 45 47 48 47 47 47 39 43 42 40 35 34 34 33 33 32 34 33 34 34 32 32 33 32 31 31 31 31 30 29 30 30 28 23 26 25 22 24 27 29 29 28
40 43 44 45 45 45 46 48 48 47 47 42 43 43 39 31 32 31 31 33 31 34 34 36 35 33 35 36 35 32 31 30 30 30 30 28 29 30 25 25 16 25 26 26 26 28 29
40 43 44 45 45 45 46 47 48 48 48 44 45 43 40 31 30 32 30 32 32 35 36 36 36 36 36 36 31 28 27 27 28 30 29 30 29 27 24 21 20 23 25 25 25 25 27
40 43 44 45 46 47 49 50 50 48 47 46 44 45 39 35 29 30 30 33 30 32 34 36 37 38 38 35 29 24 23 24 23 26 29 28 27 26 25 21 16 23 25 25 25 23 30
40 42 44 45 46 48 51 51 50 49 48 46 43 41 38 34 31 32 31 33 36 36 34 35 36 37 38 34 27 24 24 27 23 23 25 27 27 24 24 22 23 26 27 27 19 25 31
40 42 45 46 46 49 49 50 49 47 44 43 39 40 39 35 33 33 33 33 35 37 33 35 35 36 36 32 29 25 23 26 25 27 27 25 23 23 23 20 17 27 27 24 27 33 32
40 43 44 45 46 49 48 46 44 43 42 43 38 36 36 36 34 34 34 34 33 33 33 37 35 36 37 34 31 29 25 26 25 20 29 24 26 25 24 25 27 28 29 29 30 31 34

GFSGBSN_sfc_dewp_099.txt.gz
Dewpoint
52 52 51 51 51 51 50 50 48 49 49 48 47 47 47 48 48 47 47 48 50 52 53 57 55 53 50 43 41 46 53 53 51 49 45 38 34 34 32 29 31 30 30 30 31 32 31
52 52 52 51 51 51 49 50 49 49 49 48 47 47 46 47 47 46 46 48 51 52 52 57 54 53 46 37 42 47 47 47 46 45 41 38 35 34 33 29 29 31 30 30 31 31 31
53 52 51 51 50 50 51 48 49 49 48 47 46 47 47 47 47 45 46 48 50 54 53 57 55 50 43 38 42 45 39 40 40 43 40 39 38 34 35 31 32 31 29 30 30 31 32
54 53 53 52 51 50 50 50 50 49 47 46 45 46 46 47 47 45 45 48 50 54 55 55 55 49 41 44 43 38 38 38 39 40 40 40 40 36 35 34 34 31 32 27 30 33 34
55 56 56 55 53 52 51 51 49 48 47 47 46 46 46 47 47 46 45 48 52 54 55 53 50 46 39 46 41 41 39 38 40 40 42 37 39 37 35 34 29 32 24 27 28 33 33
54 54 55 54 55 56 54 52 50 45 46 47 46 45 46 47 47 46 45 48 52 53 52 49 46 42 39 38 41 40 40 40 38 40 39 39 39 34 32 30 22 23 24 30 29 34 35
55 56 56 55 56 52 49 49 49 47 47 46 46 46 46 46 46 45 45 45 40 44 46 40 40 38 39 42 42 40 40 40 37 36 31 35 30 27 27 30 29 29 28 28 31 33 32
52 51 51 49 48 47 47 48 47 47 46 46 45 45 46 46 45 45 46 40 39 41 37 43 43 40 40 40 37 38 41 37 34 32 34 34 30 30 31 32 32 33 33 30 32 32 35
51 52 50 48 46 47 47 46 47 46 46 46 46 46 46 46 45 41 40 42 46 47 37 40 43 38 39 40 37 37 39 38 35 32 33 31 29 33 33 33 36 32 32 32 30 31 36
50 50 47 45 45 45 45 46 46 46 45 46 46 46 46 45 39 39 41 45 49 49 33 37 40 40 38 39 36 39 39 38 35 30 31 31 31 31 30 32 35 31 32 36 35 34 30
50 45 46 46 46 46 46 45 45 45 45 46 46 46 46 44 40 38 42 46 48 44 21 36 36 40 39 37 38 39 42 39 34 31 35 33 35 35 35 34 36 34 36 35 37 36 32
49 46 45 45 45 45 46 46 46 46 46 46 46 46 45 40 39 43 44 46 44 30 22 34 36 35 35 35 39 39 39 41 41 37 36 36 39 37 36 36 36 36 35 35 36 35 28
48 44 44 44 44 46 46 46 46 46 47 46 45 45 44 42 37 43 43 41 28 24 36 31 35 33 31 33 37 36 36 36 35 31 32 35 35 37 37 35 37 37 35 28 26 27 27
47 44 44 44 46 46 46 46 47 48 47 46 46 45 43 42 44 43 41 34 25 34 33 33 32 33 35 32 35 35 37 35 37 36 32 31 29 37 39 38 36 36 35 29 22 26 28
46 43 44 45 46 46 46 47 47 48 46 44 43 42 42 44 43 43 36 27 28 34 35 31 33 35 34 33 33 35 36 35 38 35 32 33 32 38 39 39 37 35 34 35 32 34 30
46 43 45 45 46 46 47 47 48 48 48 44 40 39 41 44 43 40 31 32 35 37 35 32 27 31 27 30 35 34 35 38 38 37 37 36 32 36 36 39 37 35 35 29 31 24 25
46 44 45 45 46 46 47 48 48 48 48 48 39 34 40 44 42 35 31 33 35 36 36 31 29 28 28 32 36 35 33 33 34 34 35 36 36 31 36 32 30 32 29 28 26 28 25
45 44 45 45 45 46 47 48 47 48 48 44 37 28 40 47 32 36 32 34 37 36 37 35 32 28 26 27 29 31 32 34 36 34 32 32 33 30 29 32 32 31 29 26 24 22 26
44 43 45 45 46 48 47 48 48 47 48 44 37 37 44 44 32 29 34 33 35 35 36 35 30 29 26 25 28 31 33 37 37 34 30 30 29 24 25 28 29 29 28 27 27 28 23
44 43 45 45 46 47 47 48 48 48 48 42 35 31 35 41 39 34 30 31 32 36 37 36 33 27 26 30 31 31 32 36 37 34 40 36 29 26 21 25 29 26 27 28 27 24 25
44 42 45 46 46 46 47 48 48 48 49 41 35 34 37 32 34 34 33 33 33 32 36 36 29 31 27 28 28 29 31 32 33 35 33 31 27 25 26 27 28 27 28 28 25 25 23
44 42 45 45 45 46 47 48 49 48 48 40 34 36 36 35 34 33 33 31 32 32 33 33 33 33 32 30 29 29 29 30 30 31 30 32 25 28 24 26 25 24 26 28 29 27 26
43 42 44 45 46 46 47 48 48 48 46 38 42 40 38 33 31 31 32 32 33 35 34 36 35 33 33 34 35 33 31 31 30 29 29 29 28 26 22 25 25 20 23 25 28 29 27
43 41 44 45 46 46 48 48 48 48 47 42 40 42 35 29 30 31 32 32 33 34 35 36 35 34 35 36 35 32 30 30 30 30 30 28 28 27 21 23 12 24 25 26 27 27 30
42 41 44 45 46 47 49 50 49 48 47 43 43 41 39 28 28 31 31 31 32 35 35 36 35 35 37 36 31 27 27 26 28 29 29 29 28 24 21 17 20 23 25 24 24 24 28
41 41 44 45 46 49 51 51 51 49 48 44 44 41 38 33 27 29 30 34 31 33 33 35 37 37 38 36 29 23 22 24 23 24 29 28 28 26 24 19 15 22 25 25 25 22 30
40 42 44 46 47 50 50 51 50 49 48 44 40 39 36 32 30 32 31 32 35 35 32 34 36 35 38 33 27 23 22 27 23 22 24 26 25 23 23 21 23 26 27 27 19 20 31
39 42 44 45 47 49 49 48 48 46 44 41 37 38 37 32 31 32 33 32 33 34 32 34 33 34 34 30 28 25 24 25 23 25 25 24 22 23 23 19 16 27 27 24 25 32 32
38 41 44 45 46 49 46 45 46 46 46 43 36 36 36 35 33 33 33 33 33 33 33 33 34 34 35 30 30 28 25 25 24 20 28 21 26 24 23 23 27 29 28 30 31 32 33

GFSGBSN_sfc_dewp_102.txt.gz
Dewpoint
54 54 54 53 53 53 52 52 51 50 50 49 48 47 48 47 47 47 46 46 48 50 51 53 59 57 49 43 41 45 54 52 48 46 43 41 34 33 30 30 31 30 30 31 32 33 32
55 55 55 56 57 56 54 51 52 50 50 48 47 45 46 46 47 47 46 45 47 49 50 52 57 55 47 38 42 47 49 50 50 46 43 37 35 35 32 30 28 30 31 31 32 31 31
54 55 56 56 57 55 55 56 53 52 51 50 46 44 45 46 47 47 47 46 47 49 51 53 56 49 45 41 46 47 45 45 46 43 40 39 38 34 35 31 33 33 30 31 30 29 30
55 56 53 52 52 52 54 56 54 52 52 49 46 45 45 46 46 47 47 46 47 51 54 56 55 49 42 48 45 42 40 39 41 41 39 39 40 37 35 34 32 31 31 27 29 32 32
52 52 51 50 49 49 49 52 50 49 49 48 47 46 46 46 46 47 46 47 47 53 54 56 49 45 40 49 39 40 39 38 39 40 40 38 40 36 36 33 28 29 26 26 28 32 32
51 51 49 49 48 48 49 49 49 48 48 47 46 46 46 46 47 46 46 47 49 53 51 48 48 41 43 41 42 40 39 40 39 40 39 39 37 33 34 30 18 22 25 27 28 31 33
50 47 47 47 46 48 48 48 48 48 47 46 46 46 46 46 46 46 45 43 39 41 46 39 40 40 40 42 43 40 40 39 38 36 29 35 31 26 27 28 26 27 27 28 30 31 32
47 46 46 47 47 46 47 47 47 47 47 46 46 46 46 45 45 44 42 37 38 39 36 45 43 41 40 40 37 39 41 36 34 31 32 32 27 28 30 29 28 28 29 30 31 33 32
47 46 45 45 45 47 47 47 46 46 46 46 46 46 46 46 43 40 40 40 46 45 37 40 43 39 39 39 37 37 39 38 33 31 32 29 29 33 31 30 30 31 31 29 30 34 36
46 45 45 45 45 47 47 47 47 47 46 46 46 46 46 45 37 39 40 45 48 47 33 34 38 41 39 40 36 39 40 39 37 33 33 33 34 32 31 30 33 31 33 32 34 34 29
46 45 45 44 46 47 47 47 47 47 48 46 46 46 46 45 39 39 42 46 47 43 20 37 38 42 39 37 37 37 42 39 34 30 34 28 34 35 35 34 32 34 34 35 33 33 33
46 45 45 46 46 47 48 49 48 48 48 48 46 45 45 40 39 42 44 46 44 27 20 34 36 37 35 37 38 40 39 41 41 37 35 34 37 37 35 36 36 35 34 34 34 33 28
46 45 45 46 45 47 48 49 49 46 47 47 47 44 44 42 36 43 43 42 23 21 35 31 35 35 33 35 35 36 36 34 33 31 31 35 35 37 37 35 37 36 34 26 26 27 25
45 45 45 46 46 48 49 49 49 46 45 46 46 45 44 43 44 43 40 27 21 30 31 36 33 33 31 34 35 35 36 35 37 36 32 27 28 37 38 37 35 36 35 28 21 25 28
45 45 45 46 46 48 48 49 48 47 45 44 44 40 41 42 43 41 32 28 29 32 35 33 36 32 32 33 36 36 34 35 36 35 30 33 31 38 39 39 38 36 34 37 32 33 29
46 45 45 45 47 48 49 48 48 50 49 46 39 37 38 42 44 38 34 32 35 36 36 33 28 31 29 34 35 35 36 37 36 36 36 36 31 35 36 39 38 36 38 32 30 23 25
46 45 46 46 47 47 48 49 48 49 49 45 37 31 38 42 41 35 31 32 33 37 36 31 29 27 32 33 34 36 33 33 35 36 38 37 34 27 35 32 30 33 33 33 30 29 25
46 44 45 45 46 47 48 49 48 49 49 43 35 28 39 44 32 33 30 33 36 35 37 35 32 28 27 32 32 31 31 34 36 34 34 34 32 29 29 31 33 32 30 29 26 25 25
46 43 45 46 46 47 48 49 49 49 49 40 36 33 42 41 32 27 31 32 35 34 35 35 31 28 26 26 29 32 33 35 36 34 29 30 29 26 25 22 28 30 28 28 27 27 24
46 43 46 46 46 48 47 48 49 49 49 40 33 26 33 38 36 31 29 31 31 35 36 36 34 28 28 30 31 31 32 35 36 34 40 35 29 26 20 24 28 27 28 28 27 26 27
46 43 45 46 46 47 47 48 49 49 48 38 33 30 34 26 32 33 32 32 31 31 35 35 32 33 29 28 28 29 30 30 32 35 33 30 26 25 26 27 27 26 27 28 26 26 27
46 43 44 45 46 47 47 48 49 49 46 39 33 32 34 31 33 31 30 30 31 32 34 33 33 33 33 32 32 29 30 30 30 30 29 31 24 27 23 25 24 23 25 27 29 27 28
46 43 42 45 46 47 47 48 49 49 44 37 38 39 35 31 29 27 29 31 33 35 35 35 35 32 32 34 35 34 33 30 31 29 28 29 27 25 19 26 23 18 23 25 28 29 28
46 43 42 45 46 48 49 51 50 48 45 39 38 38 32 27 29 30 31 32 32 33 34 35 35 33 35 37 36 35 32 30 30 29 30 28 27 26 19 21 8 21 25 25 26 27 30
45 42 43 46 47 49 50 51 49 48 47 41 40 38 35 26 29 30 30 31 32 34 35 35 35 36 36 36 29 26 26 24 25 29 29 28 29 23 20 16 17 23 24 24 23 24 28
44 41 43 46 47 50 51 51 49 48 47 42 40 40 36 31 27 29 29 32 30 31 33 34 37 38 37 34 27 22 21 23 23 24 27 28 28 25 23 17 14 20 25 25 25 18 29
43 40 43 45 48 49 49 50 49 48 47 42 39 38 35 30 30 30 30 31 33 32 31 32 34 35 36 31 27 23 21 25 22 21 23 25 25 23 23 20 22 25 26 26 16 14 32
43 39 43 45 47 47 47 47 46 46 46 40 37 38 35 31 31 32 32 31 33 33 31 33 32 32 33 28 28 26 23 24 22 23 23 22 21 22 23 19 14 28 27 20 22 31 33
44 39 43 45 46 48 46 46 47 46 46 42 35 37 37 34 32 33 33 34 33 34 33 32 33 33 34 28 29 28 25 25 22 19 25 24 25 23 23 22 25 28 28 30 31 32 32

GFSGBSN_sfc_dewp_105.txt.gz
Dewpoint
55 55 53 52 50 49 49 51 52 55 55 53 52 49 45 46 46 46 47 46 46 47 48 50 52 57 48 43 41 44 53 55 48 44 43 39 34 32 30 30 30 29 30 31 32 33 32
53 52 50 51 48 48 49 49 53 53 55 53 51 47 44 44 46 47 47 47 46 46 48 50 55 52 46 39 49 48 49 48 46 45 43 37 35 34 32 30 29 31 32 32 32 31 31
52 51 49 48 48 48 48 49 50 51 52 53 51 49 44 45 46 46 47 47 47 47 48 51 55 50 44 43 50 52 47 48 47 42 39 39 37 33 33 30 33 33 30 31 30 30 30
51 48 47 47 48 47 47 48 48 49 50 50 50 48 46 46 46 47 47 47 48 48 51 53 54 48 42 49 52 50 43 40 43 41 39 39 39 36 34 33 30 28 29 25 28 32 31
48 47 47 48 47 46 46 47 48 48 48 47 47 47 46 46 47 47 47 47 48 53 53 55 49 46 41 49 47 45 40 39 39 40 39 39 38 34 35 29 25 25 17 25 28 32 31
48 46 47 46 47 48 47 47 47 47 47 47 47 46 46 46 46 46 46 46 48 51 50 48 47 43 44 42 45 41 39 41 40 39 38 38 35 31 32 28 15 21 23 25 26 29 32
46 46 46 46 47 48 48 48 47 47 46 46 46 46 46 46 45 46 44 40 39 40 42 40 40 41 42 44 44 40 41 40 39 36 29 34 30 24 25 27 25 26 25 25 26 29 31
46 46 45 46 47 48 48 48 48 47 47 46 46 46 46 46 45 44 40 37 39 40 39 43 43 43 43 42 38 38 40 36 34 30 33 30 26 28 29 29 28 27 26 27 29 31 32
46 46 45 46 47 48 49 49 49 49 48 47 46 46 46 45 43 41 39 41 46 44 38 40 43 40 41 40 37 37 38 37 33 31 31 27 27 32 29 29 27 28 27 28 29 31 33
46 46 47 47 46 48 49 49 48 48 48 48 46 47 46 43 37 39 39 45 47 46 33 34 39 41 41 41 36 40 39 37 36 31 32 31 32 31 31 30 30 26 30 30 31 33 29
46 46 46 45 48 48 49 49 47 46 47 48 46 46 46 43 37 38 42 46 48 43 19 34 37 44 40 38 37 38 41 39 34 30 32 26 31 33 34 34 32 30 34 34 34 34 32
45 46 46 46 48 48 49 48 46 46 47 48 46 46 45 40 39 42 44 47 44 23 20 33 37 38 37 37 38 39 39 41 40 36 35 33 36 35 35 35 35 35 34 33 32 32 26
45 46 46 46 48 48 49 48 47 45 46 47 47 46 44 42 38 43 43 42 21 21 34 31 34 35 34 36 35 36 36 35 33 31 31 35 35 38 38 35 36 35 33 25 22 27 25
45 46 45 46 48 49 49 49 49 49 48 45 45 44 44 42 43 43 38 29 21 31 33 36 33 33 33 35 34 35 36 35 35 36 33 27 22 36 37 36 36 36 36 28 21 24 27
46 46 46 46 47 48 49 49 49 50 49 47 43 40 40 41 43 41 33 27 28 33 34 33 35 31 32 36 37 37 36 35 36 36 29 32 27 38 39 38 39 36 34 38 32 32 29
47 45 46 46 46 47 48 49 49 50 49 45 38 36 37 40 42 37 33 32 34 36 35 35 29 31 28 32 32 33 35 37 37 35 37 36 31 34 35 39 38 38 39 32 32 23 23
48 44 46 46 47 47 48 48 49 50 49 44 36 33 38 43 40 35 30 32 33 36 36 32 29 28 31 32 32 34 32 34 37 36 38 37 34 30 34 33 29 35 35 35 34 31 25
48 44 46 46 47 47 47 48 49 49 49 41 35 30 41 43 32 30 30 33 36 35 36 35 31 27 30 33 32 30 30 33 36 37 36 36 33 29 28 30 32 32 30 31 28 25 26
48 46 45 46 46 47 48 48 49 49 49 38 33 31 40 40 27 26 30 32 34 34 34 35 32 31 28 28 28 32 32 34 36 34 29 31 29 26 23 23 30 29 29 29 27 27 25
48 46 43 46 46 47 47 48 49 49 48 38 32 27 33 35 34 29 29 30 30 34 34 35 33 30 29 29 30 29 30 34 35 34 39 34 28 26 20 25 28 26 27 28 28 28 29
49 47 43 45 46 46 48 48 49 49 47 37 33 28 33 25 30 31 30 30 30 31 34 35 32 33 29 28 28 28 30 30 32 34 33 29 26 25 26 26 26 26 26 29 30 29 30
49 47 44 45 46 47 49 49 50 49 46 37 32 31 32 29 31 29 29 29 32 34 34 32 32 33 33 31 30 29 31 29 29 29 30 31 25 27 22 26 26 23 25 27 29 28 30
49 47 44 45 46 47 50 51 51 49 43 36 37 37 33 29 27 26 28 30 32 34 34 35 34 32 31 33 35 34 34 32 30 29 29 29 26 24 17 25 22 17 22 25 27 29 29
48 46 43 45 47 48 51 51 50 48 44 38 37 36 30 26 28 29 30 31 31 32 33 35 35 32 34 37 36 34 32 30 30 30 29 27 26 25 19 19 6 19 25 25 27 27 29
48 46 42 45 47 50 51 51 49 48 46 41 39 37 31 26 28 29 29 30 32 32 33 35 35 35 37 35 29 25 25 21 24 28 29 28 27 22 19 15 14 21 23 24 23 24 28
50 44 41 45 47 49 50 49 48 48 47 41 39 38 35 28 26 29 29 30 30 30 32 32 35 37 35 31 26 22 19 22 20 23 28 28 27 24 22 16 11 16 27 24 24 18 27
51 43 41 45 47 48 49 48 46 45 45 41 38 37 35 29 29 29 30 30 32 31 30 31 34 35 35 30 27 23 21 24 20 21 22 23 24 21 22 20 20 23 28 25 16 11 31
51 44 41 45 46 47 46 47 48 47 47 39 35 37 35 30 30 32 32 31 32 33 30 32 31 31 33 28 28 25 22 24 22 22 22 21 20 21 22 19 12 27 27 20 21 30 32
52 45 41 44 45 47 46 46 47 46 46 41 34 37 37 34 32 33 33 34 34 34 33 32 32 32 34 28 28 27 25 24 21 20 23 23 24 22 23 22 24 27 25 29 30 31 31

GFSGBSN_sfc_dewp_108.txt.gz
Dewpoint
51 48 47 49 49 48 48 48 50 50 51 53 53 54 50 46 46 46 47 47 46 45 46 48 50 52 49 44 44 48 54 55 46 43 43 36 34 32 30 30 30 29 30 31 32 33 32
48 47 49 49 48 47 48 47 47 50 51 53 52 52 47 47 47 47 47 47 47 46 46 48 51 54 48 41 49 54 51 48 45 44 40 37 34 34 31 29 28 31 32 32 32 31 32
47 47 48 50 48 47 48 48 48 48 50 50 50 50 48 47 46 47 47 47 47 47 48 49 54 49 46 45 52 53 49 48 44 42 38 38 36 33 32 30 33 32 28 30 30 30 30
47 47 48 49 47 48 47 48 47 47 47 48 47 47 46 46 47 47 47 47 48 51 49 50 54 50 43 51 54 51 48 41 41 40 39 39 38 35 32 32 29 27 27 22 24 31 31
47 47 47 47 48 48 48 48 47 47 47 47 47 47 47 47 47 47 47 47 52 54 53 54 49 46 42 50 48 48 47 39 39 40 40 38 37 33 33 27 23 25 17 24 26 31 31
47 48 46 48 49 49 49 49 49 48 47 47 47 47 47 46 46 46 44 46 48 50 49 47 47 41 44 43 45 42 40 41 39 38 37 37 34 29 29 24 13 19 17 24 25 28 31
47 47 48 48 49 50 50 49 48 48 48 47 47 47 46 46 45 45 41 41 40 41 44 42 42 41 42 45 45 41 41 39 38 34 29 33 28 21 25 26 24 24 24 24 25 27 28
47 48 48 48 50 51 50 49 48 49 49 47 47 47 46 44 46 45 41 39 39 41 39 43 43 42 42 42 38 39 41 36 34 29 32 28 24 27 29 28 27 27 25 25 27 30 30
46 47 48 49 51 51 48 47 47 48 48 47 47 47 46 43 44 41 41 41 45 44 38 39 43 42 41 42 38 37 38 36 32 30 30 26 25 30 29 28 27 27 25 26 26 28 31
47 47 48 49 51 51 48 47 47 48 49 48 47 47 45 41 38 38 40 45 47 46 27 33 38 39 40 41 36 40 41 37 35 31 31 29 31 29 29 29 29 27 28 28 28 29 26
47 47 47 48 50 51 49 46 47 48 49 47 47 47 44 43 37 39 42 46 46 42 17 35 37 43 41 39 37 37 41 39 35 31 32 26 29 32 32 32 32 30 31 31 33 33 32
46 47 47 48 49 51 51 49 48 46 47 47 47 45 43 41 39 42 44 45 41 23 19 33 38 37 37 37 37 39 36 40 39 36 34 31 34 34 33 35 35 34 34 32 32 32 25
47 47 47 47 47 49 50 50 50 49 45 45 46 46 44 41 37 43 43 40 22 17 34 32 34 37 35 35 36 37 35 34 32 29 27 31 33 36 37 35 36 35 33 23 19 27 23
48 46 47 47 47 47 49 50 50 50 50 45 45 44 42 42 43 42 38 28 18 31 32 35 33 36 31 34 34 35 34 33 35 34 32 26 20 34 36 34 35 36 36 28 20 20 25
49 45 47 47 48 48 48 49 48 49 50 49 44 39 39 40 43 40 32 25 29 31 33 32 33 31 33 36 37 35 35 34 37 36 31 32 28 37 37 37 37 36 33 38 32 32 28
49 47 46 47 48 48 48 48 48 49 50 47 37 35 35 40 42 37 32 31 33 36 35 35 28 30 28 32 34 34 35 37 37 37 36 36 30 33 35 38 38 38 38 32 32 23 21
49 48 45 47 47 47 48 49 49 49 51 45 35 32 38 43 39 35 31 33 33 35 36 33 28 30 32 33 33 33 32 34 37 36 37 37 34 29 34 34 30 36 35 35 33 32 25
50 49 46 46 47 47 48 48 49 49 50 40 34 27 39 40 32 28 27 31 36 34 36 35 33 27 30 33 31 31 30 32 35 37 35 36 33 28 29 31 32 32 31 33 28 28 28
51 49 47 44 47 47 48 48 48 49 48 38 32 29 38 38 27 26 30 32 33 33 34 34 32 32 30 29 28 31 31 34 36 36 31 32 28 26 22 26 29 28 29 29 30 29 24
51 49 48 44 46 47 48 49 49 49 49 37 31 25 33 35 33 29 29 30 30 34 34 34 33 31 29 28 29 28 29 33 34 33 39 34 28 26 23 25 28 27 28 31 28 27 28
51 49 48 44 47 47 49 50 50 50 48 37 32 28 31 25 29 29 28 30 30 31 34 34 31 33 31 27 27 28 30 30 31 33 32 29 25 25 26 26 26 26 26 30 31 30 30
52 49 48 44 47 47 50 51 51 50 45 36 31 30 31 29 29 27 28 29 31 32 33 32 31 33 32 30 29 29 31 28 27 29 29 30 25 28 23 25 26 23 25 27 28 29 32
53 50 47 45 47 48 51 52 51 48 41 35 36 36 32 28 27 26 27 28 31 32 34 35 33 32 31 33 34 35 34 33 30 28 28 28 26 24 18 22 19 16 22 25 27 29 30
53 50 47 44 47 49 50 51 49 48 43 38 36 35 29 26 28 29 30 31 31 31 32 35 34 31 33 36 35 33 31 32 30 29 29 27 25 24 20 17 5 15 26 25 27 27 29
52 49 46 44 47 49 50 49 49 48 46 40 38 35 30 25 28 28 29 30 31 31 32 34 34 35 37 33 28 25 23 21 24 26 27 29 26 22 18 14 11 20 24 25 24 22 28
52 49 44 43 47 49 49 49 48 46 47 40 37 37 33 27 26 28 28 29 29 28 30 31 35 36 34 30 26 21 16 21 19 22 27 27 27 23 21 15 4 14 26 26 26 20 26
52 50 44 42 46 48 47 48 47 47 45 40 37 36 34 29 29 29 29 29 31 30 29 30 32 33 33 29 27 23 20 22 20 19 20 22 23 21 21 19 19 22 27 26 17 11 29
52 51 45 42 45 47 46 47 47 47 46 37 35 36 34 30 30 31 32 31 31 31 29 31 30 31 31 27 28 25 22 23 21 21 20 21 19 19 21 18 11 25 26 20 21 28 30
52 52 47 43 45 46 48 46 47 46 45 40 35 37 37 33 32 33 33 33 33 34 33 31 30 31 33 28 28 27 26 23 20 20 21 22 23 20 23 21 22 26 25 26 27 30 31

GFSGBSN_sfc_dewp_111.txt.gz
Dewpoint
47 49 50 49 50 50 48 48 47 49 50 52 51 52 52 51 47 46 46 45 45 44 44 46 47 53 50 44 46 52 55 54 47 45 42 37 34 33 31 30 30 30 30 31 32 33 32
48 49 49 50 50 50 49 48 47 47 49 49 50 49 49 47 47 46 46 46 46 46 45 46 49 51 47 39 51 53 52 49 45 43 38 37 35 34 32 30 29 31 32 32 32 31 31
48 49 48 50 50 50 51 49 48 47 47 48 48 47 47 47 47 47 47 47 46 46 47 47 54 51 47 45 53 51 50 49 44 40 38 38 36 34 33 30 32 32 28 29 28 29 29
47 49 50 50 50 51 51 50 48 47 47 47 47 47 47 46 46 46 46 47 51 53 50 50 52 48 43 52 55 51 47 41 41 40 40 39 38 36 33 33 30 27 26 21 22 30 30
48 49 50 50 51 51 51 50 48 48 47 47 47 46 46 46 46 46 46 50 54 53 52 54 49 45 39 53 49 49 46 39 41 41 40 37 37 34 33 28 23 25 20 23 25 30 30
48 49 49 50 51 51 51 50 49 48 47 47 47 47 46 46 46 46 46 47 50 50 50 50 48 42 45 44 45 45 42 41 39 38 37 37 35 30 30 25 15 18 22 24 25 26 30
48 49 49 50 51 51 48 48 48 49 47 47 47 46 45 46 47 46 42 43 41 42 45 42 42 42 43 45 45 40 41 39 37 34 31 34 29 24 25 26 23 24 24 24 25 27 27
48 48 49 50 52 51 47 47 49 48 48 47 47 46 44 44 45 46 42 39 40 42 38 42 43 42 43 43 37 39 41 35 34 29 31 28 25 27 29 28 27 26 25 25 27 29 29
48 48 48 49 51 51 49 48 48 49 48 47 47 45 44 44 44 41 41 43 46 44 38 38 42 42 43 42 37 37 38 36 32 30 30 25 26 30 28 28 27 27 25 25 25 28 30
47 48 48 48 49 51 51 50 48 48 48 48 47 45 44 41 38 38 41 44 46 45 26 33 37 41 41 42 37 40 40 37 35 29 31 29 31 29 29 28 28 27 28 28 27 28 26
48 48 48 48 48 49 50 50 50 48 48 48 47 45 46 42 37 38 41 44 45 39 10 35 37 41 41 38 37 37 41 39 35 35 30 25 29 31 31 31 31 30 31 31 30 31 32
49 47 47 47 48 49 49 50 51 51 49 47 47 46 44 39 39 41 43 45 39 22 17 33 38 37 36 36 37 38 36 39 38 36 34 29 33 34 31 34 33 34 33 33 33 32 25
50 47 48 48 48 48 48 49 50 50 51 49 46 46 44 41 36 42 42 36 22 17 33 32 34 36 35 34 35 36 33 33 31 28 25 29 32 35 35 34 36 34 32 25 20 25 23
50 49 46 48 48 48 48 48 48 50 49 50 47 44 42 42 43 41 36 28 18 30 30 34 34 34 29 34 34 35 34 31 34 33 30 27 21 33 36 34 34 36 35 28 21 21 24
50 50 47 47 48 47 48 49 50 49 50 50 44 38 38 39 42 40 34 26 28 30 33 31 32 32 33 36 35 33 34 32 34 34 30 31 27 36 37 37 37 36 34 37 32 33 28
51 50 49 46 48 47 48 49 49 49 50 47 36 34 35 40 41 37 32 31 32 35 35 34 29 30 27 30 32 33 34 35 36 37 37 35 30 32 36 38 38 38 38 32 32 23 22
52 51 50 47 47 47 47 48 48 48 49 44 35 32 37 42 39 35 30 31 33 35 36 32 28 30 32 32 33 32 31 34 37 37 38 37 34 29 34 35 34 36 35 35 34 32 25
52 51 50 48 46 47 47 48 48 49 48 40 34 28 38 40 32 28 27 30 35 33 35 34 33 28 30 32 31 31 31 32 37 37 35 35 33 30 29 31 32 31 34 34 28 27 29
53 51 50 49 46 47 48 49 50 50 47 37 31 29 37 37 27 25 30 31 33 33 33 33 31 31 30 29 28 32 31 35 37 37 34 34 30 25 23 27 30 30 35 33 34 31 25
53 52 50 49 46 48 49 51 51 50 47 36 30 26 32 34 31 29 29 29 30 33 33 34 33 32 29 28 29 28 28 32 34 34 38 33 28 26 23 25 28 26 27 33 31 27 28
53 52 50 48 46 48 50 51 51 49 45 36 31 28 30 24 29 28 28 30 30 31 34 34 31 32 30 27 26 28 31 29 31 32 32 29 25 26 26 27 27 27 25 30 30 30 29
52 53 50 48 46 49 50 50 49 48 42 35 31 30 29 28 28 25 28 28 30 30 32 31 31 33 32 29 30 29 30 28 27 29 28 30 26 28 25 25 26 25 24 27 29 32 32
52 53 50 47 46 50 50 50 49 47 41 36 37 35 31 27 26 25 26 29 31 32 34 34 33 31 30 32 34 34 34 33 31 28 27 27 26 24 19 22 20 16 20 26 27 29 31
52 52 50 46 46 49 50 49 49 48 42 38 36 33 29 26 28 28 29 30 31 31 31 34 34 30 33 36 34 32 32 33 32 29 29 27 26 24 20 17 2 14 25 26 27 27 29
52 52 49 45 46 49 49 49 47 47 45 40 37 35 29 24 28 28 28 28 30 30 31 33 34 34 35 32 27 23 21 19 24 26 27 28 26 22 18 15 8 17 21 24 25 24 28
52 52 49 44 45 48 48 48 47 47 45 39 37 36 32 26 25 29 28 28 27 26 28 31 34 35 33 29 25 20 14 21 20 22 28 27 26 22 21 13 1 5 23 24 24 17 21
52 52 50 45 44 48 47 48 47 47 45 39 36 36 33 29 29 28 29 29 31 29 28 29 31 32 32 28 26 22 19 22 19 19 19 22 21 21 20 18 17 18 25 24 17 12 26
53 52 51 47 44 46 47 46 47 47 44 37 35 37 34 30 30 31 32 31 31 30 28 29 29 29 30 25 27 24 22 23 21 21 19 18 17 19 21 19 12 25 26 20 22 25 29
53 53 52 48 45 45 47 48 46 46 45 40 35 37 37 33 31 33 33 33 33 33 33 30 29 30 32 27 28 27 27 23 20 20 21 19 22 19 21 20 22 25 26 25 26 28 30

GFSGBSN_sfc_dewp_114.txt.gz
Dewpoint
49 50 50 51 51 52 51 51 49 48 48 49 49 50 48 48 48 47 47 46 45 44 44 46 48 56 52 45 47 53 55 57 45 42 38 36 31 31 29 29 32 29 30 31 31 31 30
48 50 50 50 52 52 51 51 50 48 47 47 48 48 48 48 47 47 46 46 45 45 44 46 49 53 48 42 52 51 48 48 45 41 38 37 34 33 31 29 27 29 30 29 30 29 29
48 50 50 51 52 51 51 51 50 48 48 47 47 47 46 46 47 47 46 46 46 45 46 47 51 50 44 46 50 49 48 47 44 39 37 36 35 31 32 30 32 31 26 26 27 28 27
49 50 50 51 52 49 49 49 51 49 47 47 47 47 46 46 46 46 47 51 51 50 49 52 53 46 45 53 50 47 43 39 39 39 38 37 35 34 31 32 29 26 26 21 22 28 29
49 49 50 51 51 49 49 49 50 49 47 47 47 47 47 47 46 47 50 54 54 54 55 52 47 43 43 53 48 48 45 39 39 38 37 35 35 33 31 29 25 25 26 21 19 28 29
50 50 49 50 52 50 48 49 50 50 48 47 47 46 47 48 47 48 48 53 53 52 51 50 48 40 43 44 46 45 41 39 37 37 35 34 34 31 31 28 22 18 19 22 21 25 27
49 49 49 50 51 51 49 48 51 50 48 48 46 45 46 47 48 47 45 45 43 42 45 43 42 40 41 44 45 42 39 35 34 31 30 33 30 29 26 24 23 22 21 22 23 26 28
48 49 50 49 50 51 50 50 48 49 48 48 46 46 45 45 48 47 45 41 41 43 38 43 43 43 43 42 38 36 39 32 31 30 31 30 26 28 29 28 26 25 25 24 27 28 29
48 48 49 50 49 50 51 51 50 48 48 48 47 47 44 44 44 44 43 43 46 45 38 37 41 41 43 41 35 35 36 34 31 29 28 25 28 30 28 28 27 26 26 26 27 29 29
49 48 49 50 50 49 50 50 51 51 49 48 48 46 46 42 39 40 41 44 46 45 35 34 36 40 40 40 36 39 39 36 33 29 30 28 30 27 27 26 27 26 28 28 28 29 28
51 48 48 50 50 50 50 50 50 50 51 49 47 47 46 45 40 40 41 45 46 43 23 35 37 41 40 36 36 36 40 37 34 33 31 26 30 31 30 30 30 28 31 31 31 31 32
52 50 47 48 49 50 50 50 50 50 50 50 47 47 45 40 42 42 44 46 43 36 22 32 38 37 36 37 36 36 36 37 36 35 33 30 31 32 30 32 32 31 31 32 32 32 27
52 51 49 48 48 48 50 51 50 49 49 50 50 46 44 42 39 44 44 40 36 26 33 30 32 34 33 32 33 34 31 31 31 32 31 31 32 33 33 32 35 33 31 30 28 28 25
52 52 50 47 48 47 49 50 50 49 49 50 49 45 42 41 44 44 41 39 26 28 29 33 34 33 29 34 32 34 32 31 34 32 31 29 29 33 35 33 33 33 35 30 23 23 24
53 52 51 49 46 48 49 50 50 49 50 49 43 42 42 41 43 44 41 33 30 30 31 31 33 29 32 36 33 32 34 32 33 34 30 31 27 35 35 36 36 36 34 35 33 33 30
54 52 51 50 47 48 48 49 50 49 50 45 43 41 41 43 43 43 41 32 33 35 35 33 29 31 28 29 31 32 32 34 34 35 35 33 29 31 36 37 37 37 39 33 34 25 23
54 52 52 50 47 48 48 50 50 51 49 42 41 41 41 44 42 40 34 34 34 35 36 33 29 30 31 31 32 31 31 34 37 38 38 37 34 30 33 35 35 34 35 36 35 31 26
53 53 52 51 48 48 49 50 51 51 47 40 41 41 42 44 40 38 35 33 35 34 36 35 34 28 30 33 32 31 30 32 36 37 34 35 33 30 28 32 34 32 35 35 29 29 28
53 53 52 51 48 50 51 51 51 50 46 41 39 40 42 42 38 36 32 33 33 34 34 33 32 32 31 29 28 31 31 34 37 37 34 34 31 28 24 28 30 29 35 35 33 32 28
52 53 52 50 48 50 51 50 49 49 47 38 34 40 39 39 36 33 32 32 33 35 34 33 33 32 29 28 29 28 27 32 33 34 39 36 29 27 24 24 27 26 26 33 31 30 27
52 52 52 50 47 50 50 50 49 48 45 38 35 36 35 37 35 33 33 33 32 32 34 34 31 32 31 27 26 27 31 30 31 32 33 31 29 29 27 27 27 27 25 30 30 30 30
52 52 51 49 47 50 50 50 50 48 43 39 36 36 34 34 31 32 33 32 31 32 33 31 30 32 32 30 31 30 32 30 27 29 29 30 30 28 27 26 27 25 25 25 32 32 31
52 52 51 48 47 50 50 50 50 47 41 40 40 40 36 32 31 31 31 31 31 33 34 35 33 32 31 32 34 33 34 35 33 32 28 28 28 28 23 21 20 17 19 23 27 30 32
53 52 51 47 46 49 49 48 48 47 43 41 41 38 33 28 30 29 31 31 31 32 33 34 35 33 34 36 36 35 35 35 34 34 32 28 27 28 27 22 15 17 25 26 27 28 30
52 52 52 47 45 49 48 48 48 47 44 42 42 40 36 26 28 29 31 31 31 31 32 34 35 35 36 34 29 24 23 22 26 29 30 29 28 26 23 18 10 15 18 24 25 24 26
53 52 52 49 44 48 48 48 47 47 44 41 40 39 35 28 24 29 30 31 30 30 30 33 34 36 35 31 28 20 12 18 18 22 27 28 29 25 22 17 4 10 24 25 25 18 23
53 53 52 51 45 45 47 47 48 47 44 41 39 38 35 32 30 30 30 30 33 33 31 31 33 35 35 30 24 21 20 23 18 18 19 24 24 24 21 18 14 17 25 25 18 14 25
54 53 53 52 48 45 47 47 47 47 44 39 37 39 36 33 32 31 32 33 34 34 29 30 31 32 35 30 26 25 24 24 23 23 21 18 17 19 20 21 17 25 26 21 22 25 28
54 54 53 52 50 47 46 48 48 46 44 40 38 38 38 34 33 33 33 34 34 35 34 34 32 33 35 34 31 30 27 27 24 17 23 20 20 19 20 17 24 27 27 26 27 27 28

GFSGBSN_sfc_dewp_117.txt.gz
Dewpoint
50 50 51 52 52 51 51 51 51 48 48 47 48 49 49 49 49 48 48 47 46 45 45 47 49 56 53 46 46 52 56 57 42 37 34 31 26 26 24 26 29 23 28 28 29 30 28
51 50 51 53 49 50 50 50 51 49 48 48 48 48 48 47 47 47 47 46 46 45 44 46 52 54 49 41 53 52 53 49 39 37 35 33 30 30 29 28 26 28 29 27 27 26 27
51 51 51 52 50 50 50 50 51 49 48 48 48 47 47 47 47 46 47 46 45 44 45 47 51 51 45 45 49 49 50 50 42 38 36 36 33 29 30 28 30 29 25 24 26 26 25
51 51 51 52 52 51 49 50 50 49 48 47 47 47 48 48 48 51 52 52 50 48 47 50 51 49 45 51 52 46 43 41 40 38 37 36 33 31 29 29 27 24 25 23 25 28 28
50 51 51 51 52 51 49 50 49 49 48 47 46 47 48 49 51 53 54 54 55 54 54 51 46 44 41 52 47 47 44 38 38 37 36 33 33 31 30 29 25 25 29 21 20 27 27
50 51 50 50 51 51 52 48 49 48 48 47 47 46 47 50 50 50 53 52 52 51 48 47 45 40 43 43 47 43 42 38 38 37 35 32 31 29 29 28 24 21 22 20 18 26 27
49 50 51 50 50 51 51 51 49 49 48 48 47 46 46 48 49 49 47 46 44 42 44 40 40 40 42 46 45 40 36 34 33 31 29 32 29 31 28 23 21 19 17 18 19 24 27
49 49 51 51 50 50 50 51 51 49 49 48 47 47 45 45 48 48 46 42 42 44 38 42 43 43 43 41 38 35 38 32 32 30 30 29 27 26 27 26 23 22 22 21 26 27 28
51 49 49 50 50 50 50 50 50 51 50 48 48 47 47 44 44 46 43 43 46 45 36 37 40 40 42 40 35 35 35 33 30 28 26 27 29 29 27 26 25 23 23 24 26 28 28
52 49 49 48 49 50 50 50 50 50 51 50 48 49 47 46 42 42 41 44 46 45 35 34 36 38 38 39 34 38 38 36 32 28 27 27 28 26 26 24 25 24 27 27 28 29 29
53 52 48 48 48 49 50 51 51 50 50 51 50 48 46 46 41 41 42 44 46 44 23 35 36 40 37 34 35 35 39 36 31 30 32 27 30 30 29 28 29 28 31 30 30 30 32
53 52 51 47 48 48 50 51 51 50 50 50 50 47 47 41 43 43 44 44 44 35 23 33 36 36 36 34 34 35 35 36 34 33 32 29 30 31 31 29 31 31 31 31 30 30 27
53 53 52 48 47 48 49 50 51 50 50 50 50 46 43 42 39 44 44 42 36 27 32 30 31 31 29 30 32 32 31 31 30 33 32 32 32 33 32 31 33 32 32 29 29 28 26
54 52 52 51 47 48 49 50 50 50 50 50 47 44 42 41 44 44 43 39 26 28 27 32 32 31 30 33 31 32 31 32 34 31 30 31 29 32 35 33 33 33 33 31 24 25 25
54 53 52 51 48 49 50 50 50 51 52 48 45 43 43 43 44 44 39 34 30 29 31 30 32 26 30 32 32 31 32 32 33 33 28 31 28 33 33 34 35 36 34 36 32 30 29
53 54 53 51 48 49 49 51 51 51 50 46 41 41 41 44 45 44 41 33 32 34 34 32 30 30 27 28 29 30 30 33 33 35 33 31 29 31 36 37 37 35 38 33 33 26 25
53 54 52 51 49 50 51 51 51 50 49 44 42 41 43 44 44 40 38 35 33 35 35 32 29 28 29 29 30 28 29 33 35 36 36 35 32 30 33 34 31 36 35 35 34 31 27
53 53 53 52 49 50 51 50 50 49 48 43 42 43 43 45 43 39 36 33 35 34 36 34 33 29 28 31 29 29 29 31 35 36 33 34 32 29 28 30 33 32 33 34 30 30 27
53 53 53 51 49 51 51 50 50 49 47 41 37 44 44 44 40 36 34 33 34 34 33 33 31 32 31 29 28 29 30 35 36 35 33 33 31 28 26 28 30 30 34 34 32 31 28
52 52 53 51 50 51 50 50 50 49 45 41 35 41 40 38 36 33 33 32 33 35 33 33 31 32 29 27 28 27 25 31 33 34 38 37 31 28 24 22 26 25 26 32 31 30 28
52 52 52 51 48 50 50 50 50 49 45 41 37 38 36 39 34 33 33 33 31 31 34 33 30 31 28 23 25 23 27 28 31 34 34 33 29 30 28 26 24 25 26 25 31 31 29
51 52 52 50 48 50 50 50 50 48 44 41 36 36 36 35 33 33 33 32 31 30 32 28 30 30 30 27 27 25 29 27 24 29 27 30 29 27 27 23 25 25 25 25 24 28 30
53 52 52 50 48 49 49 49 50 48 47 40 42 39 37 35 32 32 30 30 31 33 34 34 33 31 28 32 34 33 33 32 32 30 28 27 28 26 22 21 20 16 17 19 22 26 30
53 53 52 50 47 49 49 49 49 47 45 43 42 38 31 29 30 28 30 31 31 33 32 33 34 32 34 36 34 33 34 33 33 33 33 29 27 27 28 24 19 20 25 26 20 24 27
54 53 52 51 46 48 48 49 48 47 45 43 43 40 35 25 26 28 29 30 31 32 32 32 33 34 36 34 27 21 21 23 25 30 31 32 29 26 25 19 14 10 17 24 25 22 26
54 54 53 53 47 46 48 48 48 47 44 42 40 41 36 29 23 27 29 30 29 28 29 31 34 36 36 31 26 20 12 15 15 22 26 29 29 27 22 18 7 15 24 26 26 17 24
54 54 53 53 51 46 47 47 47 47 43 41 40 40 37 32 30 29 27 29 31 31 29 30 32 35 36 28 23 19 18 21 15 16 21 24 25 24 23 21 17 20 25 25 18 19 26
54 54 54 53 53 49 46 48 47 47 44 41 40 40 38 34 33 31 31 32 34 33 27 31 30 33 33 29 24 22 21 21 22 19 18 18 17 20 19 18 18 23 26 21 23 26 26
54 54 54 53 52 51 48 47 48 47 44 41 39 39 38 35 34 34 33 33 34 35 34 33 32 33 34 35 30 28 25 25 21 14 23 19 18 14 16 17 24 25 26 26 28 28 27